<?xml version="1.0" encoding="UTF-8" standalone="no" ?>
<gpx xmlns="http://www.topografix.com/GPX/1/1" xmlns:xsi="http://www.w3.org/2001/XMLSchema-instance" xsi:schemaLocation="http://www.topografix.com/GPX/1/1 http://www.topografix.com/GPX/1/1/gpx.xsd" version="1.1" creator="VisuGPX - https://www.visugpx.com">
  <metadata>
    <name>-1-Lanne -Marie Blanque Est</name>
    <desc><![CDATA[SEMAINE LSVC 2024]]></desc>
  </metadata>
  <wpt lat="43.1019" lon="-0.43471">
    <ele>413</ele>
    <name><![CDATA[Vélo d'Ossau]]></name>
    <type><![CDATA[GENERIC]]></type>
  </wpt>
  <wpt lat="43.06534" lon="-0.46511">
    <ele>881</ele>
    <name><![CDATA[Col du Porteigt]]></name>
    <type><![CDATA[GENERIC]]></type>
  </wpt>
  <wpt lat="43.12205" lon="-0.61352">
    <ele>278.1</ele>
    <name><![CDATA[Asasp-Arros]]></name>
    <type><![CDATA[GENERIC]]></type>
  </wpt>
  <wpt lat="43.07047" lon="-0.50751">
    <ele>1036</ele>
    <name><![CDATA[Col de Marie-Bl]]></name>
    <type><![CDATA[GENERIC]]></type>
  </wpt>
  <wpt lat="43.07046" lon="-0.50783">
    <ele>1035.3</ele>
    <name><![CDATA[Col de Marie-Bl]]></name>
    <type><![CDATA[GENERIC]]></type>
  </wpt>
  <wpt lat="43.07668" lon="-0.60617">
    <ele>332.5</ele>
    <name><![CDATA[Escot]]></name>
    <type><![CDATA[GENERIC]]></type>
  </wpt>
  <wpt lat="43.10113" lon="-0.66147">
    <ele>331.4</ele>
    <name><![CDATA[Issor]]></name>
    <type><![CDATA[GENERIC]]></type>
  </wpt>
  <wpt lat="43.11385" lon="-0.60709">
    <ele>296.2</ele>
    <name><![CDATA[Lurbe-Saint-Chr]]></name>
    <type><![CDATA[GENERIC]]></type>
  </wpt>
  <wpt lat="43.07043" lon="-0.50721">
    <ele>1034.8</ele>
    <name><![CDATA[Col de Marie Bl]]></name>
    <type><![CDATA[GENERIC]]></type>
  </wpt>
  <trk>
    <name><![CDATA[-1-Lanne -Marie Blanque Est]]></name>
    <extensions>
      <line xmlns="http://www.topografix.com/GPX/gpx_style/0/2">
        <color>0000FF</color>
        <width>4</width>
      </line>
    </extensions>
    <trkseg>
      <trkpt lat="43.09712" lon="-0.77879">
        <ele>337.29</ele>
        <time>2024-05-29T20:47:24.000Z</time>
      </trkpt>
      <trkpt lat="43.09728" lon="-0.77867">
        <ele>337.07</ele>
        <time>2024-05-29T20:47:24.003Z</time>
      </trkpt>
      <trkpt lat="43.09746" lon="-0.77859">
        <ele>336.86</ele>
        <time>2024-05-29T20:47:24.010Z</time>
      </trkpt>
      <trkpt lat="43.09807" lon="-0.7786">
        <ele>336.56</ele>
        <time>2024-05-29T20:47:24.028Z</time>
      </trkpt>
      <trkpt lat="43.09821" lon="-0.77857">
        <ele>336.08</ele>
        <time>2024-05-29T20:47:24.049Z</time>
      </trkpt>
      <trkpt lat="43.09835" lon="-0.77849">
        <ele>335.68</ele>
        <time>2024-05-29T20:47:24.073Z</time>
      </trkpt>
      <trkpt lat="43.09929" lon="-0.77777">
        <ele>335.29</ele>
        <time>2024-05-29T20:47:24.117Z</time>
      </trkpt>
      <trkpt lat="43.09979" lon="-0.77746">
        <ele>334.78</ele>
        <time>2024-05-29T20:47:24.171Z</time>
      </trkpt>
      <trkpt lat="43.10012" lon="-0.77728">
        <ele>334.18</ele>
        <time>2024-05-29T20:47:24.232Z</time>
      </trkpt>
      <trkpt lat="43.10049" lon="-0.77722">
        <ele>333.5</ele>
        <time>2024-05-29T20:47:24.300Z</time>
      </trkpt>
      <trkpt lat="43.10061" lon="-0.77718">
        <ele>332.89</ele>
        <time>2024-05-29T20:47:24.370Z</time>
      </trkpt>
      <trkpt lat="43.10072" lon="-0.7771">
        <ele>332.27</ele>
        <time>2024-05-29T20:47:24.442Z</time>
      </trkpt>
      <trkpt lat="43.10084" lon="-0.77691">
        <ele>331.58</ele>
        <time>2024-05-29T20:47:24.518Z</time>
      </trkpt>
      <trkpt lat="43.10092" lon="-0.77669">
        <ele>330.95</ele>
        <time>2024-05-29T20:47:24.597Z</time>
      </trkpt>
      <trkpt lat="43.10097" lon="-0.77604">
        <ele>330.44</ele>
        <time>2024-05-29T20:47:24.685Z</time>
      </trkpt>
      <trkpt lat="43.10103" lon="-0.77574">
        <ele>329.98</ele>
        <time>2024-05-29T20:47:24.777Z</time>
      </trkpt>
      <trkpt lat="43.10134" lon="-0.77485">
        <ele>329.42</ele>
        <time>2024-05-29T20:47:24.882Z</time>
      </trkpt>
      <trkpt lat="43.10141" lon="-0.77471">
        <ele>328.97</ele>
        <time>2024-05-29T20:47:24.990Z</time>
      </trkpt>
      <trkpt lat="43.10184" lon="-0.77415">
        <ele>328.87</ele>
        <time>2024-05-29T20:47:25.109Z</time>
      </trkpt>
      <trkpt lat="43.10196" lon="-0.77406">
        <ele>328.68</ele>
        <time>2024-05-29T20:47:25.230Z</time>
      </trkpt>
      <trkpt lat="43.10313" lon="-0.77378">
        <ele>327.85</ele>
        <time>2024-05-29T20:47:25.374Z</time>
      </trkpt>
      <trkpt lat="43.10375" lon="-0.77356">
        <ele>327.53</ele>
        <time>2024-05-29T20:47:25.529Z</time>
      </trkpt>
      <trkpt lat="43.10404" lon="-0.77349">
        <ele>326.8</ele>
        <time>2024-05-29T20:47:25.690Z</time>
      </trkpt>
      <trkpt lat="43.10436" lon="-0.77335">
        <ele>325.94</ele>
        <time>2024-05-29T20:47:25.857Z</time>
      </trkpt>
      <trkpt lat="43.10442" lon="-0.77334">
        <ele>325.23</ele>
        <time>2024-05-29T20:47:26.025Z</time>
      </trkpt>
      <trkpt lat="43.10448" lon="-0.77334">
        <ele>324.55</ele>
        <time>2024-05-29T20:47:26.194Z</time>
      </trkpt>
      <trkpt lat="43.105" lon="-0.77354">
        <ele>324.01</ele>
        <time>2024-05-29T20:47:26.373Z</time>
      </trkpt>
      <trkpt lat="43.10522" lon="-0.7736">
        <ele>323.59</ele>
        <time>2024-05-29T20:47:26.557Z</time>
      </trkpt>
      <trkpt lat="43.10545" lon="-0.77357">
        <ele>323.13</ele>
        <time>2024-05-29T20:47:26.745Z</time>
      </trkpt>
      <trkpt lat="43.10559" lon="-0.77352">
        <ele>322.7</ele>
        <time>2024-05-29T20:47:26.936Z</time>
      </trkpt>
      <trkpt lat="43.10579" lon="-0.77339">
        <ele>322.27</ele>
        <time>2024-05-29T20:47:27.131Z</time>
      </trkpt>
      <trkpt lat="43.10614" lon="-0.77311">
        <ele>321.9</ele>
        <time>2024-05-29T20:47:27.333Z</time>
      </trkpt>
      <trkpt lat="43.10682" lon="-0.77277">
        <ele>321.46</ele>
        <time>2024-05-29T20:47:27.549Z</time>
      </trkpt>
      <trkpt lat="43.10702" lon="-0.7727">
        <ele>321.14</ele>
        <time>2024-05-29T20:47:27.769Z</time>
      </trkpt>
      <trkpt lat="43.10842" lon="-0.77252">
        <ele>320.75</ele>
        <time>2024-05-29T20:47:28.015Z</time>
      </trkpt>
      <trkpt lat="43.10905" lon="-0.77263">
        <ele>320.22</ele>
        <time>2024-05-29T20:47:28.273Z</time>
      </trkpt>
      <trkpt lat="43.10927" lon="-0.77263">
        <ele>320.03</ele>
        <time>2024-05-29T20:47:28.535Z</time>
      </trkpt>
      <trkpt lat="43.10945" lon="-0.7726">
        <ele>319.92</ele>
        <time>2024-05-29T20:47:28.800Z</time>
      </trkpt>
      <trkpt lat="43.10965" lon="-0.77247">
        <ele>319.92</ele>
        <time>2024-05-29T20:47:29.069Z</time>
      </trkpt>
      <trkpt lat="43.10988" lon="-0.77229">
        <ele>319.94</ele>
        <time>2024-05-29T20:47:29.343Z</time>
      </trkpt>
      <trkpt lat="43.11028" lon="-0.7722">
        <ele>319.99</ele>
        <time>2024-05-29T20:47:29.625Z</time>
      </trkpt>
      <trkpt lat="43.11028" lon="-0.77212">
        <ele>320.12</ele>
        <time>2024-05-29T20:47:29.908Z</time>
      </trkpt>
      <trkpt lat="43.11025" lon="-0.77095">
        <ele>320.43</ele>
        <time>2024-05-29T20:47:30.207Z</time>
      </trkpt>
      <trkpt lat="43.11026" lon="-0.77084">
        <ele>320.77</ele>
        <time>2024-05-29T20:47:30.507Z</time>
      </trkpt>
      <trkpt lat="43.11036" lon="-0.77063">
        <ele>321.19</ele>
        <time>2024-05-29T20:47:30.811Z</time>
      </trkpt>
      <trkpt lat="43.11042" lon="-0.77055">
        <ele>321.63</ele>
        <time>2024-05-29T20:47:31.116Z</time>
      </trkpt>
      <trkpt lat="43.11052" lon="-0.77047">
        <ele>322.07</ele>
        <time>2024-05-29T20:47:31.423Z</time>
      </trkpt>
      <trkpt lat="43.11113" lon="-0.77021">
        <ele>322.42</ele>
        <time>2024-05-29T20:47:31.742Z</time>
      </trkpt>
      <trkpt lat="43.11132" lon="-0.77006">
        <ele>322.9</ele>
        <time>2024-05-29T20:47:32.065Z</time>
      </trkpt>
      <trkpt lat="43.11148" lon="-0.76984">
        <ele>323.39</ele>
        <time>2024-05-29T20:47:32.392Z</time>
      </trkpt>
      <trkpt lat="43.11161" lon="-0.76958">
        <ele>323.88</ele>
        <time>2024-05-29T20:47:32.724Z</time>
      </trkpt>
      <trkpt lat="43.11175" lon="-0.76919">
        <ele>324.28</ele>
        <time>2024-05-29T20:47:33.062Z</time>
      </trkpt>
      <trkpt lat="43.11181" lon="-0.76901">
        <ele>324.66</ele>
        <time>2024-05-29T20:47:33.402Z</time>
      </trkpt>
      <trkpt lat="43.11216" lon="-0.76731">
        <ele>324.96</ele>
        <time>2024-05-29T20:47:33.766Z</time>
      </trkpt>
      <trkpt lat="43.11297" lon="-0.76442">
        <ele>325.26</ele>
        <time>2024-05-29T20:47:34.173Z</time>
      </trkpt>
      <trkpt lat="43.113" lon="-0.76414">
        <ele>325.47</ele>
        <time>2024-05-29T20:47:34.583Z</time>
      </trkpt>
      <trkpt lat="43.11298" lon="-0.76405">
        <ele>325.64</ele>
        <time>2024-05-29T20:47:34.995Z</time>
      </trkpt>
      <trkpt lat="43.113" lon="-0.76398">
        <ele>325.73</ele>
        <time>2024-05-29T20:47:35.408Z</time>
      </trkpt>
      <trkpt lat="43.11304" lon="-0.76394">
        <ele>325.74</ele>
        <time>2024-05-29T20:47:35.822Z</time>
      </trkpt>
      <trkpt lat="43.11315" lon="-0.76354">
        <ele>325.71</ele>
        <time>2024-05-29T20:47:36.242Z</time>
      </trkpt>
      <trkpt lat="43.11327" lon="-0.76253">
        <ele>325.76</ele>
        <time>2024-05-29T20:47:36.675Z</time>
      </trkpt>
      <trkpt lat="43.11325" lon="-0.76209">
        <ele>325.51</ele>
        <time>2024-05-29T20:47:37.114Z</time>
      </trkpt>
      <trkpt lat="43.11324" lon="-0.76082">
        <ele>325.14</ele>
        <time>2024-05-29T20:47:37.571Z</time>
      </trkpt>
      <trkpt lat="43.11326" lon="-0.76036">
        <ele>324.7</ele>
        <time>2024-05-29T20:47:38.034Z</time>
      </trkpt>
      <trkpt lat="43.11335" lon="-0.75981">
        <ele>324.09</ele>
        <time>2024-05-29T20:47:38.505Z</time>
      </trkpt>
      <trkpt lat="43.11334" lon="-0.75948">
        <ele>323.54</ele>
        <time>2024-05-29T20:47:38.980Z</time>
      </trkpt>
      <trkpt lat="43.11328" lon="-0.7593">
        <ele>322.9</ele>
        <time>2024-05-29T20:47:39.458Z</time>
      </trkpt>
      <trkpt lat="43.11321" lon="-0.75919">
        <ele>322.2</ele>
        <time>2024-05-29T20:47:39.938Z</time>
      </trkpt>
      <trkpt lat="43.11256" lon="-0.75853">
        <ele>321.55</ele>
        <time>2024-05-29T20:47:40.433Z</time>
      </trkpt>
      <trkpt lat="43.11245" lon="-0.75833">
        <ele>320.67</ele>
        <time>2024-05-29T20:47:40.931Z</time>
      </trkpt>
      <trkpt lat="43.11237" lon="-0.75805">
        <ele>319.68</ele>
        <time>2024-05-29T20:47:41.434Z</time>
      </trkpt>
      <trkpt lat="43.11235" lon="-0.75787">
        <ele>318.62</ele>
        <time>2024-05-29T20:47:41.939Z</time>
      </trkpt>
      <trkpt lat="43.11236" lon="-0.75759">
        <ele>317.44</ele>
        <time>2024-05-29T20:47:42.448Z</time>
      </trkpt>
      <trkpt lat="43.11244" lon="-0.75714">
        <ele>316.14</ele>
        <time>2024-05-29T20:47:42.963Z</time>
      </trkpt>
      <trkpt lat="43.11249" lon="-0.75709">
        <ele>314.84</ele>
        <time>2024-05-29T20:47:43.479Z</time>
      </trkpt>
      <trkpt lat="43.11254" lon="-0.75708">
        <ele>313.5</ele>
        <time>2024-05-29T20:47:43.996Z</time>
      </trkpt>
      <trkpt lat="43.11257" lon="-0.75702">
        <ele>312.11</ele>
        <time>2024-05-29T20:47:44.514Z</time>
      </trkpt>
      <trkpt lat="43.11265" lon="-0.7567">
        <ele>310.62</ele>
        <time>2024-05-29T20:47:45.037Z</time>
      </trkpt>
      <trkpt lat="43.11274" lon="-0.75648">
        <ele>309.05</ele>
        <time>2024-05-29T20:47:45.563Z</time>
      </trkpt>
      <trkpt lat="43.11307" lon="-0.75602">
        <ele>307.03</ele>
        <time>2024-05-29T20:47:46.098Z</time>
      </trkpt>
      <trkpt lat="43.11332" lon="-0.75561">
        <ele>305.17</ele>
        <time>2024-05-29T20:47:46.640Z</time>
      </trkpt>
      <trkpt lat="43.11378" lon="-0.75496">
        <ele>303.29</ele>
        <time>2024-05-29T20:47:47.195Z</time>
      </trkpt>
      <trkpt lat="43.11395" lon="-0.75464">
        <ele>301.7</ele>
        <time>2024-05-29T20:47:47.755Z</time>
      </trkpt>
      <trkpt lat="43.11405" lon="-0.75439">
        <ele>300.19</ele>
        <time>2024-05-29T20:47:48.319Z</time>
      </trkpt>
      <trkpt lat="43.11432" lon="-0.75356">
        <ele>298.77</ele>
        <time>2024-05-29T20:47:48.895Z</time>
      </trkpt>
      <trkpt lat="43.11501" lon="-0.75196">
        <ele>297.37</ele>
        <time>2024-05-29T20:47:49.497Z</time>
      </trkpt>
      <trkpt lat="43.11529" lon="-0.75175">
        <ele>296.18</ele>
        <time>2024-05-29T20:47:50.105Z</time>
      </trkpt>
      <trkpt lat="43.11526" lon="-0.75169">
        <ele>294.99</ele>
        <time>2024-05-29T20:47:50.713Z</time>
      </trkpt>
      <trkpt lat="43.11509" lon="-0.75121">
        <ele>293.86</ele>
        <time>2024-05-29T20:47:51.329Z</time>
      </trkpt>
      <trkpt lat="43.11493" lon="-0.7504">
        <ele>292.81</ele>
        <time>2024-05-29T20:47:51.956Z</time>
      </trkpt>
      <trkpt lat="43.11487" lon="-0.7502">
        <ele>291.88</ele>
        <time>2024-05-29T20:47:52.586Z</time>
      </trkpt>
      <trkpt lat="43.11458" lon="-0.74971">
        <ele>291.02</ele>
        <time>2024-05-29T20:47:53.225Z</time>
      </trkpt>
      <trkpt lat="43.11449" lon="-0.74951">
        <ele>290.22</ele>
        <time>2024-05-29T20:47:53.867Z</time>
      </trkpt>
      <trkpt lat="43.11435" lon="-0.74926">
        <ele>289.48</ele>
        <time>2024-05-29T20:47:54.513Z</time>
      </trkpt>
      <trkpt lat="43.1143" lon="-0.74906">
        <ele>288.89</ele>
        <time>2024-05-29T20:47:55.162Z</time>
      </trkpt>
      <trkpt lat="43.11426" lon="-0.74866">
        <ele>288.4</ele>
        <time>2024-05-29T20:47:55.817Z</time>
      </trkpt>
      <trkpt lat="43.11428" lon="-0.74842">
        <ele>287.91</ele>
        <time>2024-05-29T20:47:56.475Z</time>
      </trkpt>
      <trkpt lat="43.11435" lon="-0.74815">
        <ele>287.52</ele>
        <time>2024-05-29T20:47:57.137Z</time>
      </trkpt>
      <trkpt lat="43.11456" lon="-0.74746">
        <ele>287.12</ele>
        <time>2024-05-29T20:47:57.809Z</time>
      </trkpt>
      <trkpt lat="43.11483" lon="-0.74669">
        <ele>286.71</ele>
        <time>2024-05-29T20:47:58.493Z</time>
      </trkpt>
      <trkpt lat="43.11501" lon="-0.7463">
        <ele>286.35</ele>
        <time>2024-05-29T20:47:59.183Z</time>
      </trkpt>
      <trkpt lat="43.11511" lon="-0.74602">
        <ele>286.01</ele>
        <time>2024-05-29T20:47:59.877Z</time>
      </trkpt>
      <trkpt lat="43.11523" lon="-0.74515">
        <ele>285.73</ele>
        <time>2024-05-29T20:48:00.583Z</time>
      </trkpt>
      <trkpt lat="43.1153" lon="-0.7448">
        <ele>285.41</ele>
        <time>2024-05-29T20:48:01.294Z</time>
      </trkpt>
      <trkpt lat="43.11541" lon="-0.74445">
        <ele>285.07</ele>
        <time>2024-05-29T20:48:02.010Z</time>
      </trkpt>
      <trkpt lat="43.11556" lon="-0.74408">
        <ele>284.73</ele>
        <time>2024-05-29T20:48:02.732Z</time>
      </trkpt>
      <trkpt lat="43.11567" lon="-0.74386">
        <ele>284.45</ele>
        <time>2024-05-29T20:48:03.458Z</time>
      </trkpt>
      <trkpt lat="43.11614" lon="-0.74303">
        <ele>284.15</ele>
        <time>2024-05-29T20:48:04.198Z</time>
      </trkpt>
      <trkpt lat="43.11624" lon="-0.74281">
        <ele>283.9</ele>
        <time>2024-05-29T20:48:04.942Z</time>
      </trkpt>
      <trkpt lat="43.11638" lon="-0.7424">
        <ele>283.62</ele>
        <time>2024-05-29T20:48:05.692Z</time>
      </trkpt>
      <trkpt lat="43.11647" lon="-0.7422">
        <ele>283.35</ele>
        <time>2024-05-29T20:48:06.445Z</time>
      </trkpt>
      <trkpt lat="43.11694" lon="-0.74157">
        <ele>283.09</ele>
        <time>2024-05-29T20:48:07.210Z</time>
      </trkpt>
      <trkpt lat="43.11704" lon="-0.74137">
        <ele>282.84</ele>
        <time>2024-05-29T20:48:07.978Z</time>
      </trkpt>
      <trkpt lat="43.11718" lon="-0.74098">
        <ele>282.55</ele>
        <time>2024-05-29T20:48:08.752Z</time>
      </trkpt>
      <trkpt lat="43.11807" lon="-0.73962">
        <ele>282.32</ele>
        <time>2024-05-29T20:48:09.551Z</time>
      </trkpt>
      <trkpt lat="43.11828" lon="-0.73926">
        <ele>282.07</ele>
        <time>2024-05-29T20:48:10.356Z</time>
      </trkpt>
      <trkpt lat="43.11859" lon="-0.73851">
        <ele>281.73</ele>
        <time>2024-05-29T20:48:11.173Z</time>
      </trkpt>
      <trkpt lat="43.11891" lon="-0.73766">
        <ele>281.5</ele>
        <time>2024-05-29T20:48:12.003Z</time>
      </trkpt>
      <trkpt lat="43.11931" lon="-0.73695">
        <ele>281.24</ele>
        <time>2024-05-29T20:48:12.845Z</time>
      </trkpt>
      <trkpt lat="43.11955" lon="-0.73656">
        <ele>280.87</ele>
        <time>2024-05-29T20:48:13.694Z</time>
      </trkpt>
      <trkpt lat="43.12047" lon="-0.73556">
        <ele>280.6</ele>
        <time>2024-05-29T20:48:14.565Z</time>
      </trkpt>
      <trkpt lat="43.12054" lon="-0.73544">
        <ele>280.31</ele>
        <time>2024-05-29T20:48:15.438Z</time>
      </trkpt>
      <trkpt lat="43.12059" lon="-0.73527">
        <ele>280.03</ele>
        <time>2024-05-29T20:48:16.314Z</time>
      </trkpt>
      <trkpt lat="43.12059" lon="-0.73511">
        <ele>279.76</ele>
        <time>2024-05-29T20:48:17.192Z</time>
      </trkpt>
      <trkpt lat="43.12053" lon="-0.73467">
        <ele>279.51</ele>
        <time>2024-05-29T20:48:18.076Z</time>
      </trkpt>
      <trkpt lat="43.12054" lon="-0.73448">
        <ele>279.3</ele>
        <time>2024-05-29T20:48:18.963Z</time>
      </trkpt>
      <trkpt lat="43.1206" lon="-0.73429">
        <ele>279.11</ele>
        <time>2024-05-29T20:48:19.853Z</time>
      </trkpt>
      <trkpt lat="43.12073" lon="-0.73414">
        <ele>278.96</ele>
        <time>2024-05-29T20:48:20.746Z</time>
      </trkpt>
      <trkpt lat="43.12084" lon="-0.73406">
        <ele>278.78</ele>
        <time>2024-05-29T20:48:21.641Z</time>
      </trkpt>
      <trkpt lat="43.12102" lon="-0.73408">
        <ele>278.61</ele>
        <time>2024-05-29T20:48:22.539Z</time>
      </trkpt>
      <trkpt lat="43.12114" lon="-0.73404">
        <ele>278.48</ele>
        <time>2024-05-29T20:48:23.440Z</time>
      </trkpt>
      <trkpt lat="43.12112" lon="-0.73398">
        <ele>278.39</ele>
        <time>2024-05-29T20:48:24.342Z</time>
      </trkpt>
      <trkpt lat="43.12099" lon="-0.73365">
        <ele>278.41</ele>
        <time>2024-05-29T20:48:25.249Z</time>
      </trkpt>
      <trkpt lat="43.12097" lon="-0.73352">
        <ele>278.41</ele>
        <time>2024-05-29T20:48:26.158Z</time>
      </trkpt>
      <trkpt lat="43.12099" lon="-0.73328">
        <ele>278.41</ele>
        <time>2024-05-29T20:48:27.070Z</time>
      </trkpt>
      <trkpt lat="43.12126" lon="-0.73207">
        <ele>278.46</ele>
        <time>2024-05-29T20:48:27.999Z</time>
      </trkpt>
      <trkpt lat="43.12142" lon="-0.73152">
        <ele>278.5</ele>
        <time>2024-05-29T20:48:28.936Z</time>
      </trkpt>
      <trkpt lat="43.12144" lon="-0.73109">
        <ele>278.61</ele>
        <time>2024-05-29T20:48:29.879Z</time>
      </trkpt>
      <trkpt lat="43.12148" lon="-0.73062">
        <ele>278.67</ele>
        <time>2024-05-29T20:48:30.828Z</time>
      </trkpt>
      <trkpt lat="43.12147" lon="-0.73052">
        <ele>278.75</ele>
        <time>2024-05-29T20:48:31.779Z</time>
      </trkpt>
      <trkpt lat="43.12144" lon="-0.73045">
        <ele>278.86</ele>
        <time>2024-05-29T20:48:32.731Z</time>
      </trkpt>
      <trkpt lat="43.12137" lon="-0.73038">
        <ele>278.97</ele>
        <time>2024-05-29T20:48:33.685Z</time>
      </trkpt>
      <trkpt lat="43.12135" lon="-0.73003">
        <ele>279.06</ele>
        <time>2024-05-29T20:48:34.643Z</time>
      </trkpt>
      <trkpt lat="43.12108" lon="-0.72877">
        <ele>279.2</ele>
        <time>2024-05-29T20:48:35.619Z</time>
      </trkpt>
      <trkpt lat="43.12103" lon="-0.72866">
        <ele>279.44</ele>
        <time>2024-05-29T20:48:36.597Z</time>
      </trkpt>
      <trkpt lat="43.12079" lon="-0.72831">
        <ele>279.73</ele>
        <time>2024-05-29T20:48:37.581Z</time>
      </trkpt>
      <trkpt lat="43.12074" lon="-0.72816">
        <ele>279.98</ele>
        <time>2024-05-29T20:48:38.568Z</time>
      </trkpt>
      <trkpt lat="43.12073" lon="-0.7281">
        <ele>280.24</ele>
        <time>2024-05-29T20:48:39.556Z</time>
      </trkpt>
      <trkpt lat="43.12054" lon="-0.72808">
        <ele>280.53</ele>
        <time>2024-05-29T20:48:40.547Z</time>
      </trkpt>
      <trkpt lat="43.12045" lon="-0.72802">
        <ele>280.85</ele>
        <time>2024-05-29T20:48:41.540Z</time>
      </trkpt>
      <trkpt lat="43.12029" lon="-0.72784">
        <ele>281.17</ele>
        <time>2024-05-29T20:48:42.537Z</time>
      </trkpt>
      <trkpt lat="43.12023" lon="-0.72772">
        <ele>281.54</ele>
        <time>2024-05-29T20:48:43.536Z</time>
      </trkpt>
      <trkpt lat="43.12006" lon="-0.72726">
        <ele>281.93</ele>
        <time>2024-05-29T20:48:44.542Z</time>
      </trkpt>
      <trkpt lat="43.11997" lon="-0.72708">
        <ele>282.43</ele>
        <time>2024-05-29T20:48:45.551Z</time>
      </trkpt>
      <trkpt lat="43.11972" lon="-0.72679">
        <ele>283.03</ele>
        <time>2024-05-29T20:48:46.566Z</time>
      </trkpt>
      <trkpt lat="43.11954" lon="-0.72661">
        <ele>283.64</ele>
        <time>2024-05-29T20:48:47.585Z</time>
      </trkpt>
      <trkpt lat="43.11905" lon="-0.72642">
        <ele>284.23</ele>
        <time>2024-05-29T20:48:48.614Z</time>
      </trkpt>
      <trkpt lat="43.11876" lon="-0.72635">
        <ele>284.82</ele>
        <time>2024-05-29T20:48:49.648Z</time>
      </trkpt>
      <trkpt lat="43.11847" lon="-0.72634">
        <ele>285.42</ele>
        <time>2024-05-29T20:48:50.687Z</time>
      </trkpt>
      <trkpt lat="43.1181" lon="-0.72636">
        <ele>286.12</ele>
        <time>2024-05-29T20:48:51.733Z</time>
      </trkpt>
      <trkpt lat="43.11742" lon="-0.72652">
        <ele>286.92</ele>
        <time>2024-05-29T20:48:52.792Z</time>
      </trkpt>
      <trkpt lat="43.11718" lon="-0.72656">
        <ele>287.8</ele>
        <time>2024-05-29T20:48:53.856Z</time>
      </trkpt>
      <trkpt lat="43.11659" lon="-0.72658">
        <ele>288.65</ele>
        <time>2024-05-29T20:48:54.931Z</time>
      </trkpt>
      <trkpt lat="43.11623" lon="-0.72662">
        <ele>289.59</ele>
        <time>2024-05-29T20:48:56.012Z</time>
      </trkpt>
      <trkpt lat="43.11585" lon="-0.72676">
        <ele>290.59</ele>
        <time>2024-05-29T20:48:57.101Z</time>
      </trkpt>
      <trkpt lat="43.11557" lon="-0.72694">
        <ele>291.6</ele>
        <time>2024-05-29T20:48:58.195Z</time>
      </trkpt>
      <trkpt lat="43.11451" lon="-0.7278">
        <ele>292.75</ele>
        <time>2024-05-29T20:48:59.312Z</time>
      </trkpt>
      <trkpt lat="43.11377" lon="-0.72843">
        <ele>293.81</ele>
        <time>2024-05-29T20:49:00.446Z</time>
      </trkpt>
      <trkpt lat="43.11306" lon="-0.72886">
        <ele>294.9</ele>
        <time>2024-05-29T20:49:01.594Z</time>
      </trkpt>
      <trkpt lat="43.1127" lon="-0.729">
        <ele>296.01</ele>
        <time>2024-05-29T20:49:02.749Z</time>
      </trkpt>
      <trkpt lat="43.11221" lon="-0.72913">
        <ele>297.22</ele>
        <time>2024-05-29T20:49:03.913Z</time>
      </trkpt>
      <trkpt lat="43.11127" lon="-0.72925">
        <ele>298.86</ele>
        <time>2024-05-29T20:49:05.095Z</time>
      </trkpt>
      <trkpt lat="43.10961" lon="-0.72954">
        <ele>300.29</ele>
        <time>2024-05-29T20:49:06.308Z</time>
      </trkpt>
      <trkpt lat="43.10938" lon="-0.72959">
        <ele>301.36</ele>
        <time>2024-05-29T20:49:07.525Z</time>
      </trkpt>
      <trkpt lat="43.10908" lon="-0.72975">
        <ele>302.31</ele>
        <time>2024-05-29T20:49:08.748Z</time>
      </trkpt>
      <trkpt lat="43.10893" lon="-0.72976">
        <ele>303.35</ele>
        <time>2024-05-29T20:49:09.974Z</time>
      </trkpt>
      <trkpt lat="43.10849" lon="-0.72946">
        <ele>304.42</ele>
        <time>2024-05-29T20:49:11.209Z</time>
      </trkpt>
      <trkpt lat="43.1083" lon="-0.72943">
        <ele>305.45</ele>
        <time>2024-05-29T20:49:12.448Z</time>
      </trkpt>
      <trkpt lat="43.10748" lon="-0.72956">
        <ele>306.7</ele>
        <time>2024-05-29T20:49:13.702Z</time>
      </trkpt>
      <trkpt lat="43.10733" lon="-0.72952">
        <ele>307.76</ele>
        <time>2024-05-29T20:49:14.959Z</time>
      </trkpt>
      <trkpt lat="43.10727" lon="-0.72949">
        <ele>308.71</ele>
        <time>2024-05-29T20:49:16.217Z</time>
      </trkpt>
      <trkpt lat="43.10648" lon="-0.72907">
        <ele>309.68</ele>
        <time>2024-05-29T20:49:17.491Z</time>
      </trkpt>
      <trkpt lat="43.10619" lon="-0.72885">
        <ele>310.51</ele>
        <time>2024-05-29T20:49:18.771Z</time>
      </trkpt>
      <trkpt lat="43.10486" lon="-0.7274">
        <ele>311.95</ele>
        <time>2024-05-29T20:49:20.083Z</time>
      </trkpt>
      <trkpt lat="43.10353" lon="-0.72573">
        <ele>313.05</ele>
        <time>2024-05-29T20:49:21.428Z</time>
      </trkpt>
      <trkpt lat="43.10221" lon="-0.72401">
        <ele>312.82</ele>
        <time>2024-05-29T20:49:22.807Z</time>
      </trkpt>
      <trkpt lat="43.10202" lon="-0.72364">
        <ele>313.41</ele>
        <time>2024-05-29T20:49:24.193Z</time>
      </trkpt>
      <trkpt lat="43.10177" lon="-0.72287">
        <ele>314.08</ele>
        <time>2024-05-29T20:49:25.590Z</time>
      </trkpt>
      <trkpt lat="43.1015" lon="-0.72224">
        <ele>314.96</ele>
        <time>2024-05-29T20:49:26.997Z</time>
      </trkpt>
      <trkpt lat="43.10114" lon="-0.72173">
        <ele>315.47</ele>
        <time>2024-05-29T20:49:28.414Z</time>
      </trkpt>
      <trkpt lat="43.10033" lon="-0.72107">
        <ele>315.72</ele>
        <time>2024-05-29T20:49:29.848Z</time>
      </trkpt>
      <trkpt lat="43.0993" lon="-0.72027">
        <ele>315.97</ele>
        <time>2024-05-29T20:49:31.304Z</time>
      </trkpt>
      <trkpt lat="43.09903" lon="-0.72003">
        <ele>316.34</ele>
        <time>2024-05-29T20:49:32.766Z</time>
      </trkpt>
      <trkpt lat="43.099" lon="-0.71997">
        <ele>316.7</ele>
        <time>2024-05-29T20:49:34.229Z</time>
      </trkpt>
      <trkpt lat="43.09876" lon="-0.71956">
        <ele>317.04</ele>
        <time>2024-05-29T20:49:35.699Z</time>
      </trkpt>
      <trkpt lat="43.09828" lon="-0.71897">
        <ele>317.51</ele>
        <time>2024-05-29T20:49:37.181Z</time>
      </trkpt>
      <trkpt lat="43.09821" lon="-0.71885">
        <ele>317.86</ele>
        <time>2024-05-29T20:49:38.665Z</time>
      </trkpt>
      <trkpt lat="43.09817" lon="-0.71875">
        <ele>318.21</ele>
        <time>2024-05-29T20:49:40.151Z</time>
      </trkpt>
      <trkpt lat="43.09815" lon="-0.71867">
        <ele>318.58</ele>
        <time>2024-05-29T20:49:41.638Z</time>
      </trkpt>
      <trkpt lat="43.09813" lon="-0.71825">
        <ele>318.96</ele>
        <time>2024-05-29T20:49:43.131Z</time>
      </trkpt>
      <trkpt lat="43.09805" lon="-0.71789">
        <ele>319.41</ele>
        <time>2024-05-29T20:49:44.629Z</time>
      </trkpt>
      <trkpt lat="43.09793" lon="-0.7176">
        <ele>319.89</ele>
        <time>2024-05-29T20:49:46.132Z</time>
      </trkpt>
      <trkpt lat="43.09785" lon="-0.71745">
        <ele>320.43</ele>
        <time>2024-05-29T20:49:47.637Z</time>
      </trkpt>
      <trkpt lat="43.09777" lon="-0.71735">
        <ele>320.96</ele>
        <time>2024-05-29T20:49:49.144Z</time>
      </trkpt>
      <trkpt lat="43.09766" lon="-0.71725">
        <ele>321.51</ele>
        <time>2024-05-29T20:49:50.654Z</time>
      </trkpt>
      <trkpt lat="43.09705" lon="-0.71698">
        <ele>322.19</ele>
        <time>2024-05-29T20:49:52.175Z</time>
      </trkpt>
      <trkpt lat="43.09616" lon="-0.71687">
        <ele>323.04</ele>
        <time>2024-05-29T20:49:53.713Z</time>
      </trkpt>
      <trkpt lat="43.09557" lon="-0.71703">
        <ele>323.84</ele>
        <time>2024-05-29T20:49:55.262Z</time>
      </trkpt>
      <trkpt lat="43.09544" lon="-0.71664">
        <ele>324.67</ele>
        <time>2024-05-29T20:49:56.817Z</time>
      </trkpt>
      <trkpt lat="43.0954" lon="-0.71657">
        <ele>325.54</ele>
        <time>2024-05-29T20:49:58.373Z</time>
      </trkpt>
      <trkpt lat="43.09533" lon="-0.71651">
        <ele>326.47</ele>
        <time>2024-05-29T20:49:59.931Z</time>
      </trkpt>
      <trkpt lat="43.09511" lon="-0.71643">
        <ele>327.48</ele>
        <time>2024-05-29T20:50:01.493Z</time>
      </trkpt>
      <trkpt lat="43.09509" lon="-0.71638">
        <ele>328.53</ele>
        <time>2024-05-29T20:50:03.056Z</time>
      </trkpt>
      <trkpt lat="43.09507" lon="-0.71632">
        <ele>329.63</ele>
        <time>2024-05-29T20:50:04.620Z</time>
      </trkpt>
      <trkpt lat="43.09507" lon="-0.71599">
        <ele>330.78</ele>
        <time>2024-05-29T20:50:06.188Z</time>
      </trkpt>
      <trkpt lat="43.0952" lon="-0.71495">
        <ele>331.91</ele>
        <time>2024-05-29T20:50:07.771Z</time>
      </trkpt>
      <trkpt lat="43.09523" lon="-0.71448">
        <ele>333.45</ele>
        <time>2024-05-29T20:50:09.360Z</time>
      </trkpt>
      <trkpt lat="43.09522" lon="-0.71431">
        <ele>334.85</ele>
        <time>2024-05-29T20:50:10.951Z</time>
      </trkpt>
      <trkpt lat="43.09517" lon="-0.71412">
        <ele>336.25</ele>
        <time>2024-05-29T20:50:12.545Z</time>
      </trkpt>
      <trkpt lat="43.09502" lon="-0.71388">
        <ele>337.56</ele>
        <time>2024-05-29T20:50:14.143Z</time>
      </trkpt>
      <trkpt lat="43.09496" lon="-0.71372">
        <ele>338.94</ele>
        <time>2024-05-29T20:50:15.744Z</time>
      </trkpt>
      <trkpt lat="43.09492" lon="-0.71356">
        <ele>340.31</ele>
        <time>2024-05-29T20:50:17.347Z</time>
      </trkpt>
      <trkpt lat="43.09495" lon="-0.71336">
        <ele>341.77</ele>
        <time>2024-05-29T20:50:18.953Z</time>
      </trkpt>
      <trkpt lat="43.09509" lon="-0.71303">
        <ele>343.29</ele>
        <time>2024-05-29T20:50:20.564Z</time>
      </trkpt>
      <trkpt lat="43.09551" lon="-0.71233">
        <ele>345.09</ele>
        <time>2024-05-29T20:50:22.188Z</time>
      </trkpt>
      <trkpt lat="43.09561" lon="-0.71207">
        <ele>346.55</ele>
        <time>2024-05-29T20:50:23.816Z</time>
      </trkpt>
      <trkpt lat="43.09565" lon="-0.71193">
        <ele>347.93</ele>
        <time>2024-05-29T20:50:25.446Z</time>
      </trkpt>
      <trkpt lat="43.09568" lon="-0.71165">
        <ele>349.25</ele>
        <time>2024-05-29T20:50:27.079Z</time>
      </trkpt>
      <trkpt lat="43.09572" lon="-0.71111">
        <ele>350.6</ele>
        <time>2024-05-29T20:50:28.720Z</time>
      </trkpt>
      <trkpt lat="43.09575" lon="-0.71053">
        <ele>352.06</ele>
        <time>2024-05-29T20:50:30.369Z</time>
      </trkpt>
      <trkpt lat="43.09574" lon="-0.71036">
        <ele>353.19</ele>
        <time>2024-05-29T20:50:32.020Z</time>
      </trkpt>
      <trkpt lat="43.09565" lon="-0.71003">
        <ele>354.21</ele>
        <time>2024-05-29T20:50:33.676Z</time>
      </trkpt>
      <trkpt lat="43.09552" lon="-0.70967">
        <ele>355.34</ele>
        <time>2024-05-29T20:50:35.337Z</time>
      </trkpt>
      <trkpt lat="43.09537" lon="-0.70944">
        <ele>356.27</ele>
        <time>2024-05-29T20:50:37.003Z</time>
      </trkpt>
      <trkpt lat="43.09533" lon="-0.70941">
        <ele>357.12</ele>
        <time>2024-05-29T20:50:38.669Z</time>
      </trkpt>
      <trkpt lat="43.0953" lon="-0.7094">
        <ele>357.9</ele>
        <time>2024-05-29T20:50:40.336Z</time>
      </trkpt>
      <trkpt lat="43.09521" lon="-0.70942">
        <ele>358.54</ele>
        <time>2024-05-29T20:50:42.005Z</time>
      </trkpt>
      <trkpt lat="43.09517" lon="-0.70951">
        <ele>359.13</ele>
        <time>2024-05-29T20:50:43.675Z</time>
      </trkpt>
      <trkpt lat="43.09516" lon="-0.70966">
        <ele>359.75</ele>
        <time>2024-05-29T20:50:45.347Z</time>
      </trkpt>
      <trkpt lat="43.0952" lon="-0.70992">
        <ele>360.37</ele>
        <time>2024-05-29T20:50:47.023Z</time>
      </trkpt>
      <trkpt lat="43.09533" lon="-0.71051">
        <ele>360.84</ele>
        <time>2024-05-29T20:50:48.707Z</time>
      </trkpt>
      <trkpt lat="43.09534" lon="-0.71067">
        <ele>361.34</ele>
        <time>2024-05-29T20:50:50.393Z</time>
      </trkpt>
      <trkpt lat="43.09531" lon="-0.71081">
        <ele>361.9</ele>
        <time>2024-05-29T20:50:52.081Z</time>
      </trkpt>
      <trkpt lat="43.09527" lon="-0.71095">
        <ele>362.45</ele>
        <time>2024-05-29T20:50:53.771Z</time>
      </trkpt>
      <trkpt lat="43.09517" lon="-0.7111">
        <ele>363.06</ele>
        <time>2024-05-29T20:50:55.464Z</time>
      </trkpt>
      <trkpt lat="43.09499" lon="-0.71128">
        <ele>363.87</ele>
        <time>2024-05-29T20:50:57.161Z</time>
      </trkpt>
      <trkpt lat="43.09477" lon="-0.71174">
        <ele>364.56</ele>
        <time>2024-05-29T20:50:58.866Z</time>
      </trkpt>
      <trkpt lat="43.0947" lon="-0.71184">
        <ele>365.14</ele>
        <time>2024-05-29T20:51:00.573Z</time>
      </trkpt>
      <trkpt lat="43.09462" lon="-0.71191">
        <ele>365.79</ele>
        <time>2024-05-29T20:51:02.281Z</time>
      </trkpt>
      <trkpt lat="43.09448" lon="-0.71199">
        <ele>366.53</ele>
        <time>2024-05-29T20:51:03.992Z</time>
      </trkpt>
      <trkpt lat="43.09405" lon="-0.71217">
        <ele>367.27</ele>
        <time>2024-05-29T20:51:05.712Z</time>
      </trkpt>
      <trkpt lat="43.0938" lon="-0.71222">
        <ele>368.06</ele>
        <time>2024-05-29T20:51:07.436Z</time>
      </trkpt>
      <trkpt lat="43.09349" lon="-0.71219">
        <ele>368.87</ele>
        <time>2024-05-29T20:51:09.166Z</time>
      </trkpt>
      <trkpt lat="43.09328" lon="-0.71213">
        <ele>369.56</ele>
        <time>2024-05-29T20:51:10.900Z</time>
      </trkpt>
      <trkpt lat="43.09304" lon="-0.71197">
        <ele>370.34</ele>
        <time>2024-05-29T20:51:12.639Z</time>
      </trkpt>
      <trkpt lat="43.09278" lon="-0.71175">
        <ele>371.23</ele>
        <time>2024-05-29T20:51:14.384Z</time>
      </trkpt>
      <trkpt lat="43.09262" lon="-0.71166">
        <ele>372.2</ele>
        <time>2024-05-29T20:51:16.132Z</time>
      </trkpt>
      <trkpt lat="43.09244" lon="-0.71158">
        <ele>373.27</ele>
        <time>2024-05-29T20:51:17.884Z</time>
      </trkpt>
      <trkpt lat="43.09213" lon="-0.71149">
        <ele>374.16</ele>
        <time>2024-05-29T20:51:19.641Z</time>
      </trkpt>
      <trkpt lat="43.09205" lon="-0.71143">
        <ele>375.1</ele>
        <time>2024-05-29T20:51:21.400Z</time>
      </trkpt>
      <trkpt lat="43.09203" lon="-0.71136">
        <ele>376.11</ele>
        <time>2024-05-29T20:51:23.160Z</time>
      </trkpt>
      <trkpt lat="43.09202" lon="-0.71134">
        <ele>377.13</ele>
        <time>2024-05-29T20:51:24.920Z</time>
      </trkpt>
      <trkpt lat="43.09203" lon="-0.71124">
        <ele>378.24</ele>
        <time>2024-05-29T20:51:26.682Z</time>
      </trkpt>
      <trkpt lat="43.09208" lon="-0.71114">
        <ele>379.39</ele>
        <time>2024-05-29T20:51:28.446Z</time>
      </trkpt>
      <trkpt lat="43.09238" lon="-0.71072">
        <ele>380.86</ele>
        <time>2024-05-29T20:51:30.218Z</time>
      </trkpt>
      <trkpt lat="43.09246" lon="-0.71055">
        <ele>382.1</ele>
        <time>2024-05-29T20:51:31.992Z</time>
      </trkpt>
      <trkpt lat="43.09249" lon="-0.71045">
        <ele>383.29</ele>
        <time>2024-05-29T20:51:33.768Z</time>
      </trkpt>
      <trkpt lat="43.09252" lon="-0.71026">
        <ele>384.52</ele>
        <time>2024-05-29T20:51:35.546Z</time>
      </trkpt>
      <trkpt lat="43.09251" lon="-0.71015">
        <ele>385.67</ele>
        <time>2024-05-29T20:51:37.326Z</time>
      </trkpt>
      <trkpt lat="43.09249" lon="-0.71009">
        <ele>386.78</ele>
        <time>2024-05-29T20:51:39.107Z</time>
      </trkpt>
      <trkpt lat="43.09243" lon="-0.71001">
        <ele>387.85</ele>
        <time>2024-05-29T20:51:40.889Z</time>
      </trkpt>
      <trkpt lat="43.09235" lon="-0.70996">
        <ele>388.92</ele>
        <time>2024-05-29T20:51:42.673Z</time>
      </trkpt>
      <trkpt lat="43.09203" lon="-0.70991">
        <ele>389.8</ele>
        <time>2024-05-29T20:51:44.463Z</time>
      </trkpt>
      <trkpt lat="43.09192" lon="-0.70986">
        <ele>390.84</ele>
        <time>2024-05-29T20:51:46.255Z</time>
      </trkpt>
      <trkpt lat="43.09183" lon="-0.7098">
        <ele>391.9</ele>
        <time>2024-05-29T20:51:48.049Z</time>
      </trkpt>
      <trkpt lat="43.09175" lon="-0.70971">
        <ele>392.99</ele>
        <time>2024-05-29T20:51:49.845Z</time>
      </trkpt>
      <trkpt lat="43.09171" lon="-0.70961">
        <ele>394.1</ele>
        <time>2024-05-29T20:51:51.642Z</time>
      </trkpt>
      <trkpt lat="43.09169" lon="-0.70949">
        <ele>395.21</ele>
        <time>2024-05-29T20:51:53.441Z</time>
      </trkpt>
      <trkpt lat="43.09171" lon="-0.70897">
        <ele>396.51</ele>
        <time>2024-05-29T20:51:55.247Z</time>
      </trkpt>
      <trkpt lat="43.09174" lon="-0.70885">
        <ele>397.63</ele>
        <time>2024-05-29T20:51:57.055Z</time>
      </trkpt>
      <trkpt lat="43.09178" lon="-0.70877">
        <ele>398.77</ele>
        <time>2024-05-29T20:51:58.864Z</time>
      </trkpt>
      <trkpt lat="43.09184" lon="-0.70871">
        <ele>399.92</ele>
        <time>2024-05-29T20:52:00.675Z</time>
      </trkpt>
      <trkpt lat="43.09224" lon="-0.70855">
        <ele>401.34</ele>
        <time>2024-05-29T20:52:02.493Z</time>
      </trkpt>
      <trkpt lat="43.09237" lon="-0.70846">
        <ele>402.45</ele>
        <time>2024-05-29T20:52:04.314Z</time>
      </trkpt>
      <trkpt lat="43.09246" lon="-0.70837">
        <ele>403.53</ele>
        <time>2024-05-29T20:52:06.137Z</time>
      </trkpt>
      <trkpt lat="43.09254" lon="-0.70824">
        <ele>404.62</ele>
        <time>2024-05-29T20:52:07.963Z</time>
      </trkpt>
      <trkpt lat="43.09259" lon="-0.70808">
        <ele>405.67</ele>
        <time>2024-05-29T20:52:09.791Z</time>
      </trkpt>
      <trkpt lat="43.0926" lon="-0.70794">
        <ele>406.7</ele>
        <time>2024-05-29T20:52:11.621Z</time>
      </trkpt>
      <trkpt lat="43.09255" lon="-0.70772">
        <ele>407.72</ele>
        <time>2024-05-29T20:52:13.454Z</time>
      </trkpt>
      <trkpt lat="43.09248" lon="-0.70763">
        <ele>408.72</ele>
        <time>2024-05-29T20:52:15.289Z</time>
      </trkpt>
      <trkpt lat="43.09236" lon="-0.70755">
        <ele>409.67</ele>
        <time>2024-05-29T20:52:17.126Z</time>
      </trkpt>
      <trkpt lat="43.09169" lon="-0.70722">
        <ele>410.45</ele>
        <time>2024-05-29T20:52:18.976Z</time>
      </trkpt>
      <trkpt lat="43.09162" lon="-0.70716">
        <ele>411.36</ele>
        <time>2024-05-29T20:52:20.828Z</time>
      </trkpt>
      <trkpt lat="43.09158" lon="-0.70709">
        <ele>412.23</ele>
        <time>2024-05-29T20:52:22.681Z</time>
      </trkpt>
      <trkpt lat="43.09156" lon="-0.70699">
        <ele>413.1</ele>
        <time>2024-05-29T20:52:24.536Z</time>
      </trkpt>
      <trkpt lat="43.09161" lon="-0.70677">
        <ele>414.04</ele>
        <time>2024-05-29T20:52:26.394Z</time>
      </trkpt>
      <trkpt lat="43.09178" lon="-0.7064">
        <ele>414.98</ele>
        <time>2024-05-29T20:52:28.258Z</time>
      </trkpt>
      <trkpt lat="43.09187" lon="-0.70626">
        <ele>415.8</ele>
        <time>2024-05-29T20:52:30.124Z</time>
      </trkpt>
      <trkpt lat="43.0921" lon="-0.70599">
        <ele>416.76</ele>
        <time>2024-05-29T20:52:31.996Z</time>
      </trkpt>
      <trkpt lat="43.09214" lon="-0.70589">
        <ele>417.41</ele>
        <time>2024-05-29T20:52:33.869Z</time>
      </trkpt>
      <trkpt lat="43.09216" lon="-0.7057">
        <ele>417.99</ele>
        <time>2024-05-29T20:52:35.745Z</time>
      </trkpt>
      <trkpt lat="43.09213" lon="-0.70557">
        <ele>418.45</ele>
        <time>2024-05-29T20:52:37.623Z</time>
      </trkpt>
      <trkpt lat="43.09202" lon="-0.70524">
        <ele>418.81</ele>
        <time>2024-05-29T20:52:39.506Z</time>
      </trkpt>
      <trkpt lat="43.09201" lon="-0.70496">
        <ele>419.13</ele>
        <time>2024-05-29T20:52:41.393Z</time>
      </trkpt>
      <trkpt lat="43.09207" lon="-0.70462">
        <ele>419.4</ele>
        <time>2024-05-29T20:52:43.284Z</time>
      </trkpt>
      <trkpt lat="43.09212" lon="-0.70448">
        <ele>419.56</ele>
        <time>2024-05-29T20:52:45.178Z</time>
      </trkpt>
      <trkpt lat="43.09236" lon="-0.70419">
        <ele>419.59</ele>
        <time>2024-05-29T20:52:47.078Z</time>
      </trkpt>
      <trkpt lat="43.09242" lon="-0.70404">
        <ele>419.5</ele>
        <time>2024-05-29T20:52:48.980Z</time>
      </trkpt>
      <trkpt lat="43.09243" lon="-0.70349">
        <ele>419.3</ele>
        <time>2024-05-29T20:52:50.889Z</time>
      </trkpt>
      <trkpt lat="43.09255" lon="-0.70258">
        <ele>418.88</ele>
        <time>2024-05-29T20:52:52.811Z</time>
      </trkpt>
      <trkpt lat="43.09255" lon="-0.70244">
        <ele>418.62</ele>
        <time>2024-05-29T20:52:54.735Z</time>
      </trkpt>
      <trkpt lat="43.09251" lon="-0.70232">
        <ele>418.23</ele>
        <time>2024-05-29T20:52:56.661Z</time>
      </trkpt>
      <trkpt lat="43.09247" lon="-0.70223">
        <ele>417.73</ele>
        <time>2024-05-29T20:52:58.588Z</time>
      </trkpt>
      <trkpt lat="43.09242" lon="-0.70219">
        <ele>417.22</ele>
        <time>2024-05-29T20:53:00.516Z</time>
      </trkpt>
      <trkpt lat="43.09233" lon="-0.70217">
        <ele>416.68</ele>
        <time>2024-05-29T20:53:02.446Z</time>
      </trkpt>
      <trkpt lat="43.09146" lon="-0.70244">
        <ele>416.33</ele>
        <time>2024-05-29T20:53:04.393Z</time>
      </trkpt>
      <trkpt lat="43.09136" lon="-0.7024">
        <ele>415.76</ele>
        <time>2024-05-29T20:53:06.341Z</time>
      </trkpt>
      <trkpt lat="43.09129" lon="-0.70231">
        <ele>415.11</ele>
        <time>2024-05-29T20:53:08.291Z</time>
      </trkpt>
      <trkpt lat="43.09128" lon="-0.70215">
        <ele>414.38</ele>
        <time>2024-05-29T20:53:10.243Z</time>
      </trkpt>
      <trkpt lat="43.09135" lon="-0.70201">
        <ele>413.56</ele>
        <time>2024-05-29T20:53:12.198Z</time>
      </trkpt>
      <trkpt lat="43.09208" lon="-0.70129">
        <ele>412.19</ele>
        <time>2024-05-29T20:53:14.170Z</time>
      </trkpt>
      <trkpt lat="43.09223" lon="-0.70105">
        <ele>411.26</ele>
        <time>2024-05-29T20:53:16.146Z</time>
      </trkpt>
      <trkpt lat="43.09233" lon="-0.70084">
        <ele>410.39</ele>
        <time>2024-05-29T20:53:18.125Z</time>
      </trkpt>
      <trkpt lat="43.09236" lon="-0.70068">
        <ele>409.57</ele>
        <time>2024-05-29T20:53:20.106Z</time>
      </trkpt>
      <trkpt lat="43.09235" lon="-0.70061">
        <ele>408.83</ele>
        <time>2024-05-29T20:53:22.088Z</time>
      </trkpt>
      <trkpt lat="43.09235" lon="-0.70057">
        <ele>408.09</ele>
        <time>2024-05-29T20:53:24.071Z</time>
      </trkpt>
      <trkpt lat="43.09228" lon="-0.70044">
        <ele>407.42</ele>
        <time>2024-05-29T20:53:26.056Z</time>
      </trkpt>
      <trkpt lat="43.09219" lon="-0.7004">
        <ele>406.79</ele>
        <time>2024-05-29T20:53:28.043Z</time>
      </trkpt>
      <trkpt lat="43.09193" lon="-0.70041">
        <ele>406.28</ele>
        <time>2024-05-29T20:53:30.035Z</time>
      </trkpt>
      <trkpt lat="43.09173" lon="-0.70044">
        <ele>405.71</ele>
        <time>2024-05-29T20:53:32.031Z</time>
      </trkpt>
      <trkpt lat="43.09166" lon="-0.70042">
        <ele>405.03</ele>
        <time>2024-05-29T20:53:34.028Z</time>
      </trkpt>
      <trkpt lat="43.09162" lon="-0.70035">
        <ele>404.29</ele>
        <time>2024-05-29T20:53:36.026Z</time>
      </trkpt>
      <trkpt lat="43.09161" lon="-0.70028">
        <ele>403.53</ele>
        <time>2024-05-29T20:53:38.025Z</time>
      </trkpt>
      <trkpt lat="43.09162" lon="-0.70019">
        <ele>402.72</ele>
        <time>2024-05-29T20:53:40.025Z</time>
      </trkpt>
      <trkpt lat="43.09166" lon="-0.70008">
        <ele>401.87</ele>
        <time>2024-05-29T20:53:42.027Z</time>
      </trkpt>
      <trkpt lat="43.09199" lon="-0.69983">
        <ele>400.75</ele>
        <time>2024-05-29T20:53:44.036Z</time>
      </trkpt>
      <trkpt lat="43.09215" lon="-0.69966">
        <ele>399.74</ele>
        <time>2024-05-29T20:53:46.049Z</time>
      </trkpt>
      <trkpt lat="43.09223" lon="-0.6995">
        <ele>398.77</ele>
        <time>2024-05-29T20:53:48.064Z</time>
      </trkpt>
      <trkpt lat="43.0923" lon="-0.69926">
        <ele>397.8</ele>
        <time>2024-05-29T20:53:50.083Z</time>
      </trkpt>
      <trkpt lat="43.09233" lon="-0.69905">
        <ele>396.84</ele>
        <time>2024-05-29T20:53:52.105Z</time>
      </trkpt>
      <trkpt lat="43.09233" lon="-0.69882">
        <ele>395.88</ele>
        <time>2024-05-29T20:53:54.130Z</time>
      </trkpt>
      <trkpt lat="43.0923" lon="-0.69852">
        <ele>394.86</ele>
        <time>2024-05-29T20:53:56.159Z</time>
      </trkpt>
      <trkpt lat="43.09225" lon="-0.6984">
        <ele>393.88</ele>
        <time>2024-05-29T20:53:58.190Z</time>
      </trkpt>
      <trkpt lat="43.09219" lon="-0.69833">
        <ele>392.88</ele>
        <time>2024-05-29T20:54:00.222Z</time>
      </trkpt>
      <trkpt lat="43.09205" lon="-0.69825">
        <ele>391.92</ele>
        <time>2024-05-29T20:54:02.257Z</time>
      </trkpt>
      <trkpt lat="43.092" lon="-0.69819">
        <ele>390.82</ele>
        <time>2024-05-29T20:54:04.294Z</time>
      </trkpt>
      <trkpt lat="43.09198" lon="-0.69806">
        <ele>389.64</ele>
        <time>2024-05-29T20:54:06.332Z</time>
      </trkpt>
      <trkpt lat="43.09199" lon="-0.69798">
        <ele>388.4</ele>
        <time>2024-05-29T20:54:08.371Z</time>
      </trkpt>
      <trkpt lat="43.09204" lon="-0.69792">
        <ele>387.04</ele>
        <time>2024-05-29T20:54:10.412Z</time>
      </trkpt>
      <trkpt lat="43.09225" lon="-0.69774">
        <ele>385.37</ele>
        <time>2024-05-29T20:54:12.457Z</time>
      </trkpt>
      <trkpt lat="43.09231" lon="-0.69761">
        <ele>383.89</ele>
        <time>2024-05-29T20:54:14.504Z</time>
      </trkpt>
      <trkpt lat="43.09238" lon="-0.6974">
        <ele>382.4</ele>
        <time>2024-05-29T20:54:16.555Z</time>
      </trkpt>
      <trkpt lat="43.0926" lon="-0.69631">
        <ele>380.58</ele>
        <time>2024-05-29T20:54:18.621Z</time>
      </trkpt>
      <trkpt lat="43.09262" lon="-0.69607">
        <ele>378.99</ele>
        <time>2024-05-29T20:54:20.690Z</time>
      </trkpt>
      <trkpt lat="43.09259" lon="-0.69588">
        <ele>377.47</ele>
        <time>2024-05-29T20:54:22.762Z</time>
      </trkpt>
      <trkpt lat="43.09249" lon="-0.69557">
        <ele>376.06</ele>
        <time>2024-05-29T20:54:24.838Z</time>
      </trkpt>
      <trkpt lat="43.09247" lon="-0.69542">
        <ele>374.56</ele>
        <time>2024-05-29T20:54:26.917Z</time>
      </trkpt>
      <trkpt lat="43.09246" lon="-0.69478">
        <ele>372.71</ele>
        <time>2024-05-29T20:54:29.004Z</time>
      </trkpt>
      <trkpt lat="43.09243" lon="-0.69434">
        <ele>371.21</ele>
        <time>2024-05-29T20:54:31.097Z</time>
      </trkpt>
      <trkpt lat="43.09239" lon="-0.6941">
        <ele>369.8</ele>
        <time>2024-05-29T20:54:33.194Z</time>
      </trkpt>
      <trkpt lat="43.0921" lon="-0.69317">
        <ele>368.55</ele>
        <time>2024-05-29T20:54:35.304Z</time>
      </trkpt>
      <trkpt lat="43.09203" lon="-0.69271">
        <ele>367.19</ele>
        <time>2024-05-29T20:54:37.421Z</time>
      </trkpt>
      <trkpt lat="43.09199" lon="-0.69224">
        <ele>365.7</ele>
        <time>2024-05-29T20:54:39.544Z</time>
      </trkpt>
      <trkpt lat="43.09199" lon="-0.69196">
        <ele>364.35</ele>
        <time>2024-05-29T20:54:41.671Z</time>
      </trkpt>
      <trkpt lat="43.09203" lon="-0.69168">
        <ele>363.01</ele>
        <time>2024-05-29T20:54:43.802Z</time>
      </trkpt>
      <trkpt lat="43.0925" lon="-0.69">
        <ele>361.89</ele>
        <time>2024-05-29T20:54:45.958Z</time>
      </trkpt>
      <trkpt lat="43.0927" lon="-0.68965">
        <ele>360.81</ele>
        <time>2024-05-29T20:54:48.120Z</time>
      </trkpt>
      <trkpt lat="43.09279" lon="-0.68946">
        <ele>359.74</ele>
        <time>2024-05-29T20:54:50.285Z</time>
      </trkpt>
      <trkpt lat="43.09285" lon="-0.68927">
        <ele>358.63</ele>
        <time>2024-05-29T20:54:52.452Z</time>
      </trkpt>
      <trkpt lat="43.0929" lon="-0.68901">
        <ele>357.45</ele>
        <time>2024-05-29T20:54:54.623Z</time>
      </trkpt>
      <trkpt lat="43.09294" lon="-0.68859">
        <ele>356.11</ele>
        <time>2024-05-29T20:54:56.800Z</time>
      </trkpt>
      <trkpt lat="43.09294" lon="-0.68803">
        <ele>355.05</ele>
        <time>2024-05-29T20:54:58.985Z</time>
      </trkpt>
      <trkpt lat="43.09295" lon="-0.68776">
        <ele>354.2</ele>
        <time>2024-05-29T20:55:01.173Z</time>
      </trkpt>
      <trkpt lat="43.09299" lon="-0.68747">
        <ele>353.42</ele>
        <time>2024-05-29T20:55:03.365Z</time>
      </trkpt>
      <trkpt lat="43.09304" lon="-0.68727">
        <ele>352.68</ele>
        <time>2024-05-29T20:55:05.560Z</time>
      </trkpt>
      <trkpt lat="43.09316" lon="-0.68694">
        <ele>352.06</ele>
        <time>2024-05-29T20:55:07.760Z</time>
      </trkpt>
      <trkpt lat="43.09372" lon="-0.68595">
        <ele>351.48</ele>
        <time>2024-05-29T20:55:09.977Z</time>
      </trkpt>
      <trkpt lat="43.09378" lon="-0.68579">
        <ele>350.91</ele>
        <time>2024-05-29T20:55:12.197Z</time>
      </trkpt>
      <trkpt lat="43.0939" lon="-0.68489">
        <ele>350.3</ele>
        <time>2024-05-29T20:55:14.429Z</time>
      </trkpt>
      <trkpt lat="43.09393" lon="-0.68472">
        <ele>349.82</ele>
        <time>2024-05-29T20:55:16.664Z</time>
      </trkpt>
      <trkpt lat="43.09399" lon="-0.68461">
        <ele>349.4</ele>
        <time>2024-05-29T20:55:18.900Z</time>
      </trkpt>
      <trkpt lat="43.09407" lon="-0.68453">
        <ele>349.03</ele>
        <time>2024-05-29T20:55:21.138Z</time>
      </trkpt>
      <trkpt lat="43.09416" lon="-0.68447">
        <ele>348.71</ele>
        <time>2024-05-29T20:55:23.378Z</time>
      </trkpt>
      <trkpt lat="43.09453" lon="-0.68435">
        <ele>348.46</ele>
        <time>2024-05-29T20:55:25.625Z</time>
      </trkpt>
      <trkpt lat="43.09465" lon="-0.68429">
        <ele>348.19</ele>
        <time>2024-05-29T20:55:27.875Z</time>
      </trkpt>
      <trkpt lat="43.09475" lon="-0.6842">
        <ele>347.95</ele>
        <time>2024-05-29T20:55:30.127Z</time>
      </trkpt>
      <trkpt lat="43.09495" lon="-0.6839">
        <ele>347.73</ele>
        <time>2024-05-29T20:55:32.384Z</time>
      </trkpt>
      <trkpt lat="43.09509" lon="-0.68363">
        <ele>347.52</ele>
        <time>2024-05-29T20:55:34.646Z</time>
      </trkpt>
      <trkpt lat="43.09526" lon="-0.68319">
        <ele>347.46</ele>
        <time>2024-05-29T20:55:36.915Z</time>
      </trkpt>
      <trkpt lat="43.09535" lon="-0.68293">
        <ele>347.4</ele>
        <time>2024-05-29T20:55:39.188Z</time>
      </trkpt>
      <trkpt lat="43.09539" lon="-0.68276">
        <ele>347.22</ele>
        <time>2024-05-29T20:55:41.463Z</time>
      </trkpt>
      <trkpt lat="43.0955" lon="-0.68085">
        <ele>346.67</ele>
        <time>2024-05-29T20:55:43.764Z</time>
      </trkpt>
      <trkpt lat="43.09579" lon="-0.67304">
        <ele>345.8</ele>
        <time>2024-05-29T20:55:46.172Z</time>
      </trkpt>
      <trkpt lat="43.09584" lon="-0.67259">
        <ele>345.45</ele>
        <time>2024-05-29T20:55:48.586Z</time>
      </trkpt>
      <trkpt lat="43.09587" lon="-0.67253">
        <ele>345.09</ele>
        <time>2024-05-29T20:55:51.001Z</time>
      </trkpt>
      <trkpt lat="43.09594" lon="-0.67234">
        <ele>344.75</ele>
        <time>2024-05-29T20:55:53.419Z</time>
      </trkpt>
      <trkpt lat="43.09609" lon="-0.67212">
        <ele>344.37</ele>
        <time>2024-05-29T20:55:55.841Z</time>
      </trkpt>
      <trkpt lat="43.09652" lon="-0.67179">
        <ele>343.9</ele>
        <time>2024-05-29T20:55:58.272Z</time>
      </trkpt>
      <trkpt lat="43.09662" lon="-0.67166">
        <ele>343.54</ele>
        <time>2024-05-29T20:56:00.706Z</time>
      </trkpt>
      <trkpt lat="43.09672" lon="-0.67144">
        <ele>343.2</ele>
        <time>2024-05-29T20:56:03.143Z</time>
      </trkpt>
      <trkpt lat="43.09677" lon="-0.67115">
        <ele>342.87</ele>
        <time>2024-05-29T20:56:05.584Z</time>
      </trkpt>
      <trkpt lat="43.09677" lon="-0.67099">
        <ele>342.5</ele>
        <time>2024-05-29T20:56:08.027Z</time>
      </trkpt>
      <trkpt lat="43.0967" lon="-0.6705">
        <ele>342.26</ele>
        <time>2024-05-29T20:56:10.477Z</time>
      </trkpt>
      <trkpt lat="43.0967" lon="-0.67037">
        <ele>341.87</ele>
        <time>2024-05-29T20:56:12.929Z</time>
      </trkpt>
      <trkpt lat="43.09672" lon="-0.67024">
        <ele>341.42</ele>
        <time>2024-05-29T20:56:15.383Z</time>
      </trkpt>
      <trkpt lat="43.09676" lon="-0.67004">
        <ele>340.92</ele>
        <time>2024-05-29T20:56:17.840Z</time>
      </trkpt>
      <trkpt lat="43.09724" lon="-0.66876">
        <ele>340.09</ele>
        <time>2024-05-29T20:56:20.316Z</time>
      </trkpt>
      <trkpt lat="43.09745" lon="-0.66833">
        <ele>339.43</ele>
        <time>2024-05-29T20:56:22.799Z</time>
      </trkpt>
      <trkpt lat="43.09771" lon="-0.66787">
        <ele>338.66</ele>
        <time>2024-05-29T20:56:25.290Z</time>
      </trkpt>
      <trkpt lat="43.09819" lon="-0.6671">
        <ele>338.2</ele>
        <time>2024-05-29T20:56:27.795Z</time>
      </trkpt>
      <trkpt lat="43.09952" lon="-0.66515">
        <ele>337.54</ele>
        <time>2024-05-29T20:56:30.336Z</time>
      </trkpt>
      <trkpt lat="43.09966" lon="-0.66492">
        <ele>336.86</ele>
        <time>2024-05-29T20:56:32.881Z</time>
      </trkpt>
      <trkpt lat="43.10026" lon="-0.6637">
        <ele>336.03</ele>
        <time>2024-05-29T20:56:35.446Z</time>
      </trkpt>
      <trkpt lat="43.10062" lon="-0.66297">
        <ele>335.35</ele>
        <time>2024-05-29T20:56:38.023Z</time>
      </trkpt>
      <trkpt lat="43.10071" lon="-0.66275">
        <ele>334.57</ele>
        <time>2024-05-29T20:56:40.604Z</time>
      </trkpt>
      <trkpt lat="43.10086" lon="-0.66248">
        <ele>333.73</ele>
        <time>2024-05-29T20:56:43.189Z</time>
      </trkpt>
      <trkpt lat="43.10103" lon="-0.66229">
        <ele>332.89</ele>
        <time>2024-05-29T20:56:45.778Z</time>
      </trkpt>
      <trkpt lat="43.10106" lon="-0.66221">
        <ele>332.02</ele>
        <time>2024-05-29T20:56:48.369Z</time>
      </trkpt>
      <trkpt lat="43.1011" lon="-0.66206">
        <ele>331.12</ele>
        <time>2024-05-29T20:56:50.962Z</time>
      </trkpt>
      <trkpt lat="43.10113" lon="-0.66147">
        <ele>330.14</ele>
        <time>2024-05-29T20:56:53.563Z</time>
      </trkpt>
      <trkpt lat="43.10105" lon="-0.66112">
        <ele>329.08</ele>
        <time>2024-05-29T20:56:56.169Z</time>
      </trkpt>
      <trkpt lat="43.10101" lon="-0.66084">
        <ele>328</ele>
        <time>2024-05-29T20:56:58.779Z</time>
      </trkpt>
      <trkpt lat="43.10093" lon="-0.66059">
        <ele>326.96</ele>
        <time>2024-05-29T20:57:01.393Z</time>
      </trkpt>
      <trkpt lat="43.10089" lon="-0.66042">
        <ele>325.9</ele>
        <time>2024-05-29T20:57:04.009Z</time>
      </trkpt>
      <trkpt lat="43.10088" lon="-0.66029">
        <ele>324.83</ele>
        <time>2024-05-29T20:57:06.627Z</time>
      </trkpt>
      <trkpt lat="43.10093" lon="-0.66012">
        <ele>323.71</ele>
        <time>2024-05-29T20:57:09.247Z</time>
      </trkpt>
      <trkpt lat="43.10096" lon="-0.66006">
        <ele>322.64</ele>
        <time>2024-05-29T20:57:11.868Z</time>
      </trkpt>
      <trkpt lat="43.10105" lon="-0.65997">
        <ele>321.56</ele>
        <time>2024-05-29T20:57:14.491Z</time>
      </trkpt>
      <trkpt lat="43.10122" lon="-0.65986">
        <ele>320.47</ele>
        <time>2024-05-29T20:57:17.118Z</time>
      </trkpt>
      <trkpt lat="43.10148" lon="-0.65979">
        <ele>319.44</ele>
        <time>2024-05-29T20:57:19.750Z</time>
      </trkpt>
      <trkpt lat="43.10215" lon="-0.6597">
        <ele>318.37</ele>
        <time>2024-05-29T20:57:22.394Z</time>
      </trkpt>
      <trkpt lat="43.10231" lon="-0.6596">
        <ele>317.25</ele>
        <time>2024-05-29T20:57:25.042Z</time>
      </trkpt>
      <trkpt lat="43.10296" lon="-0.65895">
        <ele>316.01</ele>
        <time>2024-05-29T20:57:27.705Z</time>
      </trkpt>
      <trkpt lat="43.10303" lon="-0.6588">
        <ele>315.11</ele>
        <time>2024-05-29T20:57:30.370Z</time>
      </trkpt>
      <trkpt lat="43.10308" lon="-0.65862">
        <ele>314.25</ele>
        <time>2024-05-29T20:57:33.038Z</time>
      </trkpt>
      <trkpt lat="43.10334" lon="-0.65734">
        <ele>313.27</ele>
        <time>2024-05-29T20:57:35.724Z</time>
      </trkpt>
      <trkpt lat="43.10349" lon="-0.65668">
        <ele>312.34</ele>
        <time>2024-05-29T20:57:38.419Z</time>
      </trkpt>
      <trkpt lat="43.10359" lon="-0.65634">
        <ele>311.5</ele>
        <time>2024-05-29T20:57:41.119Z</time>
      </trkpt>
      <trkpt lat="43.10423" lon="-0.65467">
        <ele>310.78</ele>
        <time>2024-05-29T20:57:43.845Z</time>
      </trkpt>
      <trkpt lat="43.10442" lon="-0.65434">
        <ele>310.11</ele>
        <time>2024-05-29T20:57:46.577Z</time>
      </trkpt>
      <trkpt lat="43.10466" lon="-0.65403">
        <ele>309.52</ele>
        <time>2024-05-29T20:57:49.315Z</time>
      </trkpt>
      <trkpt lat="43.1055" lon="-0.6531">
        <ele>309.32</ele>
        <time>2024-05-29T20:57:52.073Z</time>
      </trkpt>
      <trkpt lat="43.1056" lon="-0.65295">
        <ele>309</ele>
        <time>2024-05-29T20:57:54.834Z</time>
      </trkpt>
      <trkpt lat="43.10567" lon="-0.65275">
        <ele>308.73</ele>
        <time>2024-05-29T20:57:57.598Z</time>
      </trkpt>
      <trkpt lat="43.10568" lon="-0.65262">
        <ele>308.44</ele>
        <time>2024-05-29T20:58:00.363Z</time>
      </trkpt>
      <trkpt lat="43.10562" lon="-0.65198">
        <ele>308.23</ele>
        <time>2024-05-29T20:58:03.137Z</time>
      </trkpt>
      <trkpt lat="43.10562" lon="-0.65176">
        <ele>307.97</ele>
        <time>2024-05-29T20:58:05.914Z</time>
      </trkpt>
      <trkpt lat="43.10571" lon="-0.65062">
        <ele>307.59</ele>
        <time>2024-05-29T20:58:08.707Z</time>
      </trkpt>
      <trkpt lat="43.10579" lon="-0.64997">
        <ele>307.08</ele>
        <time>2024-05-29T20:58:11.509Z</time>
      </trkpt>
      <trkpt lat="43.10581" lon="-0.64913">
        <ele>306.77</ele>
        <time>2024-05-29T20:58:14.322Z</time>
      </trkpt>
      <trkpt lat="43.10594" lon="-0.64823">
        <ele>306.71</ele>
        <time>2024-05-29T20:58:17.148Z</time>
      </trkpt>
      <trkpt lat="43.10596" lon="-0.64764">
        <ele>306.61</ele>
        <time>2024-05-29T20:58:19.982Z</time>
      </trkpt>
      <trkpt lat="43.10601" lon="-0.64736">
        <ele>306.46</ele>
        <time>2024-05-29T20:58:22.820Z</time>
      </trkpt>
      <trkpt lat="43.10626" lon="-0.6465">
        <ele>306.47</ele>
        <time>2024-05-29T20:58:25.670Z</time>
      </trkpt>
      <trkpt lat="43.10635" lon="-0.64609">
        <ele>306.46</ele>
        <time>2024-05-29T20:58:28.526Z</time>
      </trkpt>
      <trkpt lat="43.10637" lon="-0.64578">
        <ele>306.31</ele>
        <time>2024-05-29T20:58:31.386Z</time>
      </trkpt>
      <trkpt lat="43.10637" lon="-0.64534">
        <ele>305.86</ele>
        <time>2024-05-29T20:58:34.252Z</time>
      </trkpt>
      <trkpt lat="43.10628" lon="-0.64457">
        <ele>305.29</ele>
        <time>2024-05-29T20:58:37.129Z</time>
      </trkpt>
      <trkpt lat="43.10632" lon="-0.64428">
        <ele>305.14</ele>
        <time>2024-05-29T20:58:40.010Z</time>
      </trkpt>
      <trkpt lat="43.1067" lon="-0.64276">
        <ele>305.4</ele>
        <time>2024-05-29T20:58:42.913Z</time>
      </trkpt>
      <trkpt lat="43.10682" lon="-0.64241">
        <ele>305.17</ele>
        <time>2024-05-29T20:58:45.821Z</time>
      </trkpt>
      <trkpt lat="43.10717" lon="-0.6417">
        <ele>305.06</ele>
        <time>2024-05-29T20:58:48.741Z</time>
      </trkpt>
      <trkpt lat="43.10751" lon="-0.64051">
        <ele>304.62</ele>
        <time>2024-05-29T20:58:51.678Z</time>
      </trkpt>
      <trkpt lat="43.10758" lon="-0.63997">
        <ele>304.08</ele>
        <time>2024-05-29T20:58:54.623Z</time>
      </trkpt>
      <trkpt lat="43.10761" lon="-0.63962">
        <ele>303.57</ele>
        <time>2024-05-29T20:58:57.573Z</time>
      </trkpt>
      <trkpt lat="43.10766" lon="-0.63936">
        <ele>303.18</ele>
        <time>2024-05-29T20:59:00.526Z</time>
      </trkpt>
      <trkpt lat="43.10805" lon="-0.63817">
        <ele>303</ele>
        <time>2024-05-29T20:59:03.497Z</time>
      </trkpt>
      <trkpt lat="43.10822" lon="-0.63772">
        <ele>302.74</ele>
        <time>2024-05-29T20:59:06.475Z</time>
      </trkpt>
      <trkpt lat="43.10864" lon="-0.63695">
        <ele>302.56</ele>
        <time>2024-05-29T20:59:09.466Z</time>
      </trkpt>
      <trkpt lat="43.1093" lon="-0.63608">
        <ele>302.61</ele>
        <time>2024-05-29T20:59:12.474Z</time>
      </trkpt>
      <trkpt lat="43.1095" lon="-0.63564">
        <ele>302.31</ele>
        <time>2024-05-29T20:59:15.489Z</time>
      </trkpt>
      <trkpt lat="43.10963" lon="-0.6351">
        <ele>301.91</ele>
        <time>2024-05-29T20:59:18.512Z</time>
      </trkpt>
      <trkpt lat="43.10971" lon="-0.63429">
        <ele>301.41</ele>
        <time>2024-05-29T20:59:21.546Z</time>
      </trkpt>
      <trkpt lat="43.10975" lon="-0.63375">
        <ele>301.01</ele>
        <time>2024-05-29T20:59:24.587Z</time>
      </trkpt>
      <trkpt lat="43.10967" lon="-0.63307">
        <ele>300.39</ele>
        <time>2024-05-29T20:59:27.638Z</time>
      </trkpt>
      <trkpt lat="43.10969" lon="-0.63282">
        <ele>299.97</ele>
        <time>2024-05-29T20:59:30.692Z</time>
      </trkpt>
      <trkpt lat="43.10974" lon="-0.63262">
        <ele>299.61</ele>
        <time>2024-05-29T20:59:33.749Z</time>
      </trkpt>
      <trkpt lat="43.10983" lon="-0.63244">
        <ele>299.25</ele>
        <time>2024-05-29T20:59:36.809Z</time>
      </trkpt>
      <trkpt lat="43.11008" lon="-0.63218">
        <ele>298.88</ele>
        <time>2024-05-29T20:59:39.875Z</time>
      </trkpt>
      <trkpt lat="43.11093" lon="-0.63173">
        <ele>298.9</ele>
        <time>2024-05-29T20:59:42.958Z</time>
      </trkpt>
      <trkpt lat="43.11109" lon="-0.63161">
        <ele>298.54</ele>
        <time>2024-05-29T20:59:46.044Z</time>
      </trkpt>
      <trkpt lat="43.1112" lon="-0.63147">
        <ele>298.07</ele>
        <time>2024-05-29T20:59:49.133Z</time>
      </trkpt>
      <trkpt lat="43.11133" lon="-0.63117">
        <ele>297.77</ele>
        <time>2024-05-29T20:59:52.227Z</time>
      </trkpt>
      <trkpt lat="43.11137" lon="-0.63096">
        <ele>297.24</ele>
        <time>2024-05-29T20:59:55.324Z</time>
      </trkpt>
      <trkpt lat="43.11139" lon="-0.63077">
        <ele>296.55</ele>
        <time>2024-05-29T20:59:58.423Z</time>
      </trkpt>
      <trkpt lat="43.11138" lon="-0.63028">
        <ele>295.7</ele>
        <time>2024-05-29T21:00:01.529Z</time>
      </trkpt>
      <trkpt lat="43.11132" lon="-0.62988">
        <ele>294.9</ele>
        <time>2024-05-29T21:00:04.641Z</time>
      </trkpt>
      <trkpt lat="43.11119" lon="-0.62946">
        <ele>293.88</ele>
        <time>2024-05-29T21:00:07.759Z</time>
      </trkpt>
      <trkpt lat="43.11097" lon="-0.62892">
        <ele>292.81</ele>
        <time>2024-05-29T21:00:10.885Z</time>
      </trkpt>
      <trkpt lat="43.1103" lon="-0.62795">
        <ele>291.35</ele>
        <time>2024-05-29T21:00:14.029Z</time>
      </trkpt>
      <trkpt lat="43.10995" lon="-0.6275">
        <ele>290.4</ele>
        <time>2024-05-29T21:00:17.182Z</time>
      </trkpt>
      <trkpt lat="43.1099" lon="-0.62732">
        <ele>289.39</ele>
        <time>2024-05-29T21:00:20.338Z</time>
      </trkpt>
      <trkpt lat="43.10985" lon="-0.62712">
        <ele>288.4</ele>
        <time>2024-05-29T21:00:23.497Z</time>
      </trkpt>
      <trkpt lat="43.10983" lon="-0.62667">
        <ele>287.28</ele>
        <time>2024-05-29T21:00:26.662Z</time>
      </trkpt>
      <trkpt lat="43.10986" lon="-0.62571">
        <ele>286</ele>
        <time>2024-05-29T21:00:29.840Z</time>
      </trkpt>
      <trkpt lat="43.10989" lon="-0.62545">
        <ele>284.9</ele>
        <time>2024-05-29T21:00:33.022Z</time>
      </trkpt>
      <trkpt lat="43.10995" lon="-0.62528">
        <ele>283.85</ele>
        <time>2024-05-29T21:00:36.206Z</time>
      </trkpt>
      <trkpt lat="43.10994" lon="-0.62513">
        <ele>282.78</ele>
        <time>2024-05-29T21:00:39.392Z</time>
      </trkpt>
      <trkpt lat="43.10995" lon="-0.62491">
        <ele>281.74</ele>
        <time>2024-05-29T21:00:42.581Z</time>
      </trkpt>
      <trkpt lat="43.11001" lon="-0.62491">
        <ele>280.79</ele>
        <time>2024-05-29T21:00:45.771Z</time>
      </trkpt>
      <trkpt lat="43.11016" lon="-0.62485">
        <ele>279.87</ele>
        <time>2024-05-29T21:00:48.964Z</time>
      </trkpt>
      <trkpt lat="43.11067" lon="-0.62455">
        <ele>279.05</ele>
        <time>2024-05-29T21:00:52.168Z</time>
      </trkpt>
      <trkpt lat="43.1121" lon="-0.62359">
        <ele>278.14</ele>
        <time>2024-05-29T21:00:55.401Z</time>
      </trkpt>
      <trkpt lat="43.11226" lon="-0.62345">
        <ele>277.28</ele>
        <time>2024-05-29T21:00:58.638Z</time>
      </trkpt>
      <trkpt lat="43.11244" lon="-0.62316">
        <ele>276.45</ele>
        <time>2024-05-29T21:01:01.880Z</time>
      </trkpt>
      <trkpt lat="43.115" lon="-0.61712">
        <ele>275.56</ele>
        <time>2024-05-29T21:01:05.217Z</time>
      </trkpt>
      <trkpt lat="43.11517" lon="-0.61683">
        <ele>274.74</ele>
        <time>2024-05-29T21:01:08.559Z</time>
      </trkpt>
      <trkpt lat="43.11529" lon="-0.61669">
        <ele>273.95</ele>
        <time>2024-05-29T21:01:11.904Z</time>
      </trkpt>
      <trkpt lat="43.11547" lon="-0.61651">
        <ele>273.21</ele>
        <time>2024-05-29T21:01:15.253Z</time>
      </trkpt>
      <trkpt lat="43.11803" lon="-0.61406">
        <ele>272.62</ele>
        <time>2024-05-29T21:01:18.660Z</time>
      </trkpt>
      <trkpt lat="43.11818" lon="-0.61394">
        <ele>271.86</ele>
        <time>2024-05-29T21:01:22.071Z</time>
      </trkpt>
      <trkpt lat="43.11837" lon="-0.61388">
        <ele>271.24</ele>
        <time>2024-05-29T21:01:25.485Z</time>
      </trkpt>
      <trkpt lat="43.11865" lon="-0.61384">
        <ele>270.69</ele>
        <time>2024-05-29T21:01:28.905Z</time>
      </trkpt>
      <trkpt lat="43.11891" lon="-0.61383">
        <ele>270.21</ele>
        <time>2024-05-29T21:01:32.329Z</time>
      </trkpt>
      <trkpt lat="43.12084" lon="-0.6139">
        <ele>269.72</ele>
        <time>2024-05-29T21:01:35.789Z</time>
      </trkpt>
      <trkpt lat="43.12192" lon="-0.61362">
        <ele>269.49</ele>
        <time>2024-05-29T21:01:39.270Z</time>
      </trkpt>
      <trkpt lat="43.12191" lon="-0.61358">
        <ele>269.13</ele>
        <time>2024-05-29T21:01:42.751Z</time>
      </trkpt>
      <trkpt lat="43.12201" lon="-0.61356">
        <ele>268.86</ele>
        <time>2024-05-29T21:01:46.234Z</time>
      </trkpt>
      <trkpt lat="43.12205" lon="-0.61352">
        <ele>268.64</ele>
        <time>2024-05-29T21:01:49.718Z</time>
      </trkpt>
      <trkpt lat="43.12208" lon="-0.61342">
        <ele>268.48</ele>
        <time>2024-05-29T21:01:53.204Z</time>
      </trkpt>
      <trkpt lat="43.12208" lon="-0.61332">
        <ele>268.4</ele>
        <time>2024-05-29T21:01:56.691Z</time>
      </trkpt>
      <trkpt lat="43.12185" lon="-0.61294">
        <ele>268.34</ele>
        <time>2024-05-29T21:02:00.185Z</time>
      </trkpt>
      <trkpt lat="43.12188" lon="-0.61291">
        <ele>268.43</ele>
        <time>2024-05-29T21:02:03.679Z</time>
      </trkpt>
      <trkpt lat="43.12158" lon="-0.61244">
        <ele>268.55</ele>
        <time>2024-05-29T21:02:07.182Z</time>
      </trkpt>
      <trkpt lat="43.1212" lon="-0.612">
        <ele>268.77</ele>
        <time>2024-05-29T21:02:10.694Z</time>
      </trkpt>
      <trkpt lat="43.12024" lon="-0.6107">
        <ele>269.03</ele>
        <time>2024-05-29T21:02:14.231Z</time>
      </trkpt>
      <trkpt lat="43.11989" lon="-0.61024">
        <ele>269.53</ele>
        <time>2024-05-29T21:02:17.777Z</time>
      </trkpt>
      <trkpt lat="43.11942" lon="-0.61001">
        <ele>270.07</ele>
        <time>2024-05-29T21:02:21.333Z</time>
      </trkpt>
      <trkpt lat="43.11926" lon="-0.6099">
        <ele>270.86</ele>
        <time>2024-05-29T21:02:24.892Z</time>
      </trkpt>
      <trkpt lat="43.11915" lon="-0.60978">
        <ele>271.81</ele>
        <time>2024-05-29T21:02:28.454Z</time>
      </trkpt>
      <trkpt lat="43.11837" lon="-0.60826">
        <ele>273.05</ele>
        <time>2024-05-29T21:02:32.041Z</time>
      </trkpt>
      <trkpt lat="43.11829" lon="-0.60814">
        <ele>274.3</ele>
        <time>2024-05-29T21:02:35.630Z</time>
      </trkpt>
      <trkpt lat="43.1182" lon="-0.60806">
        <ele>275.68</ele>
        <time>2024-05-29T21:02:39.221Z</time>
      </trkpt>
      <trkpt lat="43.11807" lon="-0.60802">
        <ele>277.23</ele>
        <time>2024-05-29T21:02:42.814Z</time>
      </trkpt>
      <trkpt lat="43.11794" lon="-0.60804">
        <ele>278.88</ele>
        <time>2024-05-29T21:02:46.410Z</time>
      </trkpt>
      <trkpt lat="43.11685" lon="-0.60841">
        <ele>280.75</ele>
        <time>2024-05-29T21:02:50.027Z</time>
      </trkpt>
      <trkpt lat="43.11621" lon="-0.60839">
        <ele>282.93</ele>
        <time>2024-05-29T21:02:53.656Z</time>
      </trkpt>
      <trkpt lat="43.11611" lon="-0.60838">
        <ele>284.95</ele>
        <time>2024-05-29T21:02:57.287Z</time>
      </trkpt>
      <trkpt lat="43.11597" lon="-0.60832">
        <ele>287.07</ele>
        <time>2024-05-29T21:03:00.920Z</time>
      </trkpt>
      <trkpt lat="43.11589" lon="-0.60823">
        <ele>289.2</ele>
        <time>2024-05-29T21:03:04.555Z</time>
      </trkpt>
      <trkpt lat="43.11558" lon="-0.60771">
        <ele>291.68</ele>
        <time>2024-05-29T21:03:08.199Z</time>
      </trkpt>
      <trkpt lat="43.11552" lon="-0.60748">
        <ele>293.95</ele>
        <time>2024-05-29T21:03:11.847Z</time>
      </trkpt>
      <trkpt lat="43.11549" lon="-0.60707">
        <ele>296.2</ele>
        <time>2024-05-29T21:03:15.500Z</time>
      </trkpt>
      <trkpt lat="43.11547" lon="-0.60696">
        <ele>298.42</ele>
        <time>2024-05-29T21:03:19.155Z</time>
      </trkpt>
      <trkpt lat="43.11542" lon="-0.60686">
        <ele>300.64</ele>
        <time>2024-05-29T21:03:22.812Z</time>
      </trkpt>
      <trkpt lat="43.11494" lon="-0.60646">
        <ele>302.84</ele>
        <time>2024-05-29T21:03:26.479Z</time>
      </trkpt>
      <trkpt lat="43.11484" lon="-0.60613">
        <ele>305.02</ele>
        <time>2024-05-29T21:03:30.151Z</time>
      </trkpt>
      <trkpt lat="43.11469" lon="-0.60549">
        <ele>307.32</ele>
        <time>2024-05-29T21:03:33.832Z</time>
      </trkpt>
      <trkpt lat="43.1146" lon="-0.60508">
        <ele>309.58</ele>
        <time>2024-05-29T21:03:37.519Z</time>
      </trkpt>
      <trkpt lat="43.11459" lon="-0.60485">
        <ele>311.74</ele>
        <time>2024-05-29T21:03:41.209Z</time>
      </trkpt>
      <trkpt lat="43.11459" lon="-0.60475">
        <ele>313.71</ele>
        <time>2024-05-29T21:03:44.900Z</time>
      </trkpt>
      <trkpt lat="43.11466" lon="-0.60452">
        <ele>315.65</ele>
        <time>2024-05-29T21:03:48.595Z</time>
      </trkpt>
      <trkpt lat="43.11607" lon="-0.60234">
        <ele>317.82</ele>
        <time>2024-05-29T21:03:52.329Z</time>
      </trkpt>
      <trkpt lat="43.11629" lon="-0.60177">
        <ele>319.2</ele>
        <time>2024-05-29T21:03:56.072Z</time>
      </trkpt>
      <trkpt lat="43.11636" lon="-0.60145">
        <ele>320.75</ele>
        <time>2024-05-29T21:03:59.820Z</time>
      </trkpt>
      <trkpt lat="43.11637" lon="-0.60114">
        <ele>322.12</ele>
        <time>2024-05-29T21:04:03.572Z</time>
      </trkpt>
      <trkpt lat="43.11634" lon="-0.60041">
        <ele>323.23</ele>
        <time>2024-05-29T21:04:07.334Z</time>
      </trkpt>
      <trkpt lat="43.11635" lon="-0.60025">
        <ele>324.04</ele>
        <time>2024-05-29T21:04:11.098Z</time>
      </trkpt>
      <trkpt lat="43.11638" lon="-0.60008">
        <ele>324.69</ele>
        <time>2024-05-29T21:04:14.864Z</time>
      </trkpt>
      <trkpt lat="43.11649" lon="-0.59968">
        <ele>325.14</ele>
        <time>2024-05-29T21:04:18.636Z</time>
      </trkpt>
      <trkpt lat="43.11677" lon="-0.59882">
        <ele>325.26</ele>
        <time>2024-05-29T21:04:22.421Z</time>
      </trkpt>
      <trkpt lat="43.11681" lon="-0.59862">
        <ele>325.33</ele>
        <time>2024-05-29T21:04:26.209Z</time>
      </trkpt>
      <trkpt lat="43.11695" lon="-0.59751">
        <ele>325.17</ele>
        <time>2024-05-29T21:04:30.012Z</time>
      </trkpt>
      <trkpt lat="43.11731" lon="-0.59625">
        <ele>324.78</ele>
        <time>2024-05-29T21:04:33.834Z</time>
      </trkpt>
      <trkpt lat="43.11745" lon="-0.59545">
        <ele>324.67</ele>
        <time>2024-05-29T21:04:37.667Z</time>
      </trkpt>
      <trkpt lat="43.11781" lon="-0.59302">
        <ele>324.04</ele>
        <time>2024-05-29T21:04:41.534Z</time>
      </trkpt>
      <trkpt lat="43.11782" lon="-0.59243">
        <ele>323.34</ele>
        <time>2024-05-29T21:04:45.409Z</time>
      </trkpt>
      <trkpt lat="43.11763" lon="-0.59141">
        <ele>322.84</ele>
        <time>2024-05-29T21:04:49.298Z</time>
      </trkpt>
      <trkpt lat="43.11688" lon="-0.58832">
        <ele>322.46</ele>
        <time>2024-05-29T21:04:53.231Z</time>
      </trkpt>
      <trkpt lat="43.1168" lon="-0.58784">
        <ele>321.93</ele>
        <time>2024-05-29T21:04:57.171Z</time>
      </trkpt>
      <trkpt lat="43.1168" lon="-0.58732">
        <ele>321.04</ele>
        <time>2024-05-29T21:05:01.118Z</time>
      </trkpt>
      <trkpt lat="43.11682" lon="-0.58726">
        <ele>320.45</ele>
        <time>2024-05-29T21:05:05.066Z</time>
      </trkpt>
      <trkpt lat="43.11692" lon="-0.58695">
        <ele>319.96</ele>
        <time>2024-05-29T21:05:09.019Z</time>
      </trkpt>
      <trkpt lat="43.11718" lon="-0.58653">
        <ele>319.48</ele>
        <time>2024-05-29T21:05:12.979Z</time>
      </trkpt>
      <trkpt lat="43.11855" lon="-0.58455">
        <ele>319.3</ele>
        <time>2024-05-29T21:05:16.976Z</time>
      </trkpt>
      <trkpt lat="43.11881" lon="-0.58405">
        <ele>319.2</ele>
        <time>2024-05-29T21:05:20.982Z</time>
      </trkpt>
      <trkpt lat="43.11886" lon="-0.58392">
        <ele>318.97</ele>
        <time>2024-05-29T21:05:24.990Z</time>
      </trkpt>
      <trkpt lat="43.11887" lon="-0.58384">
        <ele>318.77</ele>
        <time>2024-05-29T21:05:28.999Z</time>
      </trkpt>
      <trkpt lat="43.11893" lon="-0.58348">
        <ele>318.77</ele>
        <time>2024-05-29T21:05:33.013Z</time>
      </trkpt>
      <trkpt lat="43.11897" lon="-0.58257">
        <ele>318.63</ele>
        <time>2024-05-29T21:05:37.039Z</time>
      </trkpt>
      <trkpt lat="43.11896" lon="-0.58145">
        <ele>318.29</ele>
        <time>2024-05-29T21:05:41.081Z</time>
      </trkpt>
      <trkpt lat="43.11884" lon="-0.58041">
        <ele>318.24</ele>
        <time>2024-05-29T21:05:45.137Z</time>
      </trkpt>
      <trkpt lat="43.11887" lon="-0.58">
        <ele>318.34</ele>
        <time>2024-05-29T21:05:49.199Z</time>
      </trkpt>
      <trkpt lat="43.11898" lon="-0.57967">
        <ele>318.53</ele>
        <time>2024-05-29T21:05:53.265Z</time>
      </trkpt>
      <trkpt lat="43.11919" lon="-0.57923">
        <ele>318.91</ele>
        <time>2024-05-29T21:05:57.339Z</time>
      </trkpt>
      <trkpt lat="43.11926" lon="-0.57883">
        <ele>319.34</ele>
        <time>2024-05-29T21:06:01.418Z</time>
      </trkpt>
      <trkpt lat="43.11927" lon="-0.57552">
        <ele>319.92</ele>
        <time>2024-05-29T21:06:05.542Z</time>
      </trkpt>
      <trkpt lat="43.1193" lon="-0.5751">
        <ele>320.2</ele>
        <time>2024-05-29T21:06:09.672Z</time>
      </trkpt>
      <trkpt lat="43.11958" lon="-0.57401">
        <ele>320.71</ele>
        <time>2024-05-29T21:06:13.818Z</time>
      </trkpt>
      <trkpt lat="43.11963" lon="-0.57356">
        <ele>321.01</ele>
        <time>2024-05-29T21:06:17.970Z</time>
      </trkpt>
      <trkpt lat="43.1196" lon="-0.5731">
        <ele>321.6</ele>
        <time>2024-05-29T21:06:22.128Z</time>
      </trkpt>
      <trkpt lat="43.11914" lon="-0.57151">
        <ele>322.22</ele>
        <time>2024-05-29T21:06:26.310Z</time>
      </trkpt>
      <trkpt lat="43.11861" lon="-0.57065">
        <ele>322.61</ele>
        <time>2024-05-29T21:06:30.507Z</time>
      </trkpt>
      <trkpt lat="43.11846" lon="-0.57034">
        <ele>323.19</ele>
        <time>2024-05-29T21:06:34.709Z</time>
      </trkpt>
      <trkpt lat="43.11826" lon="-0.56966">
        <ele>323.78</ele>
        <time>2024-05-29T21:06:38.921Z</time>
      </trkpt>
      <trkpt lat="43.11758" lon="-0.56791">
        <ele>324.55</ele>
        <time>2024-05-29T21:06:43.160Z</time>
      </trkpt>
      <trkpt lat="43.11747" lon="-0.56748">
        <ele>325.32</ele>
        <time>2024-05-29T21:06:47.405Z</time>
      </trkpt>
      <trkpt lat="43.11728" lon="-0.56639">
        <ele>325.87</ele>
        <time>2024-05-29T21:06:51.665Z</time>
      </trkpt>
      <trkpt lat="43.11719" lon="-0.56579">
        <ele>326.7</ele>
        <time>2024-05-29T21:06:55.934Z</time>
      </trkpt>
      <trkpt lat="43.11715" lon="-0.56531">
        <ele>327.47</ele>
        <time>2024-05-29T21:07:00.209Z</time>
      </trkpt>
      <trkpt lat="43.11719" lon="-0.5643">
        <ele>328.29</ele>
        <time>2024-05-29T21:07:04.498Z</time>
      </trkpt>
      <trkpt lat="43.11711" lon="-0.56313">
        <ele>329.12</ele>
        <time>2024-05-29T21:07:08.803Z</time>
      </trkpt>
      <trkpt lat="43.11707" lon="-0.56275">
        <ele>329.98</ele>
        <time>2024-05-29T21:07:13.113Z</time>
      </trkpt>
      <trkpt lat="43.11697" lon="-0.56241">
        <ele>330.9</ele>
        <time>2024-05-29T21:07:17.428Z</time>
      </trkpt>
      <trkpt lat="43.11685" lon="-0.56213">
        <ele>331.92</ele>
        <time>2024-05-29T21:07:21.748Z</time>
      </trkpt>
      <trkpt lat="43.11662" lon="-0.5617">
        <ele>332.9</ele>
        <time>2024-05-29T21:07:26.075Z</time>
      </trkpt>
      <trkpt lat="43.11649" lon="-0.56136">
        <ele>333.96</ele>
        <time>2024-05-29T21:07:30.407Z</time>
      </trkpt>
      <trkpt lat="43.11563" lon="-0.55857">
        <ele>335.34</ele>
        <time>2024-05-29T21:07:34.781Z</time>
      </trkpt>
      <trkpt lat="43.11555" lon="-0.55823">
        <ele>336.44</ele>
        <time>2024-05-29T21:07:39.159Z</time>
      </trkpt>
      <trkpt lat="43.1155" lon="-0.55771">
        <ele>337.65</ele>
        <time>2024-05-29T21:07:43.545Z</time>
      </trkpt>
      <trkpt lat="43.1155" lon="-0.55712">
        <ele>338.97</ele>
        <time>2024-05-29T21:07:47.939Z</time>
      </trkpt>
      <trkpt lat="43.11555" lon="-0.55658">
        <ele>340.24</ele>
        <time>2024-05-29T21:07:52.340Z</time>
      </trkpt>
      <trkpt lat="43.11563" lon="-0.55613">
        <ele>341.55</ele>
        <time>2024-05-29T21:07:56.747Z</time>
      </trkpt>
      <trkpt lat="43.11582" lon="-0.55545">
        <ele>342.98</ele>
        <time>2024-05-29T21:08:01.164Z</time>
      </trkpt>
      <trkpt lat="43.11582" lon="-0.55537">
        <ele>344.41</ele>
        <time>2024-05-29T21:08:05.582Z</time>
      </trkpt>
      <trkpt lat="43.11581" lon="-0.55509">
        <ele>345.91</ele>
        <time>2024-05-29T21:08:10.004Z</time>
      </trkpt>
      <trkpt lat="43.11563" lon="-0.5543">
        <ele>347.46</ele>
        <time>2024-05-29T21:08:14.437Z</time>
      </trkpt>
      <trkpt lat="43.11559" lon="-0.55404">
        <ele>349.07</ele>
        <time>2024-05-29T21:08:18.874Z</time>
      </trkpt>
      <trkpt lat="43.11561" lon="-0.55376">
        <ele>350.69</ele>
        <time>2024-05-29T21:08:23.315Z</time>
      </trkpt>
      <trkpt lat="43.11569" lon="-0.55353">
        <ele>352.41</ele>
        <time>2024-05-29T21:08:27.759Z</time>
      </trkpt>
      <trkpt lat="43.11601" lon="-0.55297">
        <ele>354.4</ele>
        <time>2024-05-29T21:08:32.213Z</time>
      </trkpt>
      <trkpt lat="43.11619" lon="-0.55222">
        <ele>356.65</ele>
        <time>2024-05-29T21:08:36.678Z</time>
      </trkpt>
      <trkpt lat="43.11632" lon="-0.55063">
        <ele>358.83</ele>
        <time>2024-05-29T21:08:41.165Z</time>
      </trkpt>
      <trkpt lat="43.11638" lon="-0.55026">
        <ele>360.87</ele>
        <time>2024-05-29T21:08:45.657Z</time>
      </trkpt>
      <trkpt lat="43.11661" lon="-0.54948">
        <ele>362.86</ele>
        <time>2024-05-29T21:08:50.160Z</time>
      </trkpt>
      <trkpt lat="43.11663" lon="-0.54931">
        <ele>364.8</ele>
        <time>2024-05-29T21:08:54.666Z</time>
      </trkpt>
      <trkpt lat="43.11663" lon="-0.54922">
        <ele>366.75</ele>
        <time>2024-05-29T21:08:59.173Z</time>
      </trkpt>
      <trkpt lat="43.11676" lon="-0.54883">
        <ele>368.81</ele>
        <time>2024-05-29T21:09:03.686Z</time>
      </trkpt>
      <trkpt lat="43.11697" lon="-0.54863">
        <ele>370.96</ele>
        <time>2024-05-29T21:09:08.203Z</time>
      </trkpt>
      <trkpt lat="43.11719" lon="-0.54858">
        <ele>373.14</ele>
        <time>2024-05-29T21:09:12.725Z</time>
      </trkpt>
      <trkpt lat="43.11755" lon="-0.54869">
        <ele>375.37</ele>
        <time>2024-05-29T21:09:17.253Z</time>
      </trkpt>
      <trkpt lat="43.11777" lon="-0.54867">
        <ele>377.48</ele>
        <time>2024-05-29T21:09:21.785Z</time>
      </trkpt>
      <trkpt lat="43.11796" lon="-0.54859">
        <ele>379.5</ele>
        <time>2024-05-29T21:09:26.321Z</time>
      </trkpt>
      <trkpt lat="43.11799" lon="-0.54856">
        <ele>381.45</ele>
        <time>2024-05-29T21:09:30.858Z</time>
      </trkpt>
      <trkpt lat="43.11843" lon="-0.54813">
        <ele>383.21</ele>
        <time>2024-05-29T21:09:35.405Z</time>
      </trkpt>
      <trkpt lat="43.11889" lon="-0.54777">
        <ele>385.01</ele>
        <time>2024-05-29T21:09:39.962Z</time>
      </trkpt>
      <trkpt lat="43.11903" lon="-0.54758">
        <ele>386.96</ele>
        <time>2024-05-29T21:09:44.522Z</time>
      </trkpt>
      <trkpt lat="43.11929" lon="-0.5468">
        <ele>389.33</ele>
        <time>2024-05-29T21:09:49.094Z</time>
      </trkpt>
      <trkpt lat="43.11954" lon="-0.54633">
        <ele>391.27</ele>
        <time>2024-05-29T21:09:53.674Z</time>
      </trkpt>
      <trkpt lat="43.1197" lon="-0.54578">
        <ele>392.93</ele>
        <time>2024-05-29T21:09:58.262Z</time>
      </trkpt>
      <trkpt lat="43.11994" lon="-0.54526">
        <ele>394.75</ele>
        <time>2024-05-29T21:10:02.859Z</time>
      </trkpt>
      <trkpt lat="43.12007" lon="-0.54515">
        <ele>396.6</ele>
        <time>2024-05-29T21:10:07.458Z</time>
      </trkpt>
      <trkpt lat="43.12079" lon="-0.54505">
        <ele>399.08</ele>
        <time>2024-05-29T21:10:12.071Z</time>
      </trkpt>
      <trkpt lat="43.1212" lon="-0.54494">
        <ele>400.78</ele>
        <time>2024-05-29T21:10:16.692Z</time>
      </trkpt>
      <trkpt lat="43.12139" lon="-0.54481">
        <ele>402.31</ele>
        <time>2024-05-29T21:10:21.317Z</time>
      </trkpt>
      <trkpt lat="43.12158" lon="-0.54462">
        <ele>403.8</ele>
        <time>2024-05-29T21:10:25.946Z</time>
      </trkpt>
      <trkpt lat="43.12176" lon="-0.54441">
        <ele>405.34</ele>
        <time>2024-05-29T21:10:30.579Z</time>
      </trkpt>
      <trkpt lat="43.12201" lon="-0.54434">
        <ele>406.9</ele>
        <time>2024-05-29T21:10:35.217Z</time>
      </trkpt>
      <trkpt lat="43.12233" lon="-0.54448">
        <ele>408.55</ele>
        <time>2024-05-29T21:10:39.861Z</time>
      </trkpt>
      <trkpt lat="43.1225" lon="-0.54448">
        <ele>410.04</ele>
        <time>2024-05-29T21:10:44.508Z</time>
      </trkpt>
      <trkpt lat="43.12264" lon="-0.5444">
        <ele>411.44</ele>
        <time>2024-05-29T21:10:49.158Z</time>
      </trkpt>
      <trkpt lat="43.12269" lon="-0.54423">
        <ele>412.69</ele>
        <time>2024-05-29T21:10:53.811Z</time>
      </trkpt>
      <trkpt lat="43.12268" lon="-0.544">
        <ele>413.91</ele>
        <time>2024-05-29T21:10:58.467Z</time>
      </trkpt>
      <trkpt lat="43.12241" lon="-0.54354">
        <ele>415.01</ele>
        <time>2024-05-29T21:11:03.131Z</time>
      </trkpt>
      <trkpt lat="43.12235" lon="-0.54333">
        <ele>416.25</ele>
        <time>2024-05-29T21:11:07.798Z</time>
      </trkpt>
      <trkpt lat="43.12234" lon="-0.54311">
        <ele>417.4</ele>
        <time>2024-05-29T21:11:12.468Z</time>
      </trkpt>
      <trkpt lat="43.1224" lon="-0.54293">
        <ele>418.55</ele>
        <time>2024-05-29T21:11:17.141Z</time>
      </trkpt>
      <trkpt lat="43.12255" lon="-0.54276">
        <ele>419.72</ele>
        <time>2024-05-29T21:11:21.817Z</time>
      </trkpt>
      <trkpt lat="43.12273" lon="-0.54245">
        <ele>420.95</ele>
        <time>2024-05-29T21:11:26.499Z</time>
      </trkpt>
      <trkpt lat="43.12292" lon="-0.5419">
        <ele>422.19</ele>
        <time>2024-05-29T21:11:31.189Z</time>
      </trkpt>
      <trkpt lat="43.12326" lon="-0.54145">
        <ele>423.3</ele>
        <time>2024-05-29T21:11:35.888Z</time>
      </trkpt>
      <trkpt lat="43.12345" lon="-0.54093">
        <ele>424.12</ele>
        <time>2024-05-29T21:11:40.595Z</time>
      </trkpt>
      <trkpt lat="43.12356" lon="-0.5405">
        <ele>425.06</ele>
        <time>2024-05-29T21:11:45.308Z</time>
      </trkpt>
      <trkpt lat="43.12358" lon="-0.54014">
        <ele>426.03</ele>
        <time>2024-05-29T21:11:50.026Z</time>
      </trkpt>
      <trkpt lat="43.12353" lon="-0.53984">
        <ele>426.88</ele>
        <time>2024-05-29T21:11:54.748Z</time>
      </trkpt>
      <trkpt lat="43.12343" lon="-0.5396">
        <ele>427.68</ele>
        <time>2024-05-29T21:11:59.474Z</time>
      </trkpt>
      <trkpt lat="43.12332" lon="-0.53941">
        <ele>428.42</ele>
        <time>2024-05-29T21:12:04.203Z</time>
      </trkpt>
      <trkpt lat="43.12198" lon="-0.53846">
        <ele>429.3</ele>
        <time>2024-05-29T21:12:08.960Z</time>
      </trkpt>
      <trkpt lat="43.12177" lon="-0.53835">
        <ele>429.88</ele>
        <time>2024-05-29T21:12:13.721Z</time>
      </trkpt>
      <trkpt lat="43.12153" lon="-0.53807">
        <ele>430.27</ele>
        <time>2024-05-29T21:12:18.488Z</time>
      </trkpt>
      <trkpt lat="43.12134" lon="-0.53799">
        <ele>430.8</ele>
        <time>2024-05-29T21:12:23.259Z</time>
      </trkpt>
      <trkpt lat="43.12109" lon="-0.538">
        <ele>431.35</ele>
        <time>2024-05-29T21:12:28.035Z</time>
      </trkpt>
      <trkpt lat="43.121" lon="-0.53798">
        <ele>431.79</ele>
        <time>2024-05-29T21:12:32.812Z</time>
      </trkpt>
      <trkpt lat="43.12093" lon="-0.53794">
        <ele>432.21</ele>
        <time>2024-05-29T21:12:37.591Z</time>
      </trkpt>
      <trkpt lat="43.12089" lon="-0.5379">
        <ele>432.56</ele>
        <time>2024-05-29T21:12:42.371Z</time>
      </trkpt>
      <trkpt lat="43.12084" lon="-0.53785">
        <ele>432.85</ele>
        <time>2024-05-29T21:12:47.152Z</time>
      </trkpt>
      <trkpt lat="43.12052" lon="-0.53726">
        <ele>433.14</ele>
        <time>2024-05-29T21:12:51.943Z</time>
      </trkpt>
      <trkpt lat="43.12014" lon="-0.53663">
        <ele>433.3</ele>
        <time>2024-05-29T21:12:56.745Z</time>
      </trkpt>
      <trkpt lat="43.1201" lon="-0.53648">
        <ele>433.41</ele>
        <time>2024-05-29T21:13:01.549Z</time>
      </trkpt>
      <trkpt lat="43.12009" lon="-0.53633">
        <ele>433.49</ele>
        <time>2024-05-29T21:13:06.355Z</time>
      </trkpt>
      <trkpt lat="43.12017" lon="-0.53592">
        <ele>433.41</ele>
        <time>2024-05-29T21:13:11.167Z</time>
      </trkpt>
      <trkpt lat="43.12013" lon="-0.5357">
        <ele>433.5</ele>
        <time>2024-05-29T21:13:15.982Z</time>
      </trkpt>
      <trkpt lat="43.11999" lon="-0.53554">
        <ele>433.69</ele>
        <time>2024-05-29T21:13:20.800Z</time>
      </trkpt>
      <trkpt lat="43.11976" lon="-0.53537">
        <ele>433.94</ele>
        <time>2024-05-29T21:13:25.623Z</time>
      </trkpt>
      <trkpt lat="43.11969" lon="-0.5352">
        <ele>434</ele>
        <time>2024-05-29T21:13:30.449Z</time>
      </trkpt>
      <trkpt lat="43.1197" lon="-0.535">
        <ele>433.95</ele>
        <time>2024-05-29T21:13:35.278Z</time>
      </trkpt>
      <trkpt lat="43.11977" lon="-0.53463">
        <ele>433.7</ele>
        <time>2024-05-29T21:13:40.112Z</time>
      </trkpt>
      <trkpt lat="43.11974" lon="-0.53431">
        <ele>433.66</ele>
        <time>2024-05-29T21:13:44.950Z</time>
      </trkpt>
      <trkpt lat="43.11963" lon="-0.53404">
        <ele>433.84</ele>
        <time>2024-05-29T21:13:49.793Z</time>
      </trkpt>
      <trkpt lat="43.11963" lon="-0.53378">
        <ele>433.88</ele>
        <time>2024-05-29T21:13:54.639Z</time>
      </trkpt>
      <trkpt lat="43.11979" lon="-0.53321">
        <ele>433.73</ele>
        <time>2024-05-29T21:13:59.493Z</time>
      </trkpt>
      <trkpt lat="43.12003" lon="-0.53243">
        <ele>433.53</ele>
        <time>2024-05-29T21:14:04.359Z</time>
      </trkpt>
      <trkpt lat="43.12009" lon="-0.53212">
        <ele>433.29</ele>
        <time>2024-05-29T21:14:09.229Z</time>
      </trkpt>
      <trkpt lat="43.12002" lon="-0.53188">
        <ele>433.07</ele>
        <time>2024-05-29T21:14:14.103Z</time>
      </trkpt>
      <trkpt lat="43.11992" lon="-0.53174">
        <ele>432.89</ele>
        <time>2024-05-29T21:14:18.979Z</time>
      </trkpt>
      <trkpt lat="43.11974" lon="-0.53171">
        <ele>432.8</ele>
        <time>2024-05-29T21:14:23.859Z</time>
      </trkpt>
      <trkpt lat="43.11956" lon="-0.53152">
        <ele>432.63</ele>
        <time>2024-05-29T21:14:28.743Z</time>
      </trkpt>
      <trkpt lat="43.1195" lon="-0.53139">
        <ele>432.4</ele>
        <time>2024-05-29T21:14:33.629Z</time>
      </trkpt>
      <trkpt lat="43.11952" lon="-0.5312">
        <ele>432.05</ele>
        <time>2024-05-29T21:14:38.518Z</time>
      </trkpt>
      <trkpt lat="43.11997" lon="-0.52997">
        <ele>431.79</ele>
        <time>2024-05-29T21:14:43.426Z</time>
      </trkpt>
      <trkpt lat="43.12018" lon="-0.52947">
        <ele>431.34</ele>
        <time>2024-05-29T21:14:48.341Z</time>
      </trkpt>
      <trkpt lat="43.12083" lon="-0.52868">
        <ele>430.67</ele>
        <time>2024-05-29T21:14:53.273Z</time>
      </trkpt>
      <trkpt lat="43.1209" lon="-0.52849">
        <ele>430.19</ele>
        <time>2024-05-29T21:14:58.207Z</time>
      </trkpt>
      <trkpt lat="43.12093" lon="-0.52828">
        <ele>429.66</ele>
        <time>2024-05-29T21:15:03.144Z</time>
      </trkpt>
      <trkpt lat="43.12087" lon="-0.52813">
        <ele>429.07</ele>
        <time>2024-05-29T21:15:08.084Z</time>
      </trkpt>
      <trkpt lat="43.12076" lon="-0.52804">
        <ele>428.5</ele>
        <time>2024-05-29T21:15:13.026Z</time>
      </trkpt>
      <trkpt lat="43.12004" lon="-0.52792">
        <ele>427.97</ele>
        <time>2024-05-29T21:15:17.982Z</time>
      </trkpt>
      <trkpt lat="43.11987" lon="-0.52798">
        <ele>427.41</ele>
        <time>2024-05-29T21:15:22.941Z</time>
      </trkpt>
      <trkpt lat="43.11971" lon="-0.52791">
        <ele>426.68</ele>
        <time>2024-05-29T21:15:27.903Z</time>
      </trkpt>
      <trkpt lat="43.11949" lon="-0.52735">
        <ele>425.75</ele>
        <time>2024-05-29T21:15:32.874Z</time>
      </trkpt>
      <trkpt lat="43.1194" lon="-0.52723">
        <ele>424.93</ele>
        <time>2024-05-29T21:15:37.847Z</time>
      </trkpt>
      <trkpt lat="43.11928" lon="-0.52715">
        <ele>424.15</ele>
        <time>2024-05-29T21:15:42.822Z</time>
      </trkpt>
      <trkpt lat="43.11921" lon="-0.52699">
        <ele>423.29</ele>
        <time>2024-05-29T21:15:47.800Z</time>
      </trkpt>
      <trkpt lat="43.11924" lon="-0.52684">
        <ele>422.35</ele>
        <time>2024-05-29T21:15:52.780Z</time>
      </trkpt>
      <trkpt lat="43.11932" lon="-0.52671">
        <ele>421.3</ele>
        <time>2024-05-29T21:15:57.762Z</time>
      </trkpt>
      <trkpt lat="43.11963" lon="-0.5265">
        <ele>420.19</ele>
        <time>2024-05-29T21:16:02.751Z</time>
      </trkpt>
      <trkpt lat="43.12013" lon="-0.52624">
        <ele>418.86</ele>
        <time>2024-05-29T21:16:07.750Z</time>
      </trkpt>
      <trkpt lat="43.1203" lon="-0.52609">
        <ele>417.69</ele>
        <time>2024-05-29T21:16:12.753Z</time>
      </trkpt>
      <trkpt lat="43.12045" lon="-0.52582">
        <ele>416.52</ele>
        <time>2024-05-29T21:16:17.760Z</time>
      </trkpt>
      <trkpt lat="43.12047" lon="-0.52558">
        <ele>415.36</ele>
        <time>2024-05-29T21:16:22.770Z</time>
      </trkpt>
      <trkpt lat="43.12042" lon="-0.52542">
        <ele>414.21</ele>
        <time>2024-05-29T21:16:27.783Z</time>
      </trkpt>
      <trkpt lat="43.11994" lon="-0.52506">
        <ele>413.07</ele>
        <time>2024-05-29T21:16:32.806Z</time>
      </trkpt>
      <trkpt lat="43.11967" lon="-0.52496">
        <ele>411.94</ele>
        <time>2024-05-29T21:16:37.834Z</time>
      </trkpt>
      <trkpt lat="43.11952" lon="-0.52477">
        <ele>410.83</ele>
        <time>2024-05-29T21:16:42.866Z</time>
      </trkpt>
      <trkpt lat="43.11951" lon="-0.52469">
        <ele>409.59</ele>
        <time>2024-05-29T21:16:47.899Z</time>
      </trkpt>
      <trkpt lat="43.11949" lon="-0.52454">
        <ele>408.31</ele>
        <time>2024-05-29T21:16:52.934Z</time>
      </trkpt>
      <trkpt lat="43.11953" lon="-0.52435">
        <ele>407.02</ele>
        <time>2024-05-29T21:16:57.972Z</time>
      </trkpt>
      <trkpt lat="43.11986" lon="-0.52373">
        <ele>405.45</ele>
        <time>2024-05-29T21:17:03.020Z</time>
      </trkpt>
      <trkpt lat="43.1199" lon="-0.52358">
        <ele>404.12</ele>
        <time>2024-05-29T21:17:08.071Z</time>
      </trkpt>
      <trkpt lat="43.11986" lon="-0.52344">
        <ele>402.84</ele>
        <time>2024-05-29T21:17:13.124Z</time>
      </trkpt>
      <trkpt lat="43.11962" lon="-0.52298">
        <ele>401.5</ele>
        <time>2024-05-29T21:17:18.184Z</time>
      </trkpt>
      <trkpt lat="43.11957" lon="-0.52264">
        <ele>400.06</ele>
        <time>2024-05-29T21:17:23.249Z</time>
      </trkpt>
      <trkpt lat="43.11958" lon="-0.52242">
        <ele>398.7</ele>
        <time>2024-05-29T21:17:28.317Z</time>
      </trkpt>
      <trkpt lat="43.11966" lon="-0.52224">
        <ele>397.31</ele>
        <time>2024-05-29T21:17:33.388Z</time>
      </trkpt>
      <trkpt lat="43.11984" lon="-0.52216">
        <ele>395.89</ele>
        <time>2024-05-29T21:17:38.462Z</time>
      </trkpt>
      <trkpt lat="43.11999" lon="-0.52221">
        <ele>394.42</ele>
        <time>2024-05-29T21:17:43.539Z</time>
      </trkpt>
      <trkpt lat="43.12031" lon="-0.52244">
        <ele>393.01</ele>
        <time>2024-05-29T21:17:48.623Z</time>
      </trkpt>
      <trkpt lat="43.12046" lon="-0.52247">
        <ele>391.6</ele>
        <time>2024-05-29T21:17:53.710Z</time>
      </trkpt>
      <trkpt lat="43.12062" lon="-0.52242">
        <ele>390.11</ele>
        <time>2024-05-29T21:17:58.800Z</time>
      </trkpt>
      <trkpt lat="43.12101" lon="-0.52211">
        <ele>388.55</ele>
        <time>2024-05-29T21:18:03.898Z</time>
      </trkpt>
      <trkpt lat="43.12122" lon="-0.52184">
        <ele>386.93</ele>
        <time>2024-05-29T21:18:09.002Z</time>
      </trkpt>
      <trkpt lat="43.1213" lon="-0.52141">
        <ele>385.46</ele>
        <time>2024-05-29T21:18:14.112Z</time>
      </trkpt>
      <trkpt lat="43.12146" lon="-0.52106">
        <ele>384</ele>
        <time>2024-05-29T21:18:19.227Z</time>
      </trkpt>
      <trkpt lat="43.12199" lon="-0.52072">
        <ele>382.09</ele>
        <time>2024-05-29T21:18:24.353Z</time>
      </trkpt>
      <trkpt lat="43.12206" lon="-0.52051">
        <ele>380.6</ele>
        <time>2024-05-29T21:18:29.482Z</time>
      </trkpt>
      <trkpt lat="43.12205" lon="-0.52026">
        <ele>379.2</ele>
        <time>2024-05-29T21:18:34.615Z</time>
      </trkpt>
      <trkpt lat="43.12199" lon="-0.51967">
        <ele>377.88</ele>
        <time>2024-05-29T21:18:39.756Z</time>
      </trkpt>
      <trkpt lat="43.12203" lon="-0.51954">
        <ele>376.47</ele>
        <time>2024-05-29T21:18:44.899Z</time>
      </trkpt>
      <trkpt lat="43.12212" lon="-0.51943">
        <ele>375.02</ele>
        <time>2024-05-29T21:18:50.044Z</time>
      </trkpt>
      <trkpt lat="43.12253" lon="-0.51934">
        <ele>373.42</ele>
        <time>2024-05-29T21:18:55.197Z</time>
      </trkpt>
      <trkpt lat="43.12264" lon="-0.51928">
        <ele>371.98</ele>
        <time>2024-05-29T21:19:00.352Z</time>
      </trkpt>
      <trkpt lat="43.12273" lon="-0.51917">
        <ele>370.57</ele>
        <time>2024-05-29T21:19:05.509Z</time>
      </trkpt>
      <trkpt lat="43.12295" lon="-0.51886">
        <ele>369.22</ele>
        <time>2024-05-29T21:19:10.672Z</time>
      </trkpt>
      <trkpt lat="43.12336" lon="-0.51799">
        <ele>367.86</ele>
        <time>2024-05-29T21:19:15.849Z</time>
      </trkpt>
      <trkpt lat="43.12342" lon="-0.51773">
        <ele>366.45</ele>
        <time>2024-05-29T21:19:21.030Z</time>
      </trkpt>
      <trkpt lat="43.12316" lon="-0.51732">
        <ele>365.03</ele>
        <time>2024-05-29T21:19:26.218Z</time>
      </trkpt>
      <trkpt lat="43.12308" lon="-0.51715">
        <ele>363.69</ele>
        <time>2024-05-29T21:19:31.409Z</time>
      </trkpt>
      <trkpt lat="43.12302" lon="-0.51687">
        <ele>362.36</ele>
        <time>2024-05-29T21:19:36.604Z</time>
      </trkpt>
      <trkpt lat="43.12302" lon="-0.51681">
        <ele>361.03</ele>
        <time>2024-05-29T21:19:41.800Z</time>
      </trkpt>
      <trkpt lat="43.12308" lon="-0.51614">
        <ele>359.72</ele>
        <time>2024-05-29T21:19:47.005Z</time>
      </trkpt>
      <trkpt lat="43.12332" lon="-0.51548">
        <ele>358.07</ele>
        <time>2024-05-29T21:19:52.220Z</time>
      </trkpt>
      <trkpt lat="43.12331" lon="-0.51496">
        <ele>356.6</ele>
        <time>2024-05-29T21:19:57.442Z</time>
      </trkpt>
      <trkpt lat="43.12338" lon="-0.51431">
        <ele>354.97</ele>
        <time>2024-05-29T21:20:02.673Z</time>
      </trkpt>
      <trkpt lat="43.12336" lon="-0.5142">
        <ele>353.68</ele>
        <time>2024-05-29T21:20:07.906Z</time>
      </trkpt>
      <trkpt lat="43.12322" lon="-0.51397">
        <ele>352.43</ele>
        <time>2024-05-29T21:20:13.143Z</time>
      </trkpt>
      <trkpt lat="43.12258" lon="-0.51353">
        <ele>350.97</ele>
        <time>2024-05-29T21:20:18.393Z</time>
      </trkpt>
      <trkpt lat="43.12252" lon="-0.5135">
        <ele>349.82</ele>
        <time>2024-05-29T21:20:23.644Z</time>
      </trkpt>
      <trkpt lat="43.12246" lon="-0.51348">
        <ele>348.74</ele>
        <time>2024-05-29T21:20:28.896Z</time>
      </trkpt>
      <trkpt lat="43.12199" lon="-0.51363">
        <ele>347.7</ele>
        <time>2024-05-29T21:20:34.157Z</time>
      </trkpt>
      <trkpt lat="43.12141" lon="-0.51362">
        <ele>346.63</ele>
        <time>2024-05-29T21:20:39.429Z</time>
      </trkpt>
      <trkpt lat="43.12122" lon="-0.51353">
        <ele>345.71</ele>
        <time>2024-05-29T21:20:44.705Z</time>
      </trkpt>
      <trkpt lat="43.12109" lon="-0.51341">
        <ele>344.84</ele>
        <time>2024-05-29T21:20:49.984Z</time>
      </trkpt>
      <trkpt lat="43.12099" lon="-0.51321">
        <ele>344.05</ele>
        <time>2024-05-29T21:20:55.266Z</time>
      </trkpt>
      <trkpt lat="43.12098" lon="-0.51298">
        <ele>343.41</ele>
        <time>2024-05-29T21:21:00.551Z</time>
      </trkpt>
      <trkpt lat="43.121" lon="-0.51268">
        <ele>342.95</ele>
        <time>2024-05-29T21:21:05.840Z</time>
      </trkpt>
      <trkpt lat="43.12164" lon="-0.51103">
        <ele>342.71</ele>
        <time>2024-05-29T21:21:11.155Z</time>
      </trkpt>
      <trkpt lat="43.12179" lon="-0.51086">
        <ele>342.35</ele>
        <time>2024-05-29T21:21:16.473Z</time>
      </trkpt>
      <trkpt lat="43.12191" lon="-0.51082">
        <ele>341.98</ele>
        <time>2024-05-29T21:21:21.794Z</time>
      </trkpt>
      <trkpt lat="43.12205" lon="-0.51085">
        <ele>341.6</ele>
        <time>2024-05-29T21:21:27.117Z</time>
      </trkpt>
      <trkpt lat="43.12267" lon="-0.51132">
        <ele>340.84</ele>
        <time>2024-05-29T21:21:32.454Z</time>
      </trkpt>
      <trkpt lat="43.12283" lon="-0.51135">
        <ele>340.61</ele>
        <time>2024-05-29T21:21:37.794Z</time>
      </trkpt>
      <trkpt lat="43.12296" lon="-0.51126">
        <ele>340.55</ele>
        <time>2024-05-29T21:21:43.136Z</time>
      </trkpt>
      <trkpt lat="43.12313" lon="-0.51105">
        <ele>340.48</ele>
        <time>2024-05-29T21:21:48.483Z</time>
      </trkpt>
      <trkpt lat="43.12319" lon="-0.51083">
        <ele>340.45</ele>
        <time>2024-05-29T21:21:53.833Z</time>
      </trkpt>
      <trkpt lat="43.12319" lon="-0.5106">
        <ele>340.47</ele>
        <time>2024-05-29T21:21:59.186Z</time>
      </trkpt>
      <trkpt lat="43.12327" lon="-0.5103">
        <ele>340.43</ele>
        <time>2024-05-29T21:22:04.543Z</time>
      </trkpt>
      <trkpt lat="43.12349" lon="-0.50992">
        <ele>340.25</ele>
        <time>2024-05-29T21:22:09.907Z</time>
      </trkpt>
      <trkpt lat="43.12352" lon="-0.50969">
        <ele>340.2</ele>
        <time>2024-05-29T21:22:15.274Z</time>
      </trkpt>
      <trkpt lat="43.12346" lon="-0.50953">
        <ele>340.25</ele>
        <time>2024-05-29T21:22:20.643Z</time>
      </trkpt>
      <trkpt lat="43.12316" lon="-0.50926">
        <ele>340.5</ele>
        <time>2024-05-29T21:22:26.019Z</time>
      </trkpt>
      <trkpt lat="43.12312" lon="-0.50906">
        <ele>340.55</ele>
        <time>2024-05-29T21:22:31.398Z</time>
      </trkpt>
      <trkpt lat="43.12315" lon="-0.50879">
        <ele>340.55</ele>
        <time>2024-05-29T21:22:36.781Z</time>
      </trkpt>
      <trkpt lat="43.1233" lon="-0.50863">
        <ele>340.37</ele>
        <time>2024-05-29T21:22:42.167Z</time>
      </trkpt>
      <trkpt lat="43.12353" lon="-0.50846">
        <ele>340.07</ele>
        <time>2024-05-29T21:22:47.558Z</time>
      </trkpt>
      <trkpt lat="43.12368" lon="-0.50779">
        <ele>339.98</ele>
        <time>2024-05-29T21:22:52.959Z</time>
      </trkpt>
      <trkpt lat="43.1238" lon="-0.50707">
        <ele>339.79</ele>
        <time>2024-05-29T21:22:58.370Z</time>
      </trkpt>
      <trkpt lat="43.12381" lon="-0.50658">
        <ele>339.63</ele>
        <time>2024-05-29T21:23:03.787Z</time>
      </trkpt>
      <trkpt lat="43.12365" lon="-0.50519">
        <ele>339.15</ele>
        <time>2024-05-29T21:23:09.224Z</time>
      </trkpt>
      <trkpt lat="43.12359" lon="-0.50493">
        <ele>338.8</ele>
        <time>2024-05-29T21:23:14.664Z</time>
      </trkpt>
      <trkpt lat="43.12347" lon="-0.50478">
        <ele>338.58</ele>
        <time>2024-05-29T21:23:20.107Z</time>
      </trkpt>
      <trkpt lat="43.12332" lon="-0.50477">
        <ele>338.32</ele>
        <time>2024-05-29T21:23:25.553Z</time>
      </trkpt>
      <trkpt lat="43.12307" lon="-0.50483">
        <ele>338.02</ele>
        <time>2024-05-29T21:23:31.004Z</time>
      </trkpt>
      <trkpt lat="43.12293" lon="-0.50479">
        <ele>337.58</ele>
        <time>2024-05-29T21:23:36.457Z</time>
      </trkpt>
      <trkpt lat="43.1228" lon="-0.50466">
        <ele>337.04</ele>
        <time>2024-05-29T21:23:41.913Z</time>
      </trkpt>
      <trkpt lat="43.12274" lon="-0.50444">
        <ele>336.49</ele>
        <time>2024-05-29T21:23:47.373Z</time>
      </trkpt>
      <trkpt lat="43.12278" lon="-0.5042">
        <ele>335.89</ele>
        <time>2024-05-29T21:23:52.836Z</time>
      </trkpt>
      <trkpt lat="43.12294" lon="-0.50379">
        <ele>335.27</ele>
        <time>2024-05-29T21:23:58.305Z</time>
      </trkpt>
      <trkpt lat="43.12296" lon="-0.50346">
        <ele>334.67</ele>
        <time>2024-05-29T21:24:03.779Z</time>
      </trkpt>
      <trkpt lat="43.1229" lon="-0.50323">
        <ele>334.05</ele>
        <time>2024-05-29T21:24:09.256Z</time>
      </trkpt>
      <trkpt lat="43.12277" lon="-0.50307">
        <ele>333.45</ele>
        <time>2024-05-29T21:24:14.736Z</time>
      </trkpt>
      <trkpt lat="43.12249" lon="-0.50301">
        <ele>332.9</ele>
        <time>2024-05-29T21:24:20.222Z</time>
      </trkpt>
      <trkpt lat="43.12201" lon="-0.50309">
        <ele>332.12</ele>
        <time>2024-05-29T21:24:25.717Z</time>
      </trkpt>
      <trkpt lat="43.12178" lon="-0.50306">
        <ele>331.29</ele>
        <time>2024-05-29T21:24:31.216Z</time>
      </trkpt>
      <trkpt lat="43.12159" lon="-0.50285">
        <ele>330.36</ele>
        <time>2024-05-29T21:24:36.720Z</time>
      </trkpt>
      <trkpt lat="43.12149" lon="-0.50247">
        <ele>329.5</ele>
        <time>2024-05-29T21:24:42.229Z</time>
      </trkpt>
      <trkpt lat="43.12143" lon="-0.50209">
        <ele>328.75</ele>
        <time>2024-05-29T21:24:47.743Z</time>
      </trkpt>
      <trkpt lat="43.12143" lon="-0.50167">
        <ele>327.94</ele>
        <time>2024-05-29T21:24:53.263Z</time>
      </trkpt>
      <trkpt lat="43.12155" lon="-0.50145">
        <ele>327.19</ele>
        <time>2024-05-29T21:24:58.787Z</time>
      </trkpt>
      <trkpt lat="43.12172" lon="-0.50132">
        <ele>326.51</ele>
        <time>2024-05-29T21:25:04.314Z</time>
      </trkpt>
      <trkpt lat="43.12209" lon="-0.50116">
        <ele>325.8</ele>
        <time>2024-05-29T21:25:09.849Z</time>
      </trkpt>
      <trkpt lat="43.12228" lon="-0.501">
        <ele>325</ele>
        <time>2024-05-29T21:25:15.388Z</time>
      </trkpt>
      <trkpt lat="43.12244" lon="-0.50075">
        <ele>324.24</ele>
        <time>2024-05-29T21:25:20.931Z</time>
      </trkpt>
      <trkpt lat="43.12256" lon="-0.50039">
        <ele>323.6</ele>
        <time>2024-05-29T21:25:26.480Z</time>
      </trkpt>
      <trkpt lat="43.12271" lon="-0.49963">
        <ele>322.95</ele>
        <time>2024-05-29T21:25:32.039Z</time>
      </trkpt>
      <trkpt lat="43.12275" lon="-0.49931">
        <ele>322.38</ele>
        <time>2024-05-29T21:25:37.603Z</time>
      </trkpt>
      <trkpt lat="43.12271" lon="-0.49899">
        <ele>321.82</ele>
        <time>2024-05-29T21:25:43.171Z</time>
      </trkpt>
      <trkpt lat="43.12258" lon="-0.49886">
        <ele>321.35</ele>
        <time>2024-05-29T21:25:48.742Z</time>
      </trkpt>
      <trkpt lat="43.12243" lon="-0.4988">
        <ele>321.01</ele>
        <time>2024-05-29T21:25:54.316Z</time>
      </trkpt>
      <trkpt lat="43.12216" lon="-0.49883">
        <ele>320.76</ele>
        <time>2024-05-29T21:25:59.895Z</time>
      </trkpt>
      <trkpt lat="43.12197" lon="-0.49882">
        <ele>320.56</ele>
        <time>2024-05-29T21:26:05.478Z</time>
      </trkpt>
      <trkpt lat="43.12184" lon="-0.4987">
        <ele>320.45</ele>
        <time>2024-05-29T21:26:11.064Z</time>
      </trkpt>
      <trkpt lat="43.12183" lon="-0.49863">
        <ele>320.35</ele>
        <time>2024-05-29T21:26:16.651Z</time>
      </trkpt>
      <trkpt lat="43.12179" lon="-0.49847">
        <ele>320.35</ele>
        <time>2024-05-29T21:26:22.240Z</time>
      </trkpt>
      <trkpt lat="43.12186" lon="-0.49823">
        <ele>320.34</ele>
        <time>2024-05-29T21:26:27.833Z</time>
      </trkpt>
      <trkpt lat="43.1221" lon="-0.49795">
        <ele>320.28</ele>
        <time>2024-05-29T21:26:33.431Z</time>
      </trkpt>
      <trkpt lat="43.12221" lon="-0.49776">
        <ele>320.3</ele>
        <time>2024-05-29T21:26:39.033Z</time>
      </trkpt>
      <trkpt lat="43.12225" lon="-0.49746">
        <ele>320.35</ele>
        <time>2024-05-29T21:26:44.639Z</time>
      </trkpt>
      <trkpt lat="43.12222" lon="-0.49718">
        <ele>320.55</ele>
        <time>2024-05-29T21:26:50.249Z</time>
      </trkpt>
      <trkpt lat="43.12206" lon="-0.49674">
        <ele>320.93</ele>
        <time>2024-05-29T21:26:55.865Z</time>
      </trkpt>
      <trkpt lat="43.12188" lon="-0.49649">
        <ele>321.42</ele>
        <time>2024-05-29T21:27:01.486Z</time>
      </trkpt>
      <trkpt lat="43.12167" lon="-0.49634">
        <ele>321.91</ele>
        <time>2024-05-29T21:27:07.112Z</time>
      </trkpt>
      <trkpt lat="43.12145" lon="-0.49634">
        <ele>322.41</ele>
        <time>2024-05-29T21:27:12.742Z</time>
      </trkpt>
      <trkpt lat="43.12106" lon="-0.49651">
        <ele>323.04</ele>
        <time>2024-05-29T21:27:18.379Z</time>
      </trkpt>
      <trkpt lat="43.12094" lon="-0.49652">
        <ele>323.6</ele>
        <time>2024-05-29T21:27:24.019Z</time>
      </trkpt>
      <trkpt lat="43.12082" lon="-0.49643">
        <ele>324.17</ele>
        <time>2024-05-29T21:27:29.661Z</time>
      </trkpt>
      <trkpt lat="43.12075" lon="-0.49626">
        <ele>324.78</ele>
        <time>2024-05-29T21:27:35.306Z</time>
      </trkpt>
      <trkpt lat="43.12079" lon="-0.49596">
        <ele>325.38</ele>
        <time>2024-05-29T21:27:40.955Z</time>
      </trkpt>
      <trkpt lat="43.12094" lon="-0.49563">
        <ele>325.93</ele>
        <time>2024-05-29T21:27:46.609Z</time>
      </trkpt>
      <trkpt lat="43.12095" lon="-0.49545">
        <ele>326.61</ele>
        <time>2024-05-29T21:27:52.266Z</time>
      </trkpt>
      <trkpt lat="43.1209" lon="-0.49526">
        <ele>327.36</ele>
        <time>2024-05-29T21:27:57.925Z</time>
      </trkpt>
      <trkpt lat="43.12066" lon="-0.49493">
        <ele>328.28</ele>
        <time>2024-05-29T21:28:03.591Z</time>
      </trkpt>
      <trkpt lat="43.1206" lon="-0.49477">
        <ele>329.02</ele>
        <time>2024-05-29T21:28:09.259Z</time>
      </trkpt>
      <trkpt lat="43.12062" lon="-0.49454">
        <ele>329.66</ele>
        <time>2024-05-29T21:28:14.930Z</time>
      </trkpt>
      <trkpt lat="43.12078" lon="-0.49415">
        <ele>330.13</ele>
        <time>2024-05-29T21:28:20.607Z</time>
      </trkpt>
      <trkpt lat="43.12079" lon="-0.49396">
        <ele>330.81</ele>
        <time>2024-05-29T21:28:26.287Z</time>
      </trkpt>
      <trkpt lat="43.1206" lon="-0.49296">
        <ele>331.86</ele>
        <time>2024-05-29T21:28:31.981Z</time>
      </trkpt>
      <trkpt lat="43.12038" lon="-0.49253">
        <ele>332.66</ele>
        <time>2024-05-29T21:28:37.682Z</time>
      </trkpt>
      <trkpt lat="43.12031" lon="-0.4923">
        <ele>333.25</ele>
        <time>2024-05-29T21:28:43.387Z</time>
      </trkpt>
      <trkpt lat="43.12026" lon="-0.49182">
        <ele>333.77</ele>
        <time>2024-05-29T21:28:49.098Z</time>
      </trkpt>
      <trkpt lat="43.12019" lon="-0.4916">
        <ele>334.38</ele>
        <time>2024-05-29T21:28:54.813Z</time>
      </trkpt>
      <trkpt lat="43.12005" lon="-0.49143">
        <ele>335.02</ele>
        <time>2024-05-29T21:29:00.531Z</time>
      </trkpt>
      <trkpt lat="43.11985" lon="-0.49133">
        <ele>335.62</ele>
        <time>2024-05-29T21:29:06.253Z</time>
      </trkpt>
      <trkpt lat="43.11966" lon="-0.49132">
        <ele>336.19</ele>
        <time>2024-05-29T21:29:11.978Z</time>
      </trkpt>
      <trkpt lat="43.11933" lon="-0.49155">
        <ele>336.69</ele>
        <time>2024-05-29T21:29:17.710Z</time>
      </trkpt>
      <trkpt lat="43.11919" lon="-0.49162">
        <ele>337.06</ele>
        <time>2024-05-29T21:29:23.445Z</time>
      </trkpt>
      <trkpt lat="43.11905" lon="-0.49161">
        <ele>337.38</ele>
        <time>2024-05-29T21:29:29.183Z</time>
      </trkpt>
      <trkpt lat="43.11888" lon="-0.49149">
        <ele>337.68</ele>
        <time>2024-05-29T21:29:34.924Z</time>
      </trkpt>
      <trkpt lat="43.11885" lon="-0.49126">
        <ele>337.98</ele>
        <time>2024-05-29T21:29:40.669Z</time>
      </trkpt>
      <trkpt lat="43.1189" lon="-0.49105">
        <ele>338.19</ele>
        <time>2024-05-29T21:29:46.417Z</time>
      </trkpt>
      <trkpt lat="43.11927" lon="-0.49054">
        <ele>338.19</ele>
        <time>2024-05-29T21:29:52.174Z</time>
      </trkpt>
      <trkpt lat="43.1194" lon="-0.4903">
        <ele>338.17</ele>
        <time>2024-05-29T21:29:57.935Z</time>
      </trkpt>
      <trkpt lat="43.11945" lon="-0.49009">
        <ele>338.1</ele>
        <time>2024-05-29T21:30:03.699Z</time>
      </trkpt>
      <trkpt lat="43.11944" lon="-0.4898">
        <ele>337.99</ele>
        <time>2024-05-29T21:30:09.467Z</time>
      </trkpt>
      <trkpt lat="43.11937" lon="-0.48953">
        <ele>337.84</ele>
        <time>2024-05-29T21:30:15.239Z</time>
      </trkpt>
      <trkpt lat="43.11895" lon="-0.48908">
        <ele>338.03</ele>
        <time>2024-05-29T21:30:21.021Z</time>
      </trkpt>
      <trkpt lat="43.11882" lon="-0.48887">
        <ele>337.98</ele>
        <time>2024-05-29T21:30:26.807Z</time>
      </trkpt>
      <trkpt lat="43.11859" lon="-0.48836">
        <ele>337.74</ele>
        <time>2024-05-29T21:30:32.601Z</time>
      </trkpt>
      <trkpt lat="43.11847" lon="-0.48825">
        <ele>337.67</ele>
        <time>2024-05-29T21:30:38.398Z</time>
      </trkpt>
      <trkpt lat="43.1183" lon="-0.48814">
        <ele>337.48</ele>
        <time>2024-05-29T21:30:44.198Z</time>
      </trkpt>
      <trkpt lat="43.11803" lon="-0.48826">
        <ele>337.48</ele>
        <time>2024-05-29T21:30:50.004Z</time>
      </trkpt>
      <trkpt lat="43.11783" lon="-0.48825">
        <ele>337.42</ele>
        <time>2024-05-29T21:30:55.813Z</time>
      </trkpt>
      <trkpt lat="43.11755" lon="-0.48814">
        <ele>337.34</ele>
        <time>2024-05-29T21:31:01.628Z</time>
      </trkpt>
      <trkpt lat="43.11737" lon="-0.48783">
        <ele>337.11</ele>
        <time>2024-05-29T21:31:07.448Z</time>
      </trkpt>
      <trkpt lat="43.11736" lon="-0.48758">
        <ele>336.92</ele>
        <time>2024-05-29T21:31:13.271Z</time>
      </trkpt>
      <trkpt lat="43.11759" lon="-0.48718">
        <ele>336.64</ele>
        <time>2024-05-29T21:31:19.101Z</time>
      </trkpt>
      <trkpt lat="43.11765" lon="-0.48697">
        <ele>336.57</ele>
        <time>2024-05-29T21:31:24.934Z</time>
      </trkpt>
      <trkpt lat="43.11767" lon="-0.48676">
        <ele>336.57</ele>
        <time>2024-05-29T21:31:30.770Z</time>
      </trkpt>
      <trkpt lat="43.11767" lon="-0.48643">
        <ele>336.63</ele>
        <time>2024-05-29T21:31:36.611Z</time>
      </trkpt>
      <trkpt lat="43.11777" lon="-0.48619">
        <ele>336.57</ele>
        <time>2024-05-29T21:31:42.456Z</time>
      </trkpt>
      <trkpt lat="43.11791" lon="-0.48592">
        <ele>336.51</ele>
        <time>2024-05-29T21:31:48.305Z</time>
      </trkpt>
      <trkpt lat="43.11799" lon="-0.48567">
        <ele>336.45</ele>
        <time>2024-05-29T21:31:54.158Z</time>
      </trkpt>
      <trkpt lat="43.11801" lon="-0.48533">
        <ele>336.43</ele>
        <time>2024-05-29T21:32:00.016Z</time>
      </trkpt>
      <trkpt lat="43.11796" lon="-0.48508">
        <ele>336.57</ele>
        <time>2024-05-29T21:32:05.877Z</time>
      </trkpt>
      <trkpt lat="43.11805" lon="-0.48464">
        <ele>336.56</ele>
        <time>2024-05-29T21:32:11.744Z</time>
      </trkpt>
      <trkpt lat="43.11807" lon="-0.48406">
        <ele>336.96</ele>
        <time>2024-05-29T21:32:17.619Z</time>
      </trkpt>
      <trkpt lat="43.11837" lon="-0.48351">
        <ele>336.84</ele>
        <time>2024-05-29T21:32:23.504Z</time>
      </trkpt>
      <trkpt lat="43.11861" lon="-0.48285">
        <ele>336.84</ele>
        <time>2024-05-29T21:32:29.399Z</time>
      </trkpt>
      <trkpt lat="43.11862" lon="-0.4826">
        <ele>336.96</ele>
        <time>2024-05-29T21:32:35.297Z</time>
      </trkpt>
      <trkpt lat="43.11857" lon="-0.48232">
        <ele>337.17</ele>
        <time>2024-05-29T21:32:41.199Z</time>
      </trkpt>
      <trkpt lat="43.11843" lon="-0.48209">
        <ele>337.44</ele>
        <time>2024-05-29T21:32:47.105Z</time>
      </trkpt>
      <trkpt lat="43.11795" lon="-0.48168">
        <ele>337.6</ele>
        <time>2024-05-29T21:32:53.022Z</time>
      </trkpt>
      <trkpt lat="43.11782" lon="-0.48147">
        <ele>337.94</ele>
        <time>2024-05-29T21:32:58.942Z</time>
      </trkpt>
      <trkpt lat="43.11778" lon="-0.48123">
        <ele>338.28</ele>
        <time>2024-05-29T21:33:04.866Z</time>
      </trkpt>
      <trkpt lat="43.11783" lon="-0.48097">
        <ele>338.76</ele>
        <time>2024-05-29T21:33:10.793Z</time>
      </trkpt>
      <trkpt lat="43.11794" lon="-0.48081">
        <ele>339.29</ele>
        <time>2024-05-29T21:33:16.723Z</time>
      </trkpt>
      <trkpt lat="43.1181" lon="-0.48075">
        <ele>339.85</ele>
        <time>2024-05-29T21:33:22.656Z</time>
      </trkpt>
      <trkpt lat="43.11827" lon="-0.4808">
        <ele>340.25</ele>
        <time>2024-05-29T21:33:28.593Z</time>
      </trkpt>
      <trkpt lat="43.11847" lon="-0.48096">
        <ele>340.6</ele>
        <time>2024-05-29T21:33:34.534Z</time>
      </trkpt>
      <trkpt lat="43.11868" lon="-0.48125">
        <ele>340.76</ele>
        <time>2024-05-29T21:33:40.480Z</time>
      </trkpt>
      <trkpt lat="43.11886" lon="-0.48139">
        <ele>341.05</ele>
        <time>2024-05-29T21:33:46.430Z</time>
      </trkpt>
      <trkpt lat="43.11901" lon="-0.4814">
        <ele>341.48</ele>
        <time>2024-05-29T21:33:52.383Z</time>
      </trkpt>
      <trkpt lat="43.11917" lon="-0.48132">
        <ele>341.95</ele>
        <time>2024-05-29T21:33:58.339Z</time>
      </trkpt>
      <trkpt lat="43.11929" lon="-0.48114">
        <ele>342.59</ele>
        <time>2024-05-29T21:34:04.299Z</time>
      </trkpt>
      <trkpt lat="43.11936" lon="-0.48095">
        <ele>343.21</ele>
        <time>2024-05-29T21:34:10.261Z</time>
      </trkpt>
      <trkpt lat="43.11937" lon="-0.48073">
        <ele>343.98</ele>
        <time>2024-05-29T21:34:16.226Z</time>
      </trkpt>
      <trkpt lat="43.11917" lon="-0.48001">
        <ele>345.27</ele>
        <time>2024-05-29T21:34:22.202Z</time>
      </trkpt>
      <trkpt lat="43.1191" lon="-0.4796">
        <ele>346.16</ele>
        <time>2024-05-29T21:34:28.184Z</time>
      </trkpt>
      <trkpt lat="43.11911" lon="-0.47885">
        <ele>346.55</ele>
        <time>2024-05-29T21:34:34.176Z</time>
      </trkpt>
      <trkpt lat="43.11909" lon="-0.47858">
        <ele>347.47</ele>
        <time>2024-05-29T21:34:40.172Z</time>
      </trkpt>
      <trkpt lat="43.11885" lon="-0.4781">
        <ele>349.01</ele>
        <time>2024-05-29T21:34:46.176Z</time>
      </trkpt>
      <trkpt lat="43.11874" lon="-0.47763">
        <ele>350.09</ele>
        <time>2024-05-29T21:34:52.186Z</time>
      </trkpt>
      <trkpt lat="43.11873" lon="-0.47666">
        <ele>350.97</ele>
        <time>2024-05-29T21:34:58.209Z</time>
      </trkpt>
      <trkpt lat="43.1186" lon="-0.47601">
        <ele>351.99</ele>
        <time>2024-05-29T21:35:04.242Z</time>
      </trkpt>
      <trkpt lat="43.11829" lon="-0.4752">
        <ele>353.67</ele>
        <time>2024-05-29T21:35:10.287Z</time>
      </trkpt>
      <trkpt lat="43.11829" lon="-0.47474">
        <ele>354.57</ele>
        <time>2024-05-29T21:35:16.338Z</time>
      </trkpt>
      <trkpt lat="43.11819" lon="-0.47435">
        <ele>356.03</ele>
        <time>2024-05-29T21:35:22.395Z</time>
      </trkpt>
      <trkpt lat="43.11819" lon="-0.47388">
        <ele>357.12</ele>
        <time>2024-05-29T21:35:28.458Z</time>
      </trkpt>
      <trkpt lat="43.11827" lon="-0.47352">
        <ele>357.82</ele>
        <time>2024-05-29T21:35:34.527Z</time>
      </trkpt>
      <trkpt lat="43.11826" lon="-0.47336">
        <ele>358.91</ele>
        <time>2024-05-29T21:35:40.598Z</time>
      </trkpt>
      <trkpt lat="43.1181" lon="-0.47285">
        <ele>360.62</ele>
        <time>2024-05-29T21:35:46.676Z</time>
      </trkpt>
      <trkpt lat="43.11815" lon="-0.47213">
        <ele>361.43</ele>
        <time>2024-05-29T21:35:52.764Z</time>
      </trkpt>
      <trkpt lat="43.11809" lon="-0.47153">
        <ele>362.52</ele>
        <time>2024-05-29T21:35:58.860Z</time>
      </trkpt>
      <trkpt lat="43.11803" lon="-0.4713">
        <ele>363.62</ele>
        <time>2024-05-29T21:36:04.960Z</time>
      </trkpt>
      <trkpt lat="43.11787" lon="-0.47096">
        <ele>364.75</ele>
        <time>2024-05-29T21:36:11.065Z</time>
      </trkpt>
      <trkpt lat="43.11771" lon="-0.47081">
        <ele>366.06</ele>
        <time>2024-05-29T21:36:17.174Z</time>
      </trkpt>
      <trkpt lat="43.11755" lon="-0.47072">
        <ele>367.38</ele>
        <time>2024-05-29T21:36:23.286Z</time>
      </trkpt>
      <trkpt lat="43.11729" lon="-0.47067">
        <ele>368.81</ele>
        <time>2024-05-29T21:36:29.403Z</time>
      </trkpt>
      <trkpt lat="43.11715" lon="-0.47056">
        <ele>369.93</ele>
        <time>2024-05-29T21:36:35.523Z</time>
      </trkpt>
      <trkpt lat="43.11702" lon="-0.47041">
        <ele>371.04</ele>
        <time>2024-05-29T21:36:41.646Z</time>
      </trkpt>
      <trkpt lat="43.11695" lon="-0.47024">
        <ele>372.01</ele>
        <time>2024-05-29T21:36:47.772Z</time>
      </trkpt>
      <trkpt lat="43.11686" lon="-0.46996">
        <ele>372.88</ele>
        <time>2024-05-29T21:36:53.902Z</time>
      </trkpt>
      <trkpt lat="43.1168" lon="-0.46973">
        <ele>373.7</ele>
        <time>2024-05-29T21:37:00.035Z</time>
      </trkpt>
      <trkpt lat="43.11665" lon="-0.46947">
        <ele>374.63</ele>
        <time>2024-05-29T21:37:06.173Z</time>
      </trkpt>
      <trkpt lat="43.11654" lon="-0.46932">
        <ele>375.54</ele>
        <time>2024-05-29T21:37:12.314Z</time>
      </trkpt>
      <trkpt lat="43.11642" lon="-0.4692">
        <ele>376.44</ele>
        <time>2024-05-29T21:37:18.457Z</time>
      </trkpt>
      <trkpt lat="43.11625" lon="-0.46907">
        <ele>377.34</ele>
        <time>2024-05-29T21:37:24.604Z</time>
      </trkpt>
      <trkpt lat="43.11595" lon="-0.46902">
        <ele>378.59</ele>
        <time>2024-05-29T21:37:30.757Z</time>
      </trkpt>
      <trkpt lat="43.11583" lon="-0.46898">
        <ele>379.48</ele>
        <time>2024-05-29T21:37:36.912Z</time>
      </trkpt>
      <trkpt lat="43.11566" lon="-0.46884">
        <ele>380.28</ele>
        <time>2024-05-29T21:37:43.071Z</time>
      </trkpt>
      <trkpt lat="43.11529" lon="-0.46835">
        <ele>380.82</ele>
        <time>2024-05-29T21:37:49.239Z</time>
      </trkpt>
      <trkpt lat="43.11504" lon="-0.46813">
        <ele>381.58</ele>
        <time>2024-05-29T21:37:55.413Z</time>
      </trkpt>
      <trkpt lat="43.11478" lon="-0.46777">
        <ele>382.43</ele>
        <time>2024-05-29T21:38:01.594Z</time>
      </trkpt>
      <trkpt lat="43.11478" lon="-0.4677">
        <ele>383.01</ele>
        <time>2024-05-29T21:38:07.776Z</time>
      </trkpt>
      <trkpt lat="43.11474" lon="-0.46709">
        <ele>383.45</ele>
        <time>2024-05-29T21:38:13.966Z</time>
      </trkpt>
      <trkpt lat="43.11461" lon="-0.46662">
        <ele>384.09</ele>
        <time>2024-05-29T21:38:20.163Z</time>
      </trkpt>
      <trkpt lat="43.11445" lon="-0.46609">
        <ele>384.66</ele>
        <time>2024-05-29T21:38:26.368Z</time>
      </trkpt>
      <trkpt lat="43.11443" lon="-0.46592">
        <ele>385.24</ele>
        <time>2024-05-29T21:38:32.575Z</time>
      </trkpt>
      <trkpt lat="43.11447" lon="-0.46578">
        <ele>385.78</ele>
        <time>2024-05-29T21:38:38.784Z</time>
      </trkpt>
      <trkpt lat="43.11485" lon="-0.46533">
        <ele>386.25</ele>
        <time>2024-05-29T21:38:45.002Z</time>
      </trkpt>
      <trkpt lat="43.11566" lon="-0.46451">
        <ele>386.82</ele>
        <time>2024-05-29T21:38:51.239Z</time>
      </trkpt>
      <trkpt lat="43.11576" lon="-0.4643">
        <ele>387.39</ele>
        <time>2024-05-29T21:38:57.480Z</time>
      </trkpt>
      <trkpt lat="43.11581" lon="-0.46416">
        <ele>387.96</ele>
        <time>2024-05-29T21:39:03.723Z</time>
      </trkpt>
      <trkpt lat="43.11583" lon="-0.46398">
        <ele>388.57</ele>
        <time>2024-05-29T21:39:09.968Z</time>
      </trkpt>
      <trkpt lat="43.11582" lon="-0.46377">
        <ele>389.22</ele>
        <time>2024-05-29T21:39:16.216Z</time>
      </trkpt>
      <trkpt lat="43.11575" lon="-0.46342">
        <ele>389.97</ele>
        <time>2024-05-29T21:39:22.469Z</time>
      </trkpt>
      <trkpt lat="43.11554" lon="-0.46313">
        <ele>390.86</ele>
        <time>2024-05-29T21:39:28.728Z</time>
      </trkpt>
      <trkpt lat="43.11447" lon="-0.46232">
        <ele>392.01</ele>
        <time>2024-05-29T21:39:35.009Z</time>
      </trkpt>
      <trkpt lat="43.11389" lon="-0.462">
        <ele>392.64</ele>
        <time>2024-05-29T21:39:41.302Z</time>
      </trkpt>
      <trkpt lat="43.11372" lon="-0.46187">
        <ele>393.25</ele>
        <time>2024-05-29T21:39:47.599Z</time>
      </trkpt>
      <trkpt lat="43.11357" lon="-0.4617">
        <ele>393.87</ele>
        <time>2024-05-29T21:39:53.899Z</time>
      </trkpt>
      <trkpt lat="43.11337" lon="-0.46142">
        <ele>394.6</ele>
        <time>2024-05-29T21:40:00.205Z</time>
      </trkpt>
      <trkpt lat="43.11321" lon="-0.46113">
        <ele>395.44</ele>
        <time>2024-05-29T21:40:06.515Z</time>
      </trkpt>
      <trkpt lat="43.11286" lon="-0.46036">
        <ele>396.44</ele>
        <time>2024-05-29T21:40:12.838Z</time>
      </trkpt>
      <trkpt lat="43.11221" lon="-0.45915">
        <ele>396.82</ele>
        <time>2024-05-29T21:40:19.181Z</time>
      </trkpt>
      <trkpt lat="43.11199" lon="-0.45887">
        <ele>397.17</ele>
        <time>2024-05-29T21:40:25.530Z</time>
      </trkpt>
      <trkpt lat="43.1118" lon="-0.45872">
        <ele>397.72</ele>
        <time>2024-05-29T21:40:31.883Z</time>
      </trkpt>
      <trkpt lat="43.11133" lon="-0.45853">
        <ele>398.79</ele>
        <time>2024-05-29T21:40:38.245Z</time>
      </trkpt>
      <trkpt lat="43.1112" lon="-0.45843">
        <ele>399.39</ele>
        <time>2024-05-29T21:40:44.610Z</time>
      </trkpt>
      <trkpt lat="43.11048" lon="-0.45766">
        <ele>400.07</ele>
        <time>2024-05-29T21:40:50.992Z</time>
      </trkpt>
      <trkpt lat="43.11039" lon="-0.45732">
        <ele>400.3</ele>
        <time>2024-05-29T21:40:57.379Z</time>
      </trkpt>
      <trkpt lat="43.1104" lon="-0.45691">
        <ele>400.46</ele>
        <time>2024-05-29T21:41:03.771Z</time>
      </trkpt>
      <trkpt lat="43.11029" lon="-0.4566">
        <ele>400.85</ele>
        <time>2024-05-29T21:41:10.168Z</time>
      </trkpt>
      <trkpt lat="43.1097" lon="-0.45507">
        <ele>401.05</ele>
        <time>2024-05-29T21:41:16.589Z</time>
      </trkpt>
      <trkpt lat="43.10967" lon="-0.45488">
        <ele>401.41</ele>
        <time>2024-05-29T21:41:23.012Z</time>
      </trkpt>
      <trkpt lat="43.10966" lon="-0.45472">
        <ele>401.75</ele>
        <time>2024-05-29T21:41:29.437Z</time>
      </trkpt>
      <trkpt lat="43.10968" lon="-0.45457">
        <ele>402.06</ele>
        <time>2024-05-29T21:41:35.865Z</time>
      </trkpt>
      <trkpt lat="43.10976" lon="-0.45427">
        <ele>402.33</ele>
        <time>2024-05-29T21:41:42.297Z</time>
      </trkpt>
      <trkpt lat="43.10997" lon="-0.45368">
        <ele>402.89</ele>
        <time>2024-05-29T21:41:48.738Z</time>
      </trkpt>
      <trkpt lat="43.11" lon="-0.45347">
        <ele>403.21</ele>
        <time>2024-05-29T21:41:55.182Z</time>
      </trkpt>
      <trkpt lat="43.11001" lon="-0.4532">
        <ele>403.51</ele>
        <time>2024-05-29T21:42:01.629Z</time>
      </trkpt>
      <trkpt lat="43.11" lon="-0.45301">
        <ele>403.71</ele>
        <time>2024-05-29T21:42:08.079Z</time>
      </trkpt>
      <trkpt lat="43.10978" lon="-0.45234">
        <ele>404.03</ele>
        <time>2024-05-29T21:42:14.539Z</time>
      </trkpt>
      <trkpt lat="43.10978" lon="-0.45207">
        <ele>404.22</ele>
        <time>2024-05-29T21:42:21.003Z</time>
      </trkpt>
      <trkpt lat="43.10986" lon="-0.45164">
        <ele>404.4</ele>
        <time>2024-05-29T21:42:27.473Z</time>
      </trkpt>
      <trkpt lat="43.10987" lon="-0.45126">
        <ele>404.43</ele>
        <time>2024-05-29T21:42:33.948Z</time>
      </trkpt>
      <trkpt lat="43.10975" lon="-0.45039">
        <ele>404.32</ele>
        <time>2024-05-29T21:42:40.435Z</time>
      </trkpt>
      <trkpt lat="43.10979" lon="-0.44995">
        <ele>403.93</ele>
        <time>2024-05-29T21:42:46.928Z</time>
      </trkpt>
      <trkpt lat="43.10977" lon="-0.44969">
        <ele>403.65</ele>
        <time>2024-05-29T21:42:53.425Z</time>
      </trkpt>
      <trkpt lat="43.10966" lon="-0.44947">
        <ele>403.48</ele>
        <time>2024-05-29T21:42:59.925Z</time>
      </trkpt>
      <trkpt lat="43.10946" lon="-0.44923">
        <ele>403.46</ele>
        <time>2024-05-29T21:43:06.430Z</time>
      </trkpt>
      <trkpt lat="43.10851" lon="-0.44847">
        <ele>403.45</ele>
        <time>2024-05-29T21:43:12.956Z</time>
      </trkpt>
      <trkpt lat="43.10832" lon="-0.44827">
        <ele>403.3</ele>
        <time>2024-05-29T21:43:19.486Z</time>
      </trkpt>
      <trkpt lat="43.10823" lon="-0.44812">
        <ele>403.02</ele>
        <time>2024-05-29T21:43:26.019Z</time>
      </trkpt>
      <trkpt lat="43.10813" lon="-0.44788">
        <ele>402.75</ele>
        <time>2024-05-29T21:43:32.556Z</time>
      </trkpt>
      <trkpt lat="43.10805" lon="-0.4476">
        <ele>402.57</ele>
        <time>2024-05-29T21:43:39.097Z</time>
      </trkpt>
      <trkpt lat="43.10791" lon="-0.44673">
        <ele>402.37</ele>
        <time>2024-05-29T21:43:45.650Z</time>
      </trkpt>
      <trkpt lat="43.10772" lon="-0.44611">
        <ele>402.25</ele>
        <time>2024-05-29T21:43:52.212Z</time>
      </trkpt>
      <trkpt lat="43.10768" lon="-0.44581">
        <ele>402.19</ele>
        <time>2024-05-29T21:43:58.778Z</time>
      </trkpt>
      <trkpt lat="43.10768" lon="-0.44553">
        <ele>402.18</ele>
        <time>2024-05-29T21:44:05.348Z</time>
      </trkpt>
      <trkpt lat="43.10774" lon="-0.44486">
        <ele>402.46</ele>
        <time>2024-05-29T21:44:11.927Z</time>
      </trkpt>
      <trkpt lat="43.10774" lon="-0.44458">
        <ele>402.61</ele>
        <time>2024-05-29T21:44:18.510Z</time>
      </trkpt>
      <trkpt lat="43.10765" lon="-0.44411">
        <ele>402.63</ele>
        <time>2024-05-29T21:44:25.100Z</time>
      </trkpt>
      <trkpt lat="43.10757" lon="-0.44386">
        <ele>402.81</ele>
        <time>2024-05-29T21:44:31.693Z</time>
      </trkpt>
      <trkpt lat="43.10748" lon="-0.44366">
        <ele>403.09</ele>
        <time>2024-05-29T21:44:38.289Z</time>
      </trkpt>
      <trkpt lat="43.10726" lon="-0.44339">
        <ele>403.48</ele>
        <time>2024-05-29T21:44:44.891Z</time>
      </trkpt>
      <trkpt lat="43.10713" lon="-0.44318">
        <ele>403.87</ele>
        <time>2024-05-29T21:44:51.497Z</time>
      </trkpt>
      <trkpt lat="43.10692" lon="-0.44264">
        <ele>404.3</ele>
        <time>2024-05-29T21:44:58.111Z</time>
      </trkpt>
      <trkpt lat="43.1068" lon="-0.44242">
        <ele>404.96</ele>
        <time>2024-05-29T21:45:04.729Z</time>
      </trkpt>
      <trkpt lat="43.10653" lon="-0.44206">
        <ele>405.87</ele>
        <time>2024-05-29T21:45:11.354Z</time>
      </trkpt>
      <trkpt lat="43.10575" lon="-0.44117">
        <ele>406.6</ele>
        <time>2024-05-29T21:45:17.998Z</time>
      </trkpt>
      <trkpt lat="43.10565" lon="-0.441">
        <ele>407.34</ele>
        <time>2024-05-29T21:45:24.645Z</time>
      </trkpt>
      <trkpt lat="43.10562" lon="-0.44079">
        <ele>408.15</ele>
        <time>2024-05-29T21:45:31.295Z</time>
      </trkpt>
      <trkpt lat="43.10564" lon="-0.44035">
        <ele>408.89</ele>
        <time>2024-05-29T21:45:37.951Z</time>
      </trkpt>
      <trkpt lat="43.10587" lon="-0.43888">
        <ele>409.87</ele>
        <time>2024-05-29T21:45:44.627Z</time>
      </trkpt>
      <trkpt lat="43.10588" lon="-0.43871">
        <ele>410.46</ele>
        <time>2024-05-29T21:45:51.305Z</time>
      </trkpt>
      <trkpt lat="43.10583" lon="-0.43854">
        <ele>411.1</ele>
        <time>2024-05-29T21:45:57.986Z</time>
      </trkpt>
      <trkpt lat="43.10571" lon="-0.43823">
        <ele>411.68</ele>
        <time>2024-05-29T21:46:04.672Z</time>
      </trkpt>
      <trkpt lat="43.10514" lon="-0.43738">
        <ele>412.18</ele>
        <time>2024-05-29T21:46:11.373Z</time>
      </trkpt>
      <trkpt lat="43.10498" lon="-0.43695">
        <ele>412.66</ele>
        <time>2024-05-29T21:46:18.081Z</time>
      </trkpt>
      <trkpt lat="43.1049" lon="-0.43665">
        <ele>413.01</ele>
        <time>2024-05-29T21:46:24.793Z</time>
      </trkpt>
      <trkpt lat="43.10479" lon="-0.43632">
        <ele>413.32</ele>
        <time>2024-05-29T21:46:31.510Z</time>
      </trkpt>
      <trkpt lat="43.10445" lon="-0.43543">
        <ele>413.59</ele>
        <time>2024-05-29T21:46:38.241Z</time>
      </trkpt>
      <trkpt lat="43.10397" lon="-0.43532">
        <ele>413.91</ele>
        <time>2024-05-29T21:46:44.981Z</time>
      </trkpt>
      <trkpt lat="43.10386" lon="-0.43525">
        <ele>414.23</ele>
        <time>2024-05-29T21:46:51.723Z</time>
      </trkpt>
      <trkpt lat="43.10367" lon="-0.43522">
        <ele>414.53</ele>
        <time>2024-05-29T21:46:58.469Z</time>
      </trkpt>
      <trkpt lat="43.10334" lon="-0.43507">
        <ele>414.86</ele>
        <time>2024-05-29T21:47:05.221Z</time>
      </trkpt>
      <trkpt lat="43.10308" lon="-0.43499">
        <ele>415.13</ele>
        <time>2024-05-29T21:47:11.978Z</time>
      </trkpt>
      <trkpt lat="43.10247" lon="-0.43489">
        <ele>415.49</ele>
        <time>2024-05-29T21:47:18.747Z</time>
      </trkpt>
      <trkpt lat="43.1019" lon="-0.43471">
        <ele>415.64</ele>
        <time>2024-05-29T21:47:25.527Z</time>
      </trkpt>
      <trkpt lat="43.10109" lon="-0.43423">
        <ele>415.68</ele>
        <time>2024-05-29T21:47:32.323Z</time>
      </trkpt>
      <trkpt lat="43.10089" lon="-0.43409">
        <ele>415.86</ele>
        <time>2024-05-29T21:47:39.123Z</time>
      </trkpt>
      <trkpt lat="43.1007" lon="-0.43384">
        <ele>416.08</ele>
        <time>2024-05-29T21:47:45.928Z</time>
      </trkpt>
      <trkpt lat="43.10064" lon="-0.43381">
        <ele>416.27</ele>
        <time>2024-05-29T21:47:52.734Z</time>
      </trkpt>
      <trkpt lat="43.10059" lon="-0.43375">
        <ele>416.46</ele>
        <time>2024-05-29T21:47:59.542Z</time>
      </trkpt>
      <trkpt lat="43.10055" lon="-0.43364">
        <ele>416.65</ele>
        <time>2024-05-29T21:48:06.351Z</time>
      </trkpt>
      <trkpt lat="43.10028" lon="-0.43346">
        <ele>416.83</ele>
        <time>2024-05-29T21:48:13.166Z</time>
      </trkpt>
      <trkpt lat="43.09923" lon="-0.43313">
        <ele>417.06</ele>
        <time>2024-05-29T21:48:20.001Z</time>
      </trkpt>
      <trkpt lat="43.09883" lon="-0.43303">
        <ele>417.36</ele>
        <time>2024-05-29T21:48:26.843Z</time>
      </trkpt>
      <trkpt lat="43.09679" lon="-0.43285">
        <ele>417.43</ele>
        <time>2024-05-29T21:48:33.723Z</time>
      </trkpt>
      <trkpt lat="43.09503" lon="-0.43273">
        <ele>417.53</ele>
        <time>2024-05-29T21:48:40.636Z</time>
      </trkpt>
      <trkpt lat="43.09454" lon="-0.43264">
        <ele>417.77</ele>
        <time>2024-05-29T21:48:47.558Z</time>
      </trkpt>
      <trkpt lat="43.09419" lon="-0.43253">
        <ele>417.97</ele>
        <time>2024-05-29T21:48:54.487Z</time>
      </trkpt>
      <trkpt lat="43.0937" lon="-0.4323">
        <ele>418.28</ele>
        <time>2024-05-29T21:49:01.426Z</time>
      </trkpt>
      <trkpt lat="43.09338" lon="-0.43212">
        <ele>418.54</ele>
        <time>2024-05-29T21:49:08.371Z</time>
      </trkpt>
      <trkpt lat="43.09296" lon="-0.43179">
        <ele>418.93</ele>
        <time>2024-05-29T21:49:15.325Z</time>
      </trkpt>
      <trkpt lat="43.09245" lon="-0.4313">
        <ele>419.3</ele>
        <time>2024-05-29T21:49:22.291Z</time>
      </trkpt>
      <trkpt lat="43.09211" lon="-0.43102">
        <ele>419.66</ele>
        <time>2024-05-29T21:49:29.264Z</time>
      </trkpt>
      <trkpt lat="43.09142" lon="-0.43055">
        <ele>419.84</ele>
        <time>2024-05-29T21:49:36.252Z</time>
      </trkpt>
      <trkpt lat="43.09103" lon="-0.43021">
        <ele>420.26</ele>
        <time>2024-05-29T21:49:43.248Z</time>
      </trkpt>
      <trkpt lat="43.09074" lon="-0.4299">
        <ele>420.63</ele>
        <time>2024-05-29T21:49:50.251Z</time>
      </trkpt>
      <trkpt lat="43.09048" lon="-0.42973">
        <ele>421.01</ele>
        <time>2024-05-29T21:49:57.259Z</time>
      </trkpt>
      <trkpt lat="43.09044" lon="-0.42974">
        <ele>421.41</ele>
        <time>2024-05-29T21:50:04.268Z</time>
      </trkpt>
      <trkpt lat="43.09036" lon="-0.42971">
        <ele>421.82</ele>
        <time>2024-05-29T21:50:11.279Z</time>
      </trkpt>
      <trkpt lat="43.09032" lon="-0.42966">
        <ele>422.24</ele>
        <time>2024-05-29T21:50:18.291Z</time>
      </trkpt>
      <trkpt lat="43.09029" lon="-0.42961">
        <ele>422.67</ele>
        <time>2024-05-29T21:50:25.304Z</time>
      </trkpt>
      <trkpt lat="43.09028" lon="-0.42954">
        <ele>423.1</ele>
        <time>2024-05-29T21:50:32.318Z</time>
      </trkpt>
      <trkpt lat="43.09028" lon="-0.42947">
        <ele>423.53</ele>
        <time>2024-05-29T21:50:39.332Z</time>
      </trkpt>
      <trkpt lat="43.0902" lon="-0.42918">
        <ele>423.99</ele>
        <time>2024-05-29T21:50:46.351Z</time>
      </trkpt>
      <trkpt lat="43.08993" lon="-0.42867">
        <ele>424.54</ele>
        <time>2024-05-29T21:50:53.378Z</time>
      </trkpt>
      <trkpt lat="43.08962" lon="-0.42794">
        <ele>425.18</ele>
        <time>2024-05-29T21:51:00.417Z</time>
      </trkpt>
      <trkpt lat="43.08931" lon="-0.42739">
        <ele>425.61</ele>
        <time>2024-05-29T21:51:07.465Z</time>
      </trkpt>
      <trkpt lat="43.08856" lon="-0.42646">
        <ele>426.22</ele>
        <time>2024-05-29T21:51:14.532Z</time>
      </trkpt>
      <trkpt lat="43.08821" lon="-0.42617">
        <ele>426.5</ele>
        <time>2024-05-29T21:51:21.607Z</time>
      </trkpt>
      <trkpt lat="43.0879" lon="-0.42599">
        <ele>426.9</ele>
        <time>2024-05-29T21:51:28.688Z</time>
      </trkpt>
      <trkpt lat="43.08753" lon="-0.42583">
        <ele>427.21</ele>
        <time>2024-05-29T21:51:35.776Z</time>
      </trkpt>
      <trkpt lat="43.08714" lon="-0.42575">
        <ele>427.5</ele>
        <time>2024-05-29T21:51:42.872Z</time>
      </trkpt>
      <trkpt lat="43.08653" lon="-0.42573">
        <ele>427.73</ele>
        <time>2024-05-29T21:51:49.979Z</time>
      </trkpt>
      <trkpt lat="43.08619" lon="-0.42566">
        <ele>427.59</ele>
        <time>2024-05-29T21:51:57.092Z</time>
      </trkpt>
      <trkpt lat="43.08594" lon="-0.42554">
        <ele>427.29</ele>
        <time>2024-05-29T21:52:04.210Z</time>
      </trkpt>
      <trkpt lat="43.08562" lon="-0.42531">
        <ele>427.16</ele>
        <time>2024-05-29T21:52:11.335Z</time>
      </trkpt>
      <trkpt lat="43.08538" lon="-0.42505">
        <ele>427.16</ele>
        <time>2024-05-29T21:52:18.466Z</time>
      </trkpt>
      <trkpt lat="43.08515" lon="-0.42468">
        <ele>427.25</ele>
        <time>2024-05-29T21:52:25.603Z</time>
      </trkpt>
      <trkpt lat="43.08502" lon="-0.42438">
        <ele>427.3</ele>
        <time>2024-05-29T21:52:32.745Z</time>
      </trkpt>
      <trkpt lat="43.0848" lon="-0.42395">
        <ele>427.32</ele>
        <time>2024-05-29T21:52:39.894Z</time>
      </trkpt>
      <trkpt lat="43.08474" lon="-0.42395">
        <ele>427.36</ele>
        <time>2024-05-29T21:52:47.044Z</time>
      </trkpt>
      <trkpt lat="43.08465" lon="-0.42388">
        <ele>427.42</ele>
        <time>2024-05-29T21:52:54.196Z</time>
      </trkpt>
      <trkpt lat="43.08461" lon="-0.42382">
        <ele>427.49</ele>
        <time>2024-05-29T21:53:01.349Z</time>
      </trkpt>
      <trkpt lat="43.08458" lon="-0.42366">
        <ele>427.61</ele>
        <time>2024-05-29T21:53:08.505Z</time>
      </trkpt>
      <trkpt lat="43.08436" lon="-0.42339">
        <ele>427.75</ele>
        <time>2024-05-29T21:53:15.666Z</time>
      </trkpt>
      <trkpt lat="43.08404" lon="-0.42317">
        <ele>427.88</ele>
        <time>2024-05-29T21:53:22.834Z</time>
      </trkpt>
      <trkpt lat="43.08205" lon="-0.42194">
        <ele>427.97</ele>
        <time>2024-05-29T21:53:30.042Z</time>
      </trkpt>
      <trkpt lat="43.08164" lon="-0.42174">
        <ele>428.17</ele>
        <time>2024-05-29T21:53:37.258Z</time>
      </trkpt>
      <trkpt lat="43.08124" lon="-0.42157">
        <ele>428.4</ele>
        <time>2024-05-29T21:53:44.482Z</time>
      </trkpt>
      <trkpt lat="43.08071" lon="-0.42143">
        <ele>428.71</ele>
        <time>2024-05-29T21:53:51.716Z</time>
      </trkpt>
      <trkpt lat="43.07914" lon="-0.42115">
        <ele>428.66</ele>
        <time>2024-05-29T21:53:58.980Z</time>
      </trkpt>
      <trkpt lat="43.07878" lon="-0.4211">
        <ele>428.7</ele>
        <time>2024-05-29T21:54:06.250Z</time>
      </trkpt>
      <trkpt lat="43.07841" lon="-0.4211">
        <ele>428.9</ele>
        <time>2024-05-29T21:54:13.527Z</time>
      </trkpt>
      <trkpt lat="43.07783" lon="-0.42118">
        <ele>428.96</ele>
        <time>2024-05-29T21:54:20.815Z</time>
      </trkpt>
      <trkpt lat="43.07712" lon="-0.42139">
        <ele>429.04</ele>
        <time>2024-05-29T21:54:28.117Z</time>
      </trkpt>
      <trkpt lat="43.07649" lon="-0.42149">
        <ele>429.19</ele>
        <time>2024-05-29T21:54:35.431Z</time>
      </trkpt>
      <trkpt lat="43.07614" lon="-0.42148">
        <ele>429.37</ele>
        <time>2024-05-29T21:54:42.751Z</time>
      </trkpt>
      <trkpt lat="43.07566" lon="-0.42142">
        <ele>429.34</ele>
        <time>2024-05-29T21:54:50.080Z</time>
      </trkpt>
      <trkpt lat="43.07507" lon="-0.42126">
        <ele>429.39</ele>
        <time>2024-05-29T21:54:57.420Z</time>
      </trkpt>
      <trkpt lat="43.07394" lon="-0.42103">
        <ele>429.25</ele>
        <time>2024-05-29T21:55:04.781Z</time>
      </trkpt>
      <trkpt lat="43.07358" lon="-0.42103">
        <ele>429.18</ele>
        <time>2024-05-29T21:55:12.149Z</time>
      </trkpt>
      <trkpt lat="43.07312" lon="-0.42115">
        <ele>428.91</ele>
        <time>2024-05-29T21:55:19.526Z</time>
      </trkpt>
      <trkpt lat="43.07247" lon="-0.42146">
        <ele>428.71</ele>
        <time>2024-05-29T21:55:26.916Z</time>
      </trkpt>
      <trkpt lat="43.0715" lon="-0.42221">
        <ele>428.78</ele>
        <time>2024-05-29T21:55:34.326Z</time>
      </trkpt>
      <trkpt lat="43.0712" lon="-0.42235">
        <ele>428.56</ele>
        <time>2024-05-29T21:55:41.742Z</time>
      </trkpt>
      <trkpt lat="43.07113" lon="-0.42237">
        <ele>428.31</ele>
        <time>2024-05-29T21:55:49.160Z</time>
      </trkpt>
      <trkpt lat="43.0709" lon="-0.42242">
        <ele>428</ele>
        <time>2024-05-29T21:55:56.582Z</time>
      </trkpt>
      <trkpt lat="43.07044" lon="-0.42241">
        <ele>427.65</ele>
        <time>2024-05-29T21:56:04.012Z</time>
      </trkpt>
      <trkpt lat="43.06966" lon="-0.42228">
        <ele>427.48</ele>
        <time>2024-05-29T21:56:11.457Z</time>
      </trkpt>
      <trkpt lat="43.06928" lon="-0.42227">
        <ele>427.31</ele>
        <time>2024-05-29T21:56:18.909Z</time>
      </trkpt>
      <trkpt lat="43.0688" lon="-0.42234">
        <ele>427.04</ele>
        <time>2024-05-29T21:56:26.370Z</time>
      </trkpt>
      <trkpt lat="43.06851" lon="-0.42247">
        <ele>426.62</ele>
        <time>2024-05-29T21:56:33.837Z</time>
      </trkpt>
      <trkpt lat="43.06821" lon="-0.42263">
        <ele>426.28</ele>
        <time>2024-05-29T21:56:41.310Z</time>
      </trkpt>
      <trkpt lat="43.06679" lon="-0.42363">
        <ele>426.39</ele>
        <time>2024-05-29T21:56:48.813Z</time>
      </trkpt>
      <trkpt lat="43.0663" lon="-0.42386">
        <ele>426.28</ele>
        <time>2024-05-29T21:56:56.325Z</time>
      </trkpt>
      <trkpt lat="43.06432" lon="-0.42435">
        <ele>426.17</ele>
        <time>2024-05-29T21:57:03.875Z</time>
      </trkpt>
      <trkpt lat="43.06364" lon="-0.42443">
        <ele>426.15</ele>
        <time>2024-05-29T21:57:11.437Z</time>
      </trkpt>
      <trkpt lat="43.06336" lon="-0.42448">
        <ele>426.18</ele>
        <time>2024-05-29T21:57:19.005Z</time>
      </trkpt>
      <trkpt lat="43.06297" lon="-0.42465">
        <ele>426.39</ele>
        <time>2024-05-29T21:57:26.580Z</time>
      </trkpt>
      <trkpt lat="43.06201" lon="-0.42526">
        <ele>426.79</ele>
        <time>2024-05-29T21:57:34.175Z</time>
      </trkpt>
      <trkpt lat="43.0617" lon="-0.4255">
        <ele>427.31</ele>
        <time>2024-05-29T21:57:41.777Z</time>
      </trkpt>
      <trkpt lat="43.06147" lon="-0.42572">
        <ele>427.91</ele>
        <time>2024-05-29T21:57:49.384Z</time>
      </trkpt>
      <trkpt lat="43.06084" lon="-0.42643">
        <ele>428.71</ele>
        <time>2024-05-29T21:57:57.006Z</time>
      </trkpt>
      <trkpt lat="43.06053" lon="-0.4267">
        <ele>429.59</ele>
        <time>2024-05-29T21:58:04.635Z</time>
      </trkpt>
      <trkpt lat="43.06019" lon="-0.42696">
        <ele>430.63</ele>
        <time>2024-05-29T21:58:12.271Z</time>
      </trkpt>
      <trkpt lat="43.06011" lon="-0.42709">
        <ele>431.75</ele>
        <time>2024-05-29T21:58:19.909Z</time>
      </trkpt>
      <trkpt lat="43.06008" lon="-0.42717">
        <ele>433</ele>
        <time>2024-05-29T21:58:27.549Z</time>
      </trkpt>
      <trkpt lat="43.06003" lon="-0.42723">
        <ele>434.39</ele>
        <time>2024-05-29T21:58:35.190Z</time>
      </trkpt>
      <trkpt lat="43.05997" lon="-0.42727">
        <ele>435.94</ele>
        <time>2024-05-29T21:58:42.832Z</time>
      </trkpt>
      <trkpt lat="43.0598" lon="-0.42765">
        <ele>437.69</ele>
        <time>2024-05-29T21:58:50.480Z</time>
      </trkpt>
      <trkpt lat="43.05971" lon="-0.42775">
        <ele>439.59</ele>
        <time>2024-05-29T21:58:58.130Z</time>
      </trkpt>
      <trkpt lat="43.0596" lon="-0.42794">
        <ele>441.66</ele>
        <time>2024-05-29T21:59:05.784Z</time>
      </trkpt>
      <trkpt lat="43.05776" lon="-0.42965">
        <ele>444.22</ele>
        <time>2024-05-29T21:59:13.479Z</time>
      </trkpt>
      <trkpt lat="43.05777" lon="-0.43001">
        <ele>446.62</ele>
        <time>2024-05-29T21:59:21.179Z</time>
      </trkpt>
      <trkpt lat="43.05795" lon="-0.43039">
        <ele>449.13</ele>
        <time>2024-05-29T21:59:28.885Z</time>
      </trkpt>
      <trkpt lat="43.05802" lon="-0.43064">
        <ele>451.77</ele>
        <time>2024-05-29T21:59:36.595Z</time>
      </trkpt>
      <trkpt lat="43.05807" lon="-0.43111">
        <ele>454.6</ele>
        <time>2024-05-29T21:59:44.311Z</time>
      </trkpt>
      <trkpt lat="43.05812" lon="-0.43233">
        <ele>457.76</ele>
        <time>2024-05-29T21:59:52.044Z</time>
      </trkpt>
      <trkpt lat="43.0581" lon="-0.43321">
        <ele>460.93</ele>
        <time>2024-05-29T21:59:59.789Z</time>
      </trkpt>
      <trkpt lat="43.05799" lon="-0.43487">
        <ele>464.34</ele>
        <time>2024-05-29T22:00:07.557Z</time>
      </trkpt>
      <trkpt lat="43.05787" lon="-0.43538">
        <ele>467.82</ele>
        <time>2024-05-29T22:00:15.332Z</time>
      </trkpt>
      <trkpt lat="43.05748" lon="-0.43627">
        <ele>472.46</ele>
        <time>2024-05-29T22:00:23.121Z</time>
      </trkpt>
      <trkpt lat="43.05731" lon="-0.43671">
        <ele>475.91</ele>
        <time>2024-05-29T22:00:30.917Z</time>
      </trkpt>
      <trkpt lat="43.05724" lon="-0.43693">
        <ele>479.19</ele>
        <time>2024-05-29T22:00:38.716Z</time>
      </trkpt>
      <trkpt lat="43.05722" lon="-0.43705">
        <ele>482.62</ele>
        <time>2024-05-29T22:00:46.517Z</time>
      </trkpt>
      <trkpt lat="43.0572" lon="-0.43742">
        <ele>485.96</ele>
        <time>2024-05-29T22:00:54.323Z</time>
      </trkpt>
      <trkpt lat="43.05724" lon="-0.43784">
        <ele>489.59</ele>
        <time>2024-05-29T22:01:02.135Z</time>
      </trkpt>
      <trkpt lat="43.05745" lon="-0.43887">
        <ele>493.59</ele>
        <time>2024-05-29T22:01:09.961Z</time>
      </trkpt>
      <trkpt lat="43.05751" lon="-0.4395">
        <ele>497.54</ele>
        <time>2024-05-29T22:01:17.796Z</time>
      </trkpt>
      <trkpt lat="43.05757" lon="-0.43974">
        <ele>501.35</ele>
        <time>2024-05-29T22:01:25.634Z</time>
      </trkpt>
      <trkpt lat="43.05762" lon="-0.43981">
        <ele>505.06</ele>
        <time>2024-05-29T22:01:33.474Z</time>
      </trkpt>
      <trkpt lat="43.05769" lon="-0.43988">
        <ele>508.8</ele>
        <time>2024-05-29T22:01:41.315Z</time>
      </trkpt>
      <trkpt lat="43.05785" lon="-0.43993">
        <ele>512.63</ele>
        <time>2024-05-29T22:01:49.159Z</time>
      </trkpt>
      <trkpt lat="43.0579" lon="-0.43992">
        <ele>516.31</ele>
        <time>2024-05-29T22:01:57.004Z</time>
      </trkpt>
      <trkpt lat="43.05804" lon="-0.43984">
        <ele>520.08</ele>
        <time>2024-05-29T22:02:04.852Z</time>
      </trkpt>
      <trkpt lat="43.05847" lon="-0.43933">
        <ele>524.1</ele>
        <time>2024-05-29T22:02:12.711Z</time>
      </trkpt>
      <trkpt lat="43.05875" lon="-0.43892">
        <ele>527.9</ele>
        <time>2024-05-29T22:02:20.577Z</time>
      </trkpt>
      <trkpt lat="43.05899" lon="-0.43838">
        <ele>531.41</ele>
        <time>2024-05-29T22:02:28.452Z</time>
      </trkpt>
      <trkpt lat="43.05913" lon="-0.43821">
        <ele>534.94</ele>
        <time>2024-05-29T22:02:36.330Z</time>
      </trkpt>
      <trkpt lat="43.05939" lon="-0.43811">
        <ele>538.61</ele>
        <time>2024-05-29T22:02:44.214Z</time>
      </trkpt>
      <trkpt lat="43.06052" lon="-0.43793">
        <ele>542.71</ele>
        <time>2024-05-29T22:02:52.119Z</time>
      </trkpt>
      <trkpt lat="43.06085" lon="-0.43792">
        <ele>546.35</ele>
        <time>2024-05-29T22:03:00.030Z</time>
      </trkpt>
      <trkpt lat="43.06105" lon="-0.4379">
        <ele>549.73</ele>
        <time>2024-05-29T22:03:07.945Z</time>
      </trkpt>
      <trkpt lat="43.06124" lon="-0.43782">
        <ele>552.94</ele>
        <time>2024-05-29T22:03:15.863Z</time>
      </trkpt>
      <trkpt lat="43.0615" lon="-0.43761">
        <ele>556.06</ele>
        <time>2024-05-29T22:03:23.787Z</time>
      </trkpt>
      <trkpt lat="43.0616" lon="-0.43756">
        <ele>559.09</ele>
        <time>2024-05-29T22:03:31.713Z</time>
      </trkpt>
      <trkpt lat="43.06169" lon="-0.43761">
        <ele>562.13</ele>
        <time>2024-05-29T22:03:39.641Z</time>
      </trkpt>
      <trkpt lat="43.06172" lon="-0.43767">
        <ele>565.02</ele>
        <time>2024-05-29T22:03:47.570Z</time>
      </trkpt>
      <trkpt lat="43.06172" lon="-0.43774">
        <ele>567.81</ele>
        <time>2024-05-29T22:03:55.500Z</time>
      </trkpt>
      <trkpt lat="43.06167" lon="-0.43787">
        <ele>570.51</ele>
        <time>2024-05-29T22:04:03.432Z</time>
      </trkpt>
      <trkpt lat="43.06148" lon="-0.43808">
        <ele>573.06</ele>
        <time>2024-05-29T22:04:11.368Z</time>
      </trkpt>
      <trkpt lat="43.06119" lon="-0.43849">
        <ele>575.67</ele>
        <time>2024-05-29T22:04:19.312Z</time>
      </trkpt>
      <trkpt lat="43.06064" lon="-0.43908">
        <ele>578.5</ele>
        <time>2024-05-29T22:04:27.269Z</time>
      </trkpt>
      <trkpt lat="43.06054" lon="-0.43921">
        <ele>580.89</ele>
        <time>2024-05-29T22:04:35.229Z</time>
      </trkpt>
      <trkpt lat="43.06043" lon="-0.43947">
        <ele>583.2</ele>
        <time>2024-05-29T22:04:43.193Z</time>
      </trkpt>
      <trkpt lat="43.06041" lon="-0.4396">
        <ele>585.48</ele>
        <time>2024-05-29T22:04:51.158Z</time>
      </trkpt>
      <trkpt lat="43.06036" lon="-0.44018">
        <ele>587.94</ele>
        <time>2024-05-29T22:04:59.131Z</time>
      </trkpt>
      <trkpt lat="43.06038" lon="-0.44035">
        <ele>590.24</ele>
        <time>2024-05-29T22:05:07.107Z</time>
      </trkpt>
      <trkpt lat="43.0605" lon="-0.44088">
        <ele>592.65</ele>
        <time>2024-05-29T22:05:15.090Z</time>
      </trkpt>
      <trkpt lat="43.06056" lon="-0.44117">
        <ele>594.89</ele>
        <time>2024-05-29T22:05:23.077Z</time>
      </trkpt>
      <trkpt lat="43.06056" lon="-0.4414">
        <ele>597.07</ele>
        <time>2024-05-29T22:05:31.068Z</time>
      </trkpt>
      <trkpt lat="43.06053" lon="-0.44176">
        <ele>599.34</ele>
        <time>2024-05-29T22:05:39.063Z</time>
      </trkpt>
      <trkpt lat="43.06055" lon="-0.44215">
        <ele>601.66</ele>
        <time>2024-05-29T22:05:47.064Z</time>
      </trkpt>
      <trkpt lat="43.06046" lon="-0.44275">
        <ele>603.7</ele>
        <time>2024-05-29T22:05:55.073Z</time>
      </trkpt>
      <trkpt lat="43.06046" lon="-0.44288">
        <ele>605.67</ele>
        <time>2024-05-29T22:06:03.084Z</time>
      </trkpt>
      <trkpt lat="43.06049" lon="-0.44302">
        <ele>607.64</ele>
        <time>2024-05-29T22:06:11.097Z</time>
      </trkpt>
      <trkpt lat="43.06061" lon="-0.44347">
        <ele>609.8</ele>
        <time>2024-05-29T22:06:19.116Z</time>
      </trkpt>
      <trkpt lat="43.06062" lon="-0.44358">
        <ele>611.72</ele>
        <time>2024-05-29T22:06:27.137Z</time>
      </trkpt>
      <trkpt lat="43.0606" lon="-0.44406">
        <ele>613.76</ele>
        <time>2024-05-29T22:06:35.165Z</time>
      </trkpt>
      <trkpt lat="43.06064" lon="-0.44457">
        <ele>615.88</ele>
        <time>2024-05-29T22:06:43.200Z</time>
      </trkpt>
      <trkpt lat="43.06063" lon="-0.4447">
        <ele>617.74</ele>
        <time>2024-05-29T22:06:51.236Z</time>
      </trkpt>
      <trkpt lat="43.0606" lon="-0.44495">
        <ele>619.53</ele>
        <time>2024-05-29T22:06:59.276Z</time>
      </trkpt>
      <trkpt lat="43.06062" lon="-0.44507">
        <ele>621.32</ele>
        <time>2024-05-29T22:07:07.317Z</time>
      </trkpt>
      <trkpt lat="43.06067" lon="-0.4451">
        <ele>623.14</ele>
        <time>2024-05-29T22:07:15.359Z</time>
      </trkpt>
      <trkpt lat="43.0607" lon="-0.44511">
        <ele>624.93</ele>
        <time>2024-05-29T22:07:23.402Z</time>
      </trkpt>
      <trkpt lat="43.06075" lon="-0.44509">
        <ele>626.74</ele>
        <time>2024-05-29T22:07:31.446Z</time>
      </trkpt>
      <trkpt lat="43.0608" lon="-0.44504">
        <ele>628.55</ele>
        <time>2024-05-29T22:07:39.491Z</time>
      </trkpt>
      <trkpt lat="43.06084" lon="-0.44496">
        <ele>630.36</ele>
        <time>2024-05-29T22:07:47.537Z</time>
      </trkpt>
      <trkpt lat="43.06097" lon="-0.44462">
        <ele>632.17</ele>
        <time>2024-05-29T22:07:55.589Z</time>
      </trkpt>
      <trkpt lat="43.06108" lon="-0.44439">
        <ele>634.04</ele>
        <time>2024-05-29T22:08:03.644Z</time>
      </trkpt>
      <trkpt lat="43.06134" lon="-0.44406">
        <ele>636.09</ele>
        <time>2024-05-29T22:08:11.706Z</time>
      </trkpt>
      <trkpt lat="43.06154" lon="-0.44372">
        <ele>638.19</ele>
        <time>2024-05-29T22:08:19.774Z</time>
      </trkpt>
      <trkpt lat="43.06171" lon="-0.44337">
        <ele>640.41</ele>
        <time>2024-05-29T22:08:27.848Z</time>
      </trkpt>
      <trkpt lat="43.06184" lon="-0.44301">
        <ele>642.65</ele>
        <time>2024-05-29T22:08:35.927Z</time>
      </trkpt>
      <trkpt lat="43.06207" lon="-0.44208">
        <ele>645.04</ele>
        <time>2024-05-29T22:08:44.020Z</time>
      </trkpt>
      <trkpt lat="43.06233" lon="-0.4412">
        <ele>647.68</ele>
        <time>2024-05-29T22:08:52.126Z</time>
      </trkpt>
      <trkpt lat="43.06234" lon="-0.44107">
        <ele>649.95</ele>
        <time>2024-05-29T22:09:00.233Z</time>
      </trkpt>
      <trkpt lat="43.06234" lon="-0.44056">
        <ele>652.22</ele>
        <time>2024-05-29T22:09:08.347Z</time>
      </trkpt>
      <trkpt lat="43.06238" lon="-0.44042">
        <ele>654.72</ele>
        <time>2024-05-29T22:09:16.463Z</time>
      </trkpt>
      <trkpt lat="43.06247" lon="-0.44034">
        <ele>657.42</ele>
        <time>2024-05-29T22:09:24.581Z</time>
      </trkpt>
      <trkpt lat="43.06251" lon="-0.44034">
        <ele>660.15</ele>
        <time>2024-05-29T22:09:32.700Z</time>
      </trkpt>
      <trkpt lat="43.06258" lon="-0.44038">
        <ele>663.03</ele>
        <time>2024-05-29T22:09:40.820Z</time>
      </trkpt>
      <trkpt lat="43.06262" lon="-0.44042">
        <ele>665.91</ele>
        <time>2024-05-29T22:09:48.941Z</time>
      </trkpt>
      <trkpt lat="43.06264" lon="-0.44051">
        <ele>668.84</ele>
        <time>2024-05-29T22:09:57.064Z</time>
      </trkpt>
      <trkpt lat="43.06264" lon="-0.44059">
        <ele>671.81</ele>
        <time>2024-05-29T22:10:05.188Z</time>
      </trkpt>
      <trkpt lat="43.06256" lon="-0.44085">
        <ele>674.73</ele>
        <time>2024-05-29T22:10:13.316Z</time>
      </trkpt>
      <trkpt lat="43.06254" lon="-0.44103">
        <ele>677.88</ele>
        <time>2024-05-29T22:10:21.446Z</time>
      </trkpt>
      <trkpt lat="43.06261" lon="-0.4418">
        <ele>681.53</ele>
        <time>2024-05-29T22:10:29.587Z</time>
      </trkpt>
      <trkpt lat="43.06262" lon="-0.44362">
        <ele>685.23</ele>
        <time>2024-05-29T22:10:37.753Z</time>
      </trkpt>
      <trkpt lat="43.06264" lon="-0.44435">
        <ele>688.77</ele>
        <time>2024-05-29T22:10:45.928Z</time>
      </trkpt>
      <trkpt lat="43.06257" lon="-0.44578">
        <ele>692.67</ele>
        <time>2024-05-29T22:10:54.123Z</time>
      </trkpt>
      <trkpt lat="43.06258" lon="-0.44607">
        <ele>696.11</ele>
        <time>2024-05-29T22:11:02.322Z</time>
      </trkpt>
      <trkpt lat="43.06263" lon="-0.44643">
        <ele>699.73</ele>
        <time>2024-05-29T22:11:10.526Z</time>
      </trkpt>
      <trkpt lat="43.0628" lon="-0.44738">
        <ele>702.95</ele>
        <time>2024-05-29T22:11:18.743Z</time>
      </trkpt>
      <trkpt lat="43.0629" lon="-0.44782">
        <ele>706.47</ele>
        <time>2024-05-29T22:11:26.967Z</time>
      </trkpt>
      <trkpt lat="43.06293" lon="-0.44801">
        <ele>709.76</ele>
        <time>2024-05-29T22:11:35.193Z</time>
      </trkpt>
      <trkpt lat="43.06296" lon="-0.44884">
        <ele>713.24</ele>
        <time>2024-05-29T22:11:43.431Z</time>
      </trkpt>
      <trkpt lat="43.06301" lon="-0.4492">
        <ele>716.69</ele>
        <time>2024-05-29T22:11:51.674Z</time>
      </trkpt>
      <trkpt lat="43.06301" lon="-0.44936">
        <ele>719.89</ele>
        <time>2024-05-29T22:11:59.919Z</time>
      </trkpt>
      <trkpt lat="43.06293" lon="-0.45038">
        <ele>722.93</ele>
        <time>2024-05-29T22:12:08.178Z</time>
      </trkpt>
      <trkpt lat="43.0629" lon="-0.45056">
        <ele>726.04</ele>
        <time>2024-05-29T22:12:16.439Z</time>
      </trkpt>
      <trkpt lat="43.06286" lon="-0.45069">
        <ele>729.09</ele>
        <time>2024-05-29T22:12:24.702Z</time>
      </trkpt>
      <trkpt lat="43.06226" lon="-0.45193">
        <ele>732.29</ele>
        <time>2024-05-29T22:12:32.985Z</time>
      </trkpt>
      <trkpt lat="43.06207" lon="-0.45224">
        <ele>735.43</ele>
        <time>2024-05-29T22:12:41.274Z</time>
      </trkpt>
      <trkpt lat="43.06186" lon="-0.45247">
        <ele>738.34</ele>
        <time>2024-05-29T22:12:49.568Z</time>
      </trkpt>
      <trkpt lat="43.06084" lon="-0.45322">
        <ele>741.54</ele>
        <time>2024-05-29T22:12:57.884Z</time>
      </trkpt>
      <trkpt lat="43.0605" lon="-0.4534">
        <ele>744.38</ele>
        <time>2024-05-29T22:13:06.206Z</time>
      </trkpt>
      <trkpt lat="43.06023" lon="-0.45351">
        <ele>747.08</ele>
        <time>2024-05-29T22:13:14.534Z</time>
      </trkpt>
      <trkpt lat="43.0601" lon="-0.45362">
        <ele>749.73</ele>
        <time>2024-05-29T22:13:22.864Z</time>
      </trkpt>
      <trkpt lat="43.06005" lon="-0.45369">
        <ele>752.31</ele>
        <time>2024-05-29T22:13:31.196Z</time>
      </trkpt>
      <trkpt lat="43.05983" lon="-0.45412">
        <ele>755.08</ele>
        <time>2024-05-29T22:13:39.535Z</time>
      </trkpt>
      <trkpt lat="43.0597" lon="-0.45426">
        <ele>757.56</ele>
        <time>2024-05-29T22:13:47.877Z</time>
      </trkpt>
      <trkpt lat="43.05964" lon="-0.45428">
        <ele>759.92</ele>
        <time>2024-05-29T22:13:56.220Z</time>
      </trkpt>
      <trkpt lat="43.05956" lon="-0.45432">
        <ele>762.26</ele>
        <time>2024-05-29T22:14:04.565Z</time>
      </trkpt>
      <trkpt lat="43.05939" lon="-0.45432">
        <ele>764.55</ele>
        <time>2024-05-29T22:14:12.913Z</time>
      </trkpt>
      <trkpt lat="43.05896" lon="-0.45425">
        <ele>766.78</ele>
        <time>2024-05-29T22:14:21.269Z</time>
      </trkpt>
      <trkpt lat="43.05876" lon="-0.45428">
        <ele>769.07</ele>
        <time>2024-05-29T22:14:29.629Z</time>
      </trkpt>
      <trkpt lat="43.05861" lon="-0.45436">
        <ele>771.33</ele>
        <time>2024-05-29T22:14:37.992Z</time>
      </trkpt>
      <trkpt lat="43.05857" lon="-0.45443">
        <ele>773.65</ele>
        <time>2024-05-29T22:14:46.356Z</time>
      </trkpt>
      <trkpt lat="43.05855" lon="-0.45451">
        <ele>775.97</ele>
        <time>2024-05-29T22:14:54.721Z</time>
      </trkpt>
      <trkpt lat="43.05856" lon="-0.45461">
        <ele>778.34</ele>
        <time>2024-05-29T22:15:03.087Z</time>
      </trkpt>
      <trkpt lat="43.05858" lon="-0.45467">
        <ele>780.72</ele>
        <time>2024-05-29T22:15:11.454Z</time>
      </trkpt>
      <trkpt lat="43.05862" lon="-0.45473">
        <ele>783.15</ele>
        <time>2024-05-29T22:15:19.822Z</time>
      </trkpt>
      <trkpt lat="43.05868" lon="-0.45475">
        <ele>785.59</ele>
        <time>2024-05-29T22:15:28.192Z</time>
      </trkpt>
      <trkpt lat="43.05891" lon="-0.45477">
        <ele>788.06</ele>
        <time>2024-05-29T22:15:36.566Z</time>
      </trkpt>
      <trkpt lat="43.05918" lon="-0.45492">
        <ele>790.7</ele>
        <time>2024-05-29T22:15:44.945Z</time>
      </trkpt>
      <trkpt lat="43.05957" lon="-0.45503">
        <ele>793.41</ele>
        <time>2024-05-29T22:15:53.332Z</time>
      </trkpt>
      <trkpt lat="43.06072" lon="-0.45556">
        <ele>796.79</ele>
        <time>2024-05-29T22:16:01.741Z</time>
      </trkpt>
      <trkpt lat="43.06086" lon="-0.4556">
        <ele>799.31</ele>
        <time>2024-05-29T22:16:10.153Z</time>
      </trkpt>
      <trkpt lat="43.0619" lon="-0.45571">
        <ele>802.04</ele>
        <time>2024-05-29T22:16:18.584Z</time>
      </trkpt>
      <trkpt lat="43.06206" lon="-0.4558">
        <ele>804.52</ele>
        <time>2024-05-29T22:16:27.019Z</time>
      </trkpt>
      <trkpt lat="43.06212" lon="-0.4559">
        <ele>806.98</ele>
        <time>2024-05-29T22:16:35.455Z</time>
      </trkpt>
      <trkpt lat="43.06218" lon="-0.45604">
        <ele>809.42</ele>
        <time>2024-05-29T22:16:43.894Z</time>
      </trkpt>
      <trkpt lat="43.06218" lon="-0.45614">
        <ele>811.79</ele>
        <time>2024-05-29T22:16:52.334Z</time>
      </trkpt>
      <trkpt lat="43.06214" lon="-0.45634">
        <ele>814.12</ele>
        <time>2024-05-29T22:17:00.777Z</time>
      </trkpt>
      <trkpt lat="43.0621" lon="-0.45646">
        <ele>816.39</ele>
        <time>2024-05-29T22:17:09.221Z</time>
      </trkpt>
      <trkpt lat="43.06196" lon="-0.45666">
        <ele>818.69</ele>
        <time>2024-05-29T22:17:17.669Z</time>
      </trkpt>
      <trkpt lat="43.06159" lon="-0.45694">
        <ele>821.05</ele>
        <time>2024-05-29T22:17:26.125Z</time>
      </trkpt>
      <trkpt lat="43.06153" lon="-0.45705">
        <ele>823.19</ele>
        <time>2024-05-29T22:17:34.583Z</time>
      </trkpt>
      <trkpt lat="43.06152" lon="-0.45714">
        <ele>825.26</ele>
        <time>2024-05-29T22:17:43.042Z</time>
      </trkpt>
      <trkpt lat="43.06153" lon="-0.45721">
        <ele>827.29</ele>
        <time>2024-05-29T22:17:51.502Z</time>
      </trkpt>
      <trkpt lat="43.0616" lon="-0.45729">
        <ele>829.28</ele>
        <time>2024-05-29T22:17:59.964Z</time>
      </trkpt>
      <trkpt lat="43.0618" lon="-0.45751">
        <ele>831.41</ele>
        <time>2024-05-29T22:18:08.431Z</time>
      </trkpt>
      <trkpt lat="43.06196" lon="-0.45759">
        <ele>833.36</ele>
        <time>2024-05-29T22:18:16.901Z</time>
      </trkpt>
      <trkpt lat="43.06237" lon="-0.45761">
        <ele>835.11</ele>
        <time>2024-05-29T22:18:25.379Z</time>
      </trkpt>
      <trkpt lat="43.06254" lon="-0.45767">
        <ele>836.96</ele>
        <time>2024-05-29T22:18:33.860Z</time>
      </trkpt>
      <trkpt lat="43.06282" lon="-0.45785">
        <ele>838.82</ele>
        <time>2024-05-29T22:18:42.347Z</time>
      </trkpt>
      <trkpt lat="43.06295" lon="-0.45788">
        <ele>840.57</ele>
        <time>2024-05-29T22:18:50.836Z</time>
      </trkpt>
      <trkpt lat="43.06309" lon="-0.45786">
        <ele>842.36</ele>
        <time>2024-05-29T22:18:59.328Z</time>
      </trkpt>
      <trkpt lat="43.06333" lon="-0.45775">
        <ele>844.19</ele>
        <time>2024-05-29T22:19:07.824Z</time>
      </trkpt>
      <trkpt lat="43.06343" lon="-0.45775">
        <ele>845.94</ele>
        <time>2024-05-29T22:19:16.322Z</time>
      </trkpt>
      <trkpt lat="43.06352" lon="-0.45779">
        <ele>847.67</ele>
        <time>2024-05-29T22:19:24.822Z</time>
      </trkpt>
      <trkpt lat="43.06377" lon="-0.45801">
        <ele>849.38</ele>
        <time>2024-05-29T22:19:33.327Z</time>
      </trkpt>
      <trkpt lat="43.06392" lon="-0.45809">
        <ele>851.03</ele>
        <time>2024-05-29T22:19:41.835Z</time>
      </trkpt>
      <trkpt lat="43.06429" lon="-0.45816">
        <ele>852.81</ele>
        <time>2024-05-29T22:19:50.350Z</time>
      </trkpt>
      <trkpt lat="43.06457" lon="-0.45827">
        <ele>854.63</ele>
        <time>2024-05-29T22:19:58.871Z</time>
      </trkpt>
      <trkpt lat="43.06469" lon="-0.45835">
        <ele>856.28</ele>
        <time>2024-05-29T22:20:07.394Z</time>
      </trkpt>
      <trkpt lat="43.06511" lon="-0.45874">
        <ele>858</ele>
        <time>2024-05-29T22:20:15.927Z</time>
      </trkpt>
      <trkpt lat="43.06539" lon="-0.45886">
        <ele>859.74</ele>
        <time>2024-05-29T22:20:24.465Z</time>
      </trkpt>
      <trkpt lat="43.06543" lon="-0.4589">
        <ele>861.23</ele>
        <time>2024-05-29T22:20:33.004Z</time>
      </trkpt>
      <trkpt lat="43.06548" lon="-0.45896">
        <ele>862.65</ele>
        <time>2024-05-29T22:20:41.544Z</time>
      </trkpt>
      <trkpt lat="43.0656" lon="-0.4593">
        <ele>863.98</ele>
        <time>2024-05-29T22:20:50.090Z</time>
      </trkpt>
      <trkpt lat="43.06569" lon="-0.45947">
        <ele>865.34</ele>
        <time>2024-05-29T22:20:58.638Z</time>
      </trkpt>
      <trkpt lat="43.06589" lon="-0.45965">
        <ele>866.76</ele>
        <time>2024-05-29T22:21:07.191Z</time>
      </trkpt>
      <trkpt lat="43.06613" lon="-0.45981">
        <ele>868.27</ele>
        <time>2024-05-29T22:21:15.749Z</time>
      </trkpt>
      <trkpt lat="43.06623" lon="-0.45992">
        <ele>869.45</ele>
        <time>2024-05-29T22:21:24.309Z</time>
      </trkpt>
      <trkpt lat="43.06627" lon="-0.46002">
        <ele>870.44</ele>
        <time>2024-05-29T22:21:32.871Z</time>
      </trkpt>
      <trkpt lat="43.06629" lon="-0.46012">
        <ele>871.32</ele>
        <time>2024-05-29T22:21:41.434Z</time>
      </trkpt>
      <trkpt lat="43.06632" lon="-0.46131">
        <ele>872.3</ele>
        <time>2024-05-29T22:21:50.013Z</time>
      </trkpt>
      <trkpt lat="43.06629" lon="-0.4615">
        <ele>873.01</ele>
        <time>2024-05-29T22:21:58.595Z</time>
      </trkpt>
      <trkpt lat="43.06616" lon="-0.46179">
        <ele>873.55</ele>
        <time>2024-05-29T22:22:07.182Z</time>
      </trkpt>
      <trkpt lat="43.06595" lon="-0.46249">
        <ele>874.2</ele>
        <time>2024-05-29T22:22:15.779Z</time>
      </trkpt>
      <trkpt lat="43.06572" lon="-0.463">
        <ele>874.43</ele>
        <time>2024-05-29T22:22:24.384Z</time>
      </trkpt>
      <trkpt lat="43.06562" lon="-0.4633">
        <ele>874.72</ele>
        <time>2024-05-29T22:22:32.994Z</time>
      </trkpt>
      <trkpt lat="43.0655" lon="-0.46375">
        <ele>874.96</ele>
        <time>2024-05-29T22:22:41.610Z</time>
      </trkpt>
      <trkpt lat="43.06538" lon="-0.46402">
        <ele>874.99</ele>
        <time>2024-05-29T22:22:50.231Z</time>
      </trkpt>
      <trkpt lat="43.06536" lon="-0.46409">
        <ele>874.98</ele>
        <time>2024-05-29T22:22:58.853Z</time>
      </trkpt>
      <trkpt lat="43.06534" lon="-0.46511">
        <ele>875.08</ele>
        <time>2024-05-29T22:23:07.488Z</time>
      </trkpt>
      <trkpt lat="43.06543" lon="-0.4655">
        <ele>874.95</ele>
        <time>2024-05-29T22:23:16.129Z</time>
      </trkpt>
      <trkpt lat="43.06546" lon="-0.46582">
        <ele>874.72</ele>
        <time>2024-05-29T22:23:24.774Z</time>
      </trkpt>
      <trkpt lat="43.0654" lon="-0.46708">
        <ele>874.33</ele>
        <time>2024-05-29T22:23:33.437Z</time>
      </trkpt>
      <trkpt lat="43.06533" lon="-0.46843">
        <ele>873.87</ele>
        <time>2024-05-29T22:23:42.118Z</time>
      </trkpt>
      <trkpt lat="43.06511" lon="-0.46941">
        <ele>873.27</ele>
        <time>2024-05-29T22:23:50.813Z</time>
      </trkpt>
      <trkpt lat="43.06506" lon="-0.46966">
        <ele>872.85</ele>
        <time>2024-05-29T22:23:59.512Z</time>
      </trkpt>
      <trkpt lat="43.06505" lon="-0.47003">
        <ele>872.45</ele>
        <time>2024-05-29T22:24:08.216Z</time>
      </trkpt>
      <trkpt lat="43.06507" lon="-0.47029">
        <ele>872.14</ele>
        <time>2024-05-29T22:24:16.923Z</time>
      </trkpt>
      <trkpt lat="43.06505" lon="-0.47047">
        <ele>871.85</ele>
        <time>2024-05-29T22:24:25.633Z</time>
      </trkpt>
      <trkpt lat="43.06501" lon="-0.47057">
        <ele>871.6</ele>
        <time>2024-05-29T22:24:34.344Z</time>
      </trkpt>
      <trkpt lat="43.06492" lon="-0.47068">
        <ele>871.41</ele>
        <time>2024-05-29T22:24:43.058Z</time>
      </trkpt>
      <trkpt lat="43.06438" lon="-0.47125">
        <ele>871.35</ele>
        <time>2024-05-29T22:24:51.784Z</time>
      </trkpt>
      <trkpt lat="43.06425" lon="-0.47142">
        <ele>871.33</ele>
        <time>2024-05-29T22:25:00.514Z</time>
      </trkpt>
      <trkpt lat="43.06414" lon="-0.47175">
        <ele>871.4</ele>
        <time>2024-05-29T22:25:09.249Z</time>
      </trkpt>
      <trkpt lat="43.06397" lon="-0.47241">
        <ele>871.58</ele>
        <time>2024-05-29T22:25:17.993Z</time>
      </trkpt>
      <trkpt lat="43.06373" lon="-0.47323">
        <ele>872</ele>
        <time>2024-05-29T22:25:26.749Z</time>
      </trkpt>
      <trkpt lat="43.06348" lon="-0.47377">
        <ele>872.43</ele>
        <time>2024-05-29T22:25:35.514Z</time>
      </trkpt>
      <trkpt lat="43.06333" lon="-0.47394">
        <ele>873.02</ele>
        <time>2024-05-29T22:25:44.282Z</time>
      </trkpt>
      <trkpt lat="43.06273" lon="-0.47421">
        <ele>873.89</ele>
        <time>2024-05-29T22:25:53.062Z</time>
      </trkpt>
      <trkpt lat="43.0627" lon="-0.47427">
        <ele>874.87</ele>
        <time>2024-05-29T22:26:01.843Z</time>
      </trkpt>
      <trkpt lat="43.06259" lon="-0.47448">
        <ele>876.02</ele>
        <time>2024-05-29T22:26:10.628Z</time>
      </trkpt>
      <trkpt lat="43.06229" lon="-0.47539">
        <ele>877.36</ele>
        <time>2024-05-29T22:26:19.426Z</time>
      </trkpt>
      <trkpt lat="43.06203" lon="-0.47633">
        <ele>878.98</ele>
        <time>2024-05-29T22:26:28.238Z</time>
      </trkpt>
      <trkpt lat="43.06171" lon="-0.47741">
        <ele>880.77</ele>
        <time>2024-05-29T22:26:37.066Z</time>
      </trkpt>
      <trkpt lat="43.06136" lon="-0.47826">
        <ele>882.76</ele>
        <time>2024-05-29T22:26:45.907Z</time>
      </trkpt>
      <trkpt lat="43.06123" lon="-0.47848">
        <ele>884.98</ele>
        <time>2024-05-29T22:26:54.752Z</time>
      </trkpt>
      <trkpt lat="43.06115" lon="-0.47864">
        <ele>887.41</ele>
        <time>2024-05-29T22:27:03.600Z</time>
      </trkpt>
      <trkpt lat="43.0611" lon="-0.47882">
        <ele>890.04</ele>
        <time>2024-05-29T22:27:12.450Z</time>
      </trkpt>
      <trkpt lat="43.06078" lon="-0.48024">
        <ele>892.92</ele>
        <time>2024-05-29T22:27:21.321Z</time>
      </trkpt>
      <trkpt lat="43.06069" lon="-0.48096">
        <ele>896.03</ele>
        <time>2024-05-29T22:27:30.202Z</time>
      </trkpt>
      <trkpt lat="43.06058" lon="-0.48206">
        <ele>899.3</ele>
        <time>2024-05-29T22:27:39.098Z</time>
      </trkpt>
      <trkpt lat="43.06002" lon="-0.48563">
        <ele>903.5</ele>
        <time>2024-05-29T22:27:48.043Z</time>
      </trkpt>
      <trkpt lat="43.0598" lon="-0.48626">
        <ele>907.17</ele>
        <time>2024-05-29T22:27:56.998Z</time>
      </trkpt>
      <trkpt lat="43.0596" lon="-0.4869">
        <ele>911.08</ele>
        <time>2024-05-29T22:28:05.962Z</time>
      </trkpt>
      <trkpt lat="43.05908" lon="-0.48869">
        <ele>915.73</ele>
        <time>2024-05-29T22:28:14.953Z</time>
      </trkpt>
      <trkpt lat="43.05896" lon="-0.48894">
        <ele>919.55</ele>
        <time>2024-05-29T22:28:23.948Z</time>
      </trkpt>
      <trkpt lat="43.05894" lon="-0.48903">
        <ele>923.32</ele>
        <time>2024-05-29T22:28:32.944Z</time>
      </trkpt>
      <trkpt lat="43.05895" lon="-0.48911">
        <ele>927.11</ele>
        <time>2024-05-29T22:28:41.941Z</time>
      </trkpt>
      <trkpt lat="43.05899" lon="-0.48917">
        <ele>930.87</ele>
        <time>2024-05-29T22:28:50.939Z</time>
      </trkpt>
      <trkpt lat="43.05909" lon="-0.48924">
        <ele>934.7</ele>
        <time>2024-05-29T22:28:59.939Z</time>
      </trkpt>
      <trkpt lat="43.05918" lon="-0.48924">
        <ele>938.47</ele>
        <time>2024-05-29T22:29:08.941Z</time>
      </trkpt>
      <trkpt lat="43.05927" lon="-0.48921">
        <ele>942.18</ele>
        <time>2024-05-29T22:29:17.945Z</time>
      </trkpt>
      <trkpt lat="43.05947" lon="-0.48911">
        <ele>945.88</ele>
        <time>2024-05-29T22:29:26.953Z</time>
      </trkpt>
      <trkpt lat="43.05956" lon="-0.48903">
        <ele>949.4</ele>
        <time>2024-05-29T22:29:35.963Z</time>
      </trkpt>
      <trkpt lat="43.0597" lon="-0.48884">
        <ele>952.8</ele>
        <time>2024-05-29T22:29:44.976Z</time>
      </trkpt>
      <trkpt lat="43.05982" lon="-0.48873">
        <ele>956.23</ele>
        <time>2024-05-29T22:29:53.992Z</time>
      </trkpt>
      <trkpt lat="43.05997" lon="-0.48865">
        <ele>959.64</ele>
        <time>2024-05-29T22:30:03.011Z</time>
      </trkpt>
      <trkpt lat="43.06036" lon="-0.48823">
        <ele>962.8</ele>
        <time>2024-05-29T22:30:12.039Z</time>
      </trkpt>
      <trkpt lat="43.06045" lon="-0.48822">
        <ele>966.11</ele>
        <time>2024-05-29T22:30:21.069Z</time>
      </trkpt>
      <trkpt lat="43.0605" lon="-0.48829">
        <ele>969.38</ele>
        <time>2024-05-29T22:30:30.100Z</time>
      </trkpt>
      <trkpt lat="43.06049" lon="-0.48837">
        <ele>972.64</ele>
        <time>2024-05-29T22:30:39.132Z</time>
      </trkpt>
      <trkpt lat="43.06027" lon="-0.48861">
        <ele>975.98</ele>
        <time>2024-05-29T22:30:48.170Z</time>
      </trkpt>
      <trkpt lat="43.06023" lon="-0.48869">
        <ele>979.2</ele>
        <time>2024-05-29T22:30:57.209Z</time>
      </trkpt>
      <trkpt lat="43.06007" lon="-0.48918">
        <ele>982.86</ele>
        <time>2024-05-29T22:31:06.255Z</time>
      </trkpt>
      <trkpt lat="43.05993" lon="-0.48948">
        <ele>986.08</ele>
        <time>2024-05-29T22:31:15.306Z</time>
      </trkpt>
      <trkpt lat="43.05972" lon="-0.48988">
        <ele>989.22</ele>
        <time>2024-05-29T22:31:24.364Z</time>
      </trkpt>
      <trkpt lat="43.05963" lon="-0.49008">
        <ele>992.16</ele>
        <time>2024-05-29T22:31:33.425Z</time>
      </trkpt>
      <trkpt lat="43.05941" lon="-0.49069">
        <ele>995.45</ele>
        <time>2024-05-29T22:31:42.495Z</time>
      </trkpt>
      <trkpt lat="43.05937" lon="-0.49078">
        <ele>998.07</ele>
        <time>2024-05-29T22:31:51.567Z</time>
      </trkpt>
      <trkpt lat="43.05916" lon="-0.49105">
        <ele>1000.37</ele>
        <time>2024-05-29T22:32:00.644Z</time>
      </trkpt>
      <trkpt lat="43.05906" lon="-0.49126">
        <ele>1002.7</ele>
        <time>2024-05-29T22:32:09.725Z</time>
      </trkpt>
      <trkpt lat="43.05897" lon="-0.49152">
        <ele>1005.01</ele>
        <time>2024-05-29T22:32:18.810Z</time>
      </trkpt>
      <trkpt lat="43.05883" lon="-0.49214">
        <ele>1007.27</ele>
        <time>2024-05-29T22:32:27.903Z</time>
      </trkpt>
      <trkpt lat="43.05876" lon="-0.4923">
        <ele>1009.11</ele>
        <time>2024-05-29T22:32:36.999Z</time>
      </trkpt>
      <trkpt lat="43.05846" lon="-0.49271">
        <ele>1010.72</ele>
        <time>2024-05-29T22:32:46.103Z</time>
      </trkpt>
      <trkpt lat="43.05836" lon="-0.49292">
        <ele>1012.38</ele>
        <time>2024-05-29T22:32:55.210Z</time>
      </trkpt>
      <trkpt lat="43.05836" lon="-0.49304">
        <ele>1013.87</ele>
        <time>2024-05-29T22:33:04.319Z</time>
      </trkpt>
      <trkpt lat="43.05841" lon="-0.49316">
        <ele>1015.27</ele>
        <time>2024-05-29T22:33:13.430Z</time>
      </trkpt>
      <trkpt lat="43.05867" lon="-0.49341">
        <ele>1016.95</ele>
        <time>2024-05-29T22:33:22.547Z</time>
      </trkpt>
      <trkpt lat="43.05875" lon="-0.49346">
        <ele>1018.02</ele>
        <time>2024-05-29T22:33:31.665Z</time>
      </trkpt>
      <trkpt lat="43.05891" lon="-0.49347">
        <ele>1018.93</ele>
        <time>2024-05-29T22:33:40.786Z</time>
      </trkpt>
      <trkpt lat="43.05902" lon="-0.49342">
        <ele>1019.53</ele>
        <time>2024-05-29T22:33:49.909Z</time>
      </trkpt>
      <trkpt lat="43.05914" lon="-0.49331">
        <ele>1019.95</ele>
        <time>2024-05-29T22:33:59.035Z</time>
      </trkpt>
      <trkpt lat="43.05922" lon="-0.49319">
        <ele>1020.3</ele>
        <time>2024-05-29T22:34:08.163Z</time>
      </trkpt>
      <trkpt lat="43.05929" lon="-0.49298">
        <ele>1020.5</ele>
        <time>2024-05-29T22:34:17.295Z</time>
      </trkpt>
      <trkpt lat="43.05941" lon="-0.49222">
        <ele>1020.62</ele>
        <time>2024-05-29T22:34:26.437Z</time>
      </trkpt>
      <trkpt lat="43.05946" lon="-0.49157">
        <ele>1020.57</ele>
        <time>2024-05-29T22:34:35.588Z</time>
      </trkpt>
      <trkpt lat="43.0595" lon="-0.49145">
        <ele>1020.5</ele>
        <time>2024-05-29T22:34:44.741Z</time>
      </trkpt>
      <trkpt lat="43.05954" lon="-0.49136">
        <ele>1020.35</ele>
        <time>2024-05-29T22:34:53.895Z</time>
      </trkpt>
      <trkpt lat="43.05971" lon="-0.49115">
        <ele>1020.11</ele>
        <time>2024-05-29T22:35:03.054Z</time>
      </trkpt>
      <trkpt lat="43.05987" lon="-0.49088">
        <ele>1019.72</ele>
        <time>2024-05-29T22:35:12.217Z</time>
      </trkpt>
      <trkpt lat="43.05993" lon="-0.49084">
        <ele>1019.36</ele>
        <time>2024-05-29T22:35:21.382Z</time>
      </trkpt>
      <trkpt lat="43.05999" lon="-0.49084">
        <ele>1018.99</ele>
        <time>2024-05-29T22:35:30.548Z</time>
      </trkpt>
      <trkpt lat="43.06005" lon="-0.49087">
        <ele>1018.62</ele>
        <time>2024-05-29T22:35:39.715Z</time>
      </trkpt>
      <trkpt lat="43.06011" lon="-0.49097">
        <ele>1018.28</ele>
        <time>2024-05-29T22:35:48.884Z</time>
      </trkpt>
      <trkpt lat="43.0606" lon="-0.49243">
        <ele>1017.68</ele>
        <time>2024-05-29T22:35:58.074Z</time>
      </trkpt>
      <trkpt lat="43.06061" lon="-0.49274">
        <ele>1017.26</ele>
        <time>2024-05-29T22:36:07.269Z</time>
      </trkpt>
      <trkpt lat="43.0605" lon="-0.49312">
        <ele>1016.97</ele>
        <time>2024-05-29T22:36:16.469Z</time>
      </trkpt>
      <trkpt lat="43.06026" lon="-0.49364">
        <ele>1016.62</ele>
        <time>2024-05-29T22:36:25.678Z</time>
      </trkpt>
      <trkpt lat="43.06007" lon="-0.49411">
        <ele>1016.39</ele>
        <time>2024-05-29T22:36:34.894Z</time>
      </trkpt>
      <trkpt lat="43.06005" lon="-0.49436">
        <ele>1016.11</ele>
        <time>2024-05-29T22:36:44.113Z</time>
      </trkpt>
      <trkpt lat="43.06008" lon="-0.49466">
        <ele>1015.82</ele>
        <time>2024-05-29T22:36:53.337Z</time>
      </trkpt>
      <trkpt lat="43.0604" lon="-0.49596">
        <ele>1015.65</ele>
        <time>2024-05-29T22:37:02.579Z</time>
      </trkpt>
      <trkpt lat="43.06047" lon="-0.49609">
        <ele>1015.37</ele>
        <time>2024-05-29T22:37:11.823Z</time>
      </trkpt>
      <trkpt lat="43.06052" lon="-0.49613">
        <ele>1015.02</ele>
        <time>2024-05-29T22:37:21.069Z</time>
      </trkpt>
      <trkpt lat="43.06061" lon="-0.49617">
        <ele>1014.62</ele>
        <time>2024-05-29T22:37:30.316Z</time>
      </trkpt>
      <trkpt lat="43.06078" lon="-0.4962">
        <ele>1014.2</ele>
        <time>2024-05-29T22:37:39.566Z</time>
      </trkpt>
      <trkpt lat="43.06087" lon="-0.49623">
        <ele>1013.87</ele>
        <time>2024-05-29T22:37:48.818Z</time>
      </trkpt>
      <trkpt lat="43.06103" lon="-0.49635">
        <ele>1013.63</ele>
        <time>2024-05-29T22:37:58.074Z</time>
      </trkpt>
      <trkpt lat="43.06115" lon="-0.49638">
        <ele>1013.33</ele>
        <time>2024-05-29T22:38:07.332Z</time>
      </trkpt>
      <trkpt lat="43.06143" lon="-0.49638">
        <ele>1012.9</ele>
        <time>2024-05-29T22:38:16.595Z</time>
      </trkpt>
      <trkpt lat="43.0617" lon="-0.49642">
        <ele>1012.49</ele>
        <time>2024-05-29T22:38:25.863Z</time>
      </trkpt>
      <trkpt lat="43.06183" lon="-0.49646">
        <ele>1012.13</ele>
        <time>2024-05-29T22:38:35.134Z</time>
      </trkpt>
      <trkpt lat="43.06194" lon="-0.49653">
        <ele>1011.81</ele>
        <time>2024-05-29T22:38:44.407Z</time>
      </trkpt>
      <trkpt lat="43.06197" lon="-0.49657">
        <ele>1011.51</ele>
        <time>2024-05-29T22:38:53.681Z</time>
      </trkpt>
      <trkpt lat="43.06225" lon="-0.49691">
        <ele>1011.27</ele>
        <time>2024-05-29T22:39:02.962Z</time>
      </trkpt>
      <trkpt lat="43.06238" lon="-0.49698">
        <ele>1010.92</ele>
        <time>2024-05-29T22:39:12.245Z</time>
      </trkpt>
      <trkpt lat="43.06255" lon="-0.49704">
        <ele>1010.66</ele>
        <time>2024-05-29T22:39:21.531Z</time>
      </trkpt>
      <trkpt lat="43.0627" lon="-0.49715">
        <ele>1010.3</ele>
        <time>2024-05-29T22:39:30.821Z</time>
      </trkpt>
      <trkpt lat="43.06295" lon="-0.49747">
        <ele>1010.08</ele>
        <time>2024-05-29T22:39:40.117Z</time>
      </trkpt>
      <trkpt lat="43.06319" lon="-0.4977">
        <ele>1009.83</ele>
        <time>2024-05-29T22:39:49.418Z</time>
      </trkpt>
      <trkpt lat="43.06341" lon="-0.49805">
        <ele>1009.71</ele>
        <time>2024-05-29T22:39:58.726Z</time>
      </trkpt>
      <trkpt lat="43.06382" lon="-0.4986">
        <ele>1009.54</ele>
        <time>2024-05-29T22:40:08.044Z</time>
      </trkpt>
      <trkpt lat="43.06394" lon="-0.49868">
        <ele>1009.32</ele>
        <time>2024-05-29T22:40:17.365Z</time>
      </trkpt>
      <trkpt lat="43.06399" lon="-0.49869">
        <ele>1009.07</ele>
        <time>2024-05-29T22:40:26.687Z</time>
      </trkpt>
      <trkpt lat="43.06409" lon="-0.4987">
        <ele>1008.84</ele>
        <time>2024-05-29T22:40:36.011Z</time>
      </trkpt>
      <trkpt lat="43.06428" lon="-0.49865">
        <ele>1008.57</ele>
        <time>2024-05-29T22:40:45.338Z</time>
      </trkpt>
      <trkpt lat="43.06442" lon="-0.49854">
        <ele>1008.21</ele>
        <time>2024-05-29T22:40:54.668Z</time>
      </trkpt>
      <trkpt lat="43.06471" lon="-0.49825">
        <ele>1007.68</ele>
        <time>2024-05-29T22:41:04.005Z</time>
      </trkpt>
      <trkpt lat="43.06482" lon="-0.49819">
        <ele>1007.44</ele>
        <time>2024-05-29T22:41:13.344Z</time>
      </trkpt>
      <trkpt lat="43.06494" lon="-0.49823">
        <ele>1007.29</ele>
        <time>2024-05-29T22:41:22.686Z</time>
      </trkpt>
      <trkpt lat="43.06499" lon="-0.49828">
        <ele>1007.2</ele>
        <time>2024-05-29T22:41:32.029Z</time>
      </trkpt>
      <trkpt lat="43.06504" lon="-0.49837">
        <ele>1007.17</ele>
        <time>2024-05-29T22:41:41.373Z</time>
      </trkpt>
      <trkpt lat="43.06517" lon="-0.49883">
        <ele>1007.26</ele>
        <time>2024-05-29T22:41:50.724Z</time>
      </trkpt>
      <trkpt lat="43.06524" lon="-0.49916">
        <ele>1007.34</ele>
        <time>2024-05-29T22:42:00.080Z</time>
      </trkpt>
      <trkpt lat="43.06525" lon="-0.49934">
        <ele>1007.43</ele>
        <time>2024-05-29T22:42:09.438Z</time>
      </trkpt>
      <trkpt lat="43.06524" lon="-0.49981">
        <ele>1007.45</ele>
        <time>2024-05-29T22:42:18.803Z</time>
      </trkpt>
      <trkpt lat="43.0652" lon="-0.50005">
        <ele>1007.65</ele>
        <time>2024-05-29T22:42:28.171Z</time>
      </trkpt>
      <trkpt lat="43.06499" lon="-0.50109">
        <ele>1008.12</ele>
        <time>2024-05-29T22:42:37.554Z</time>
      </trkpt>
      <trkpt lat="43.06498" lon="-0.50133">
        <ele>1008.51</ele>
        <time>2024-05-29T22:42:46.940Z</time>
      </trkpt>
      <trkpt lat="43.065" lon="-0.50185">
        <ele>1009.14</ele>
        <time>2024-05-29T22:42:56.333Z</time>
      </trkpt>
      <trkpt lat="43.06503" lon="-0.50192">
        <ele>1009.66</ele>
        <time>2024-05-29T22:43:05.727Z</time>
      </trkpt>
      <trkpt lat="43.06508" lon="-0.50196">
        <ele>1010.22</ele>
        <time>2024-05-29T22:43:15.122Z</time>
      </trkpt>
      <trkpt lat="43.06517" lon="-0.50199">
        <ele>1010.9</ele>
        <time>2024-05-29T22:43:24.519Z</time>
      </trkpt>
      <trkpt lat="43.06528" lon="-0.50195">
        <ele>1011.68</ele>
        <time>2024-05-29T22:43:33.918Z</time>
      </trkpt>
      <trkpt lat="43.06539" lon="-0.50186">
        <ele>1012.47</ele>
        <time>2024-05-29T22:43:43.319Z</time>
      </trkpt>
      <trkpt lat="43.06598" lon="-0.50123">
        <ele>1013.03</ele>
        <time>2024-05-29T22:43:52.734Z</time>
      </trkpt>
      <trkpt lat="43.06638" lon="-0.50091">
        <ele>1013.48</ele>
        <time>2024-05-29T22:44:02.158Z</time>
      </trkpt>
      <trkpt lat="43.06698" lon="-0.50048">
        <ele>1013.98</ele>
        <time>2024-05-29T22:44:11.595Z</time>
      </trkpt>
      <trkpt lat="43.06712" lon="-0.50044">
        <ele>1014.98</ele>
        <time>2024-05-29T22:44:21.034Z</time>
      </trkpt>
      <trkpt lat="43.06745" lon="-0.50052">
        <ele>1016.11</ele>
        <time>2024-05-29T22:44:30.479Z</time>
      </trkpt>
      <trkpt lat="43.06781" lon="-0.50054">
        <ele>1017.2</ele>
        <time>2024-05-29T22:44:39.931Z</time>
      </trkpt>
      <trkpt lat="43.06796" lon="-0.50062">
        <ele>1018.38</ele>
        <time>2024-05-29T22:44:49.386Z</time>
      </trkpt>
      <trkpt lat="43.06816" lon="-0.50078">
        <ele>1019.64</ele>
        <time>2024-05-29T22:44:58.845Z</time>
      </trkpt>
      <trkpt lat="43.06841" lon="-0.50089">
        <ele>1020.86</ele>
        <time>2024-05-29T22:45:08.309Z</time>
      </trkpt>
      <trkpt lat="43.06854" lon="-0.50101">
        <ele>1022.2</ele>
        <time>2024-05-29T22:45:17.776Z</time>
      </trkpt>
      <trkpt lat="43.06889" lon="-0.50152">
        <ele>1023.89</ele>
        <time>2024-05-29T22:45:27.253Z</time>
      </trkpt>
      <trkpt lat="43.0692" lon="-0.50185">
        <ele>1025.17</ele>
        <time>2024-05-29T22:45:36.737Z</time>
      </trkpt>
      <trkpt lat="43.06933" lon="-0.5021">
        <ele>1026.6</ele>
        <time>2024-05-29T22:45:46.225Z</time>
      </trkpt>
      <trkpt lat="43.06938" lon="-0.50222">
        <ele>1028.02</ele>
        <time>2024-05-29T22:45:55.715Z</time>
      </trkpt>
      <trkpt lat="43.06939" lon="-0.5023">
        <ele>1029.44</ele>
        <time>2024-05-29T22:46:05.206Z</time>
      </trkpt>
      <trkpt lat="43.06946" lon="-0.50288">
        <ele>1030.83</ele>
        <time>2024-05-29T22:46:14.705Z</time>
      </trkpt>
      <trkpt lat="43.06946" lon="-0.50306">
        <ele>1032.2</ele>
        <time>2024-05-29T22:46:24.207Z</time>
      </trkpt>
      <trkpt lat="43.06942" lon="-0.50359">
        <ele>1033.61</ele>
        <time>2024-05-29T22:46:33.716Z</time>
      </trkpt>
      <trkpt lat="43.06939" lon="-0.50377">
        <ele>1034.91</ele>
        <time>2024-05-29T22:46:43.228Z</time>
      </trkpt>
      <trkpt lat="43.06919" lon="-0.50452">
        <ele>1036.6</ele>
        <time>2024-05-29T22:46:52.750Z</time>
      </trkpt>
      <trkpt lat="43.06918" lon="-0.5047">
        <ele>1037.84</ele>
        <time>2024-05-29T22:47:02.275Z</time>
      </trkpt>
      <trkpt lat="43.06921" lon="-0.50498">
        <ele>1039</ele>
        <time>2024-05-29T22:47:11.804Z</time>
      </trkpt>
      <trkpt lat="43.06934" lon="-0.50535">
        <ele>1040.09</ele>
        <time>2024-05-29T22:47:21.338Z</time>
      </trkpt>
      <trkpt lat="43.06951" lon="-0.50565">
        <ele>1041.04</ele>
        <time>2024-05-29T22:47:30.878Z</time>
      </trkpt>
      <trkpt lat="43.06973" lon="-0.50612">
        <ele>1041.96</ele>
        <time>2024-05-29T22:47:40.425Z</time>
      </trkpt>
      <trkpt lat="43.06984" lon="-0.50621">
        <ele>1042.55</ele>
        <time>2024-05-29T22:47:49.975Z</time>
      </trkpt>
      <trkpt lat="43.07003" lon="-0.50629">
        <ele>1042.93</ele>
        <time>2024-05-29T22:47:59.528Z</time>
      </trkpt>
      <trkpt lat="43.07009" lon="-0.50634">
        <ele>1043.2</ele>
        <time>2024-05-29T22:48:09.083Z</time>
      </trkpt>
      <trkpt lat="43.07014" lon="-0.50641">
        <ele>1043.3</ele>
        <time>2024-05-29T22:48:18.639Z</time>
      </trkpt>
      <trkpt lat="43.07032" lon="-0.50681">
        <ele>1043.1</ele>
        <time>2024-05-29T22:48:28.201Z</time>
      </trkpt>
      <trkpt lat="43.07043" lon="-0.50721">
        <ele>1042.75</ele>
        <time>2024-05-29T22:48:37.769Z</time>
      </trkpt>
      <trkpt lat="43.07047" lon="-0.50751">
        <ele>1042.27</ele>
        <time>2024-05-29T22:48:47.341Z</time>
      </trkpt>
      <trkpt lat="43.07047" lon="-0.50775">
        <ele>1041.59</ele>
        <time>2024-05-29T22:48:56.917Z</time>
      </trkpt>
      <trkpt lat="43.07046" lon="-0.50783">
        <ele>1040.7</ele>
        <time>2024-05-29T22:49:06.494Z</time>
      </trkpt>
      <trkpt lat="43.0704" lon="-0.50796">
        <ele>1039.55</ele>
        <time>2024-05-29T22:49:16.073Z</time>
      </trkpt>
      <trkpt lat="43.07012" lon="-0.50835">
        <ele>1038.11</ele>
        <time>2024-05-29T22:49:25.659Z</time>
      </trkpt>
      <trkpt lat="43.06964" lon="-0.50895">
        <ele>1036.61</ele>
        <time>2024-05-29T22:49:35.257Z</time>
      </trkpt>
      <trkpt lat="43.06942" lon="-0.50915">
        <ele>1034.81</ele>
        <time>2024-05-29T22:49:44.860Z</time>
      </trkpt>
      <trkpt lat="43.06882" lon="-0.50962">
        <ele>1032.41</ele>
        <time>2024-05-29T22:49:54.476Z</time>
      </trkpt>
      <trkpt lat="43.06855" lon="-0.50979">
        <ele>1030.43</ele>
        <time>2024-05-29T22:50:04.098Z</time>
      </trkpt>
      <trkpt lat="43.06849" lon="-0.50987">
        <ele>1028.23</ele>
        <time>2024-05-29T22:50:13.721Z</time>
      </trkpt>
      <trkpt lat="43.06849" lon="-0.50994">
        <ele>1025.8</ele>
        <time>2024-05-29T22:50:23.345Z</time>
      </trkpt>
      <trkpt lat="43.0685" lon="-0.51">
        <ele>1023.2</ele>
        <time>2024-05-29T22:50:32.970Z</time>
      </trkpt>
      <trkpt lat="43.06853" lon="-0.51005">
        <ele>1020.51</ele>
        <time>2024-05-29T22:50:42.596Z</time>
      </trkpt>
      <trkpt lat="43.06936" lon="-0.51029">
        <ele>1016.95</ele>
        <time>2024-05-29T22:50:52.238Z</time>
      </trkpt>
      <trkpt lat="43.06957" lon="-0.51038">
        <ele>1013.89</ele>
        <time>2024-05-29T22:51:01.884Z</time>
      </trkpt>
      <trkpt lat="43.06986" lon="-0.51058">
        <ele>1010.51</ele>
        <time>2024-05-29T22:51:11.536Z</time>
      </trkpt>
      <trkpt lat="43.06995" lon="-0.51066">
        <ele>1007.09</ele>
        <time>2024-05-29T22:51:21.190Z</time>
      </trkpt>
      <trkpt lat="43.07002" lon="-0.51076">
        <ele>1003.57</ele>
        <time>2024-05-29T22:51:30.846Z</time>
      </trkpt>
      <trkpt lat="43.07025" lon="-0.51136">
        <ele>999.46</ele>
        <time>2024-05-29T22:51:40.511Z</time>
      </trkpt>
      <trkpt lat="43.07034" lon="-0.51169">
        <ele>995.81</ele>
        <time>2024-05-29T22:51:50.181Z</time>
      </trkpt>
      <trkpt lat="43.07032" lon="-0.51216">
        <ele>992.48</ele>
        <time>2024-05-29T22:51:59.857Z</time>
      </trkpt>
      <trkpt lat="43.07033" lon="-0.51222">
        <ele>988.79</ele>
        <time>2024-05-29T22:52:09.534Z</time>
      </trkpt>
      <trkpt lat="43.07037" lon="-0.51232">
        <ele>984.96</ele>
        <time>2024-05-29T22:52:19.212Z</time>
      </trkpt>
      <trkpt lat="43.07047" lon="-0.51246">
        <ele>980.95</ele>
        <time>2024-05-29T22:52:28.893Z</time>
      </trkpt>
      <trkpt lat="43.07069" lon="-0.51282">
        <ele>976.86</ele>
        <time>2024-05-29T22:52:38.581Z</time>
      </trkpt>
      <trkpt lat="43.07073" lon="-0.51293">
        <ele>972.85</ele>
        <time>2024-05-29T22:52:48.270Z</time>
      </trkpt>
      <trkpt lat="43.07075" lon="-0.51305">
        <ele>968.82</ele>
        <time>2024-05-29T22:52:57.961Z</time>
      </trkpt>
      <trkpt lat="43.07077" lon="-0.51326">
        <ele>964.71</ele>
        <time>2024-05-29T22:53:07.655Z</time>
      </trkpt>
      <trkpt lat="43.07077" lon="-0.51347">
        <ele>960.53</ele>
        <time>2024-05-29T22:53:17.352Z</time>
      </trkpt>
      <trkpt lat="43.07075" lon="-0.51361">
        <ele>956.35</ele>
        <time>2024-05-29T22:53:27.051Z</time>
      </trkpt>
      <trkpt lat="43.07062" lon="-0.51419">
        <ele>951.96</ele>
        <time>2024-05-29T22:53:36.758Z</time>
      </trkpt>
      <trkpt lat="43.07056" lon="-0.51481">
        <ele>947.13</ele>
        <time>2024-05-29T22:53:46.473Z</time>
      </trkpt>
      <trkpt lat="43.07058" lon="-0.51515">
        <ele>942.32</ele>
        <time>2024-05-29T22:53:56.193Z</time>
      </trkpt>
      <trkpt lat="43.07057" lon="-0.51536">
        <ele>937.67</ele>
        <time>2024-05-29T22:54:05.916Z</time>
      </trkpt>
      <trkpt lat="43.07047" lon="-0.51593">
        <ele>933.11</ele>
        <time>2024-05-29T22:54:15.647Z</time>
      </trkpt>
      <trkpt lat="43.07047" lon="-0.51604">
        <ele>928.5</ele>
        <time>2024-05-29T22:54:25.379Z</time>
      </trkpt>
      <trkpt lat="43.07053" lon="-0.51645">
        <ele>923.61</ele>
        <time>2024-05-29T22:54:35.117Z</time>
      </trkpt>
      <trkpt lat="43.07054" lon="-0.51669">
        <ele>918.65</ele>
        <time>2024-05-29T22:54:44.858Z</time>
      </trkpt>
      <trkpt lat="43.07052" lon="-0.51727">
        <ele>913.26</ele>
        <time>2024-05-29T22:54:54.607Z</time>
      </trkpt>
      <trkpt lat="43.07048" lon="-0.51769">
        <ele>908.11</ele>
        <time>2024-05-29T22:55:04.362Z</time>
      </trkpt>
      <trkpt lat="43.07043" lon="-0.51797">
        <ele>902.99</ele>
        <time>2024-05-29T22:55:14.121Z</time>
      </trkpt>
      <trkpt lat="43.07006" lon="-0.51919">
        <ele>897.82</ele>
        <time>2024-05-29T22:55:23.898Z</time>
      </trkpt>
      <trkpt lat="43.07003" lon="-0.51944">
        <ele>892.61</ele>
        <time>2024-05-29T22:55:33.678Z</time>
      </trkpt>
      <trkpt lat="43.07004" lon="-0.51956">
        <ele>887.37</ele>
        <time>2024-05-29T22:55:43.460Z</time>
      </trkpt>
      <trkpt lat="43.0701" lon="-0.52">
        <ele>881.99</ele>
        <time>2024-05-29T22:55:53.248Z</time>
      </trkpt>
      <trkpt lat="43.07012" lon="-0.52051">
        <ele>876.48</ele>
        <time>2024-05-29T22:56:03.043Z</time>
      </trkpt>
      <trkpt lat="43.07001" lon="-0.5215">
        <ele>870.98</ele>
        <time>2024-05-29T22:56:12.852Z</time>
      </trkpt>
      <trkpt lat="43.07001" lon="-0.52173">
        <ele>865.73</ele>
        <time>2024-05-29T22:56:22.664Z</time>
      </trkpt>
      <trkpt lat="43.07007" lon="-0.52237">
        <ele>860.25</ele>
        <time>2024-05-29T22:56:32.485Z</time>
      </trkpt>
      <trkpt lat="43.07019" lon="-0.5231">
        <ele>854.41</ele>
        <time>2024-05-29T22:56:42.316Z</time>
      </trkpt>
      <trkpt lat="43.07097" lon="-0.52573">
        <ele>847.63</ele>
        <time>2024-05-29T22:56:52.186Z</time>
      </trkpt>
      <trkpt lat="43.0712" lon="-0.5263">
        <ele>842.24</ele>
        <time>2024-05-29T22:57:02.065Z</time>
      </trkpt>
      <trkpt lat="43.0713" lon="-0.52677">
        <ele>837.31</ele>
        <time>2024-05-29T22:57:11.950Z</time>
      </trkpt>
      <trkpt lat="43.07141" lon="-0.52719">
        <ele>832.47</ele>
        <time>2024-05-29T22:57:21.841Z</time>
      </trkpt>
      <trkpt lat="43.07152" lon="-0.52776">
        <ele>828.14</ele>
        <time>2024-05-29T22:57:31.740Z</time>
      </trkpt>
      <trkpt lat="43.07157" lon="-0.52792">
        <ele>823.86</ele>
        <time>2024-05-29T22:57:41.642Z</time>
      </trkpt>
      <trkpt lat="43.07164" lon="-0.528">
        <ele>819.52</ele>
        <time>2024-05-29T22:57:51.545Z</time>
      </trkpt>
      <trkpt lat="43.0717" lon="-0.52804">
        <ele>815.25</ele>
        <time>2024-05-29T22:58:01.450Z</time>
      </trkpt>
      <trkpt lat="43.07196" lon="-0.52808">
        <ele>810.56</ele>
        <time>2024-05-29T22:58:11.360Z</time>
      </trkpt>
      <trkpt lat="43.07205" lon="-0.52811">
        <ele>806.51</ele>
        <time>2024-05-29T22:58:21.271Z</time>
      </trkpt>
      <trkpt lat="43.07213" lon="-0.52816">
        <ele>802.56</ele>
        <time>2024-05-29T22:58:31.184Z</time>
      </trkpt>
      <trkpt lat="43.07226" lon="-0.5283">
        <ele>798.75</ele>
        <time>2024-05-29T22:58:41.100Z</time>
      </trkpt>
      <trkpt lat="43.07234" lon="-0.52846">
        <ele>795.18</ele>
        <time>2024-05-29T22:58:51.019Z</time>
      </trkpt>
      <trkpt lat="43.07238" lon="-0.52856">
        <ele>791.65</ele>
        <time>2024-05-29T22:59:00.939Z</time>
      </trkpt>
      <trkpt lat="43.07247" lon="-0.52904">
        <ele>788.71</ele>
        <time>2024-05-29T22:59:10.866Z</time>
      </trkpt>
      <trkpt lat="43.0725" lon="-0.52913">
        <ele>785.4</ele>
        <time>2024-05-29T22:59:20.794Z</time>
      </trkpt>
      <trkpt lat="43.07292" lon="-0.52973">
        <ele>781.56</ele>
        <time>2024-05-29T22:59:30.734Z</time>
      </trkpt>
      <trkpt lat="43.07304" lon="-0.52987">
        <ele>778.27</ele>
        <time>2024-05-29T22:59:40.676Z</time>
      </trkpt>
      <trkpt lat="43.07332" lon="-0.53011">
        <ele>774.44</ele>
        <time>2024-05-29T22:59:50.625Z</time>
      </trkpt>
      <trkpt lat="43.07339" lon="-0.5302">
        <ele>771.07</ele>
        <time>2024-05-29T23:00:00.575Z</time>
      </trkpt>
      <trkpt lat="43.07343" lon="-0.53029">
        <ele>767.85</ele>
        <time>2024-05-29T23:00:10.527Z</time>
      </trkpt>
      <trkpt lat="43.0735" lon="-0.53061">
        <ele>764.46</ele>
        <time>2024-05-29T23:00:20.483Z</time>
      </trkpt>
      <trkpt lat="43.07351" lon="-0.531">
        <ele>761.05</ele>
        <time>2024-05-29T23:00:30.445Z</time>
      </trkpt>
      <trkpt lat="43.0735" lon="-0.53121">
        <ele>757.57</ele>
        <time>2024-05-29T23:00:40.410Z</time>
      </trkpt>
      <trkpt lat="43.07345" lon="-0.53144">
        <ele>754.12</ele>
        <time>2024-05-29T23:00:50.378Z</time>
      </trkpt>
      <trkpt lat="43.07339" lon="-0.53163">
        <ele>750.66</ele>
        <time>2024-05-29T23:01:00.349Z</time>
      </trkpt>
      <trkpt lat="43.07318" lon="-0.53201">
        <ele>747.16</ele>
        <time>2024-05-29T23:01:10.326Z</time>
      </trkpt>
      <trkpt lat="43.07296" lon="-0.53248">
        <ele>743.53</ele>
        <time>2024-05-29T23:01:20.311Z</time>
      </trkpt>
      <trkpt lat="43.07286" lon="-0.53283">
        <ele>739.69</ele>
        <time>2024-05-29T23:01:30.301Z</time>
      </trkpt>
      <trkpt lat="43.07284" lon="-0.53306">
        <ele>735.63</ele>
        <time>2024-05-29T23:01:40.294Z</time>
      </trkpt>
      <trkpt lat="43.07286" lon="-0.53337">
        <ele>731.27</ele>
        <time>2024-05-29T23:01:50.291Z</time>
      </trkpt>
      <trkpt lat="43.07292" lon="-0.53381">
        <ele>726.74</ele>
        <time>2024-05-29T23:02:00.294Z</time>
      </trkpt>
      <trkpt lat="43.073" lon="-0.53406">
        <ele>722.3</ele>
        <time>2024-05-29T23:02:10.301Z</time>
      </trkpt>
      <trkpt lat="43.0732" lon="-0.53451">
        <ele>717.61</ele>
        <time>2024-05-29T23:02:20.315Z</time>
      </trkpt>
      <trkpt lat="43.07331" lon="-0.53491">
        <ele>713.09</ele>
        <time>2024-05-29T23:02:30.335Z</time>
      </trkpt>
      <trkpt lat="43.0734" lon="-0.53607">
        <ele>707.84</ele>
        <time>2024-05-29T23:02:40.371Z</time>
      </trkpt>
      <trkpt lat="43.07338" lon="-0.53636">
        <ele>703.13</ele>
        <time>2024-05-29T23:02:50.411Z</time>
      </trkpt>
      <trkpt lat="43.07324" lon="-0.53721">
        <ele>698.06</ele>
        <time>2024-05-29T23:03:00.463Z</time>
      </trkpt>
      <trkpt lat="43.07321" lon="-0.53752">
        <ele>693.16</ele>
        <time>2024-05-29T23:03:10.519Z</time>
      </trkpt>
      <trkpt lat="43.07324" lon="-0.53799">
        <ele>688.2</ele>
        <time>2024-05-29T23:03:20.582Z</time>
      </trkpt>
      <trkpt lat="43.07336" lon="-0.53874">
        <ele>682.81</ele>
        <time>2024-05-29T23:03:30.655Z</time>
      </trkpt>
      <trkpt lat="43.0735" lon="-0.53919">
        <ele>677.47</ele>
        <time>2024-05-29T23:03:40.735Z</time>
      </trkpt>
      <trkpt lat="43.0737" lon="-0.53965">
        <ele>672.29</ele>
        <time>2024-05-29T23:03:50.822Z</time>
      </trkpt>
      <trkpt lat="43.07397" lon="-0.54011">
        <ele>666.88</ele>
        <time>2024-05-29T23:04:00.917Z</time>
      </trkpt>
      <trkpt lat="43.07433" lon="-0.54081">
        <ele>661.55</ele>
        <time>2024-05-29T23:04:11.024Z</time>
      </trkpt>
      <trkpt lat="43.07446" lon="-0.54115">
        <ele>656</ele>
        <time>2024-05-29T23:04:21.136Z</time>
      </trkpt>
      <trkpt lat="43.07454" lon="-0.54143">
        <ele>650.56</ele>
        <time>2024-05-29T23:04:31.252Z</time>
      </trkpt>
      <trkpt lat="43.07461" lon="-0.54174">
        <ele>645.28</ele>
        <time>2024-05-29T23:04:41.372Z</time>
      </trkpt>
      <trkpt lat="43.07461" lon="-0.54209">
        <ele>640.14</ele>
        <time>2024-05-29T23:04:51.497Z</time>
      </trkpt>
      <trkpt lat="43.07453" lon="-0.5427">
        <ele>634.96</ele>
        <time>2024-05-29T23:05:01.631Z</time>
      </trkpt>
      <trkpt lat="43.07454" lon="-0.543">
        <ele>629.71</ele>
        <time>2024-05-29T23:05:11.769Z</time>
      </trkpt>
      <trkpt lat="43.07459" lon="-0.54332">
        <ele>624.31</ele>
        <time>2024-05-29T23:05:21.911Z</time>
      </trkpt>
      <trkpt lat="43.07476" lon="-0.54387">
        <ele>618.65</ele>
        <time>2024-05-29T23:05:32.061Z</time>
      </trkpt>
      <trkpt lat="43.07477" lon="-0.54412">
        <ele>613.42</ele>
        <time>2024-05-29T23:05:42.215Z</time>
      </trkpt>
      <trkpt lat="43.07463" lon="-0.54493">
        <ele>607.99</ele>
        <time>2024-05-29T23:05:52.380Z</time>
      </trkpt>
      <trkpt lat="43.07463" lon="-0.54522">
        <ele>602.95</ele>
        <time>2024-05-29T23:06:02.549Z</time>
      </trkpt>
      <trkpt lat="43.07486" lon="-0.54631">
        <ele>597.63</ele>
        <time>2024-05-29T23:06:12.734Z</time>
      </trkpt>
      <trkpt lat="43.07513" lon="-0.549">
        <ele>591.87</ele>
        <time>2024-05-29T23:06:22.956Z</time>
      </trkpt>
      <trkpt lat="43.07539" lon="-0.55107">
        <ele>586.29</ele>
        <time>2024-05-29T23:06:33.206Z</time>
      </trkpt>
      <trkpt lat="43.07538" lon="-0.5513">
        <ele>581.4</ele>
        <time>2024-05-29T23:06:43.459Z</time>
      </trkpt>
      <trkpt lat="43.07531" lon="-0.55163">
        <ele>576.52</ele>
        <time>2024-05-29T23:06:53.717Z</time>
      </trkpt>
      <trkpt lat="43.07529" lon="-0.55192">
        <ele>571.81</ele>
        <time>2024-05-29T23:07:03.979Z</time>
      </trkpt>
      <trkpt lat="43.0753" lon="-0.55213">
        <ele>567.31</ele>
        <time>2024-05-29T23:07:14.244Z</time>
      </trkpt>
      <trkpt lat="43.07533" lon="-0.55235">
        <ele>563.03</ele>
        <time>2024-05-29T23:07:24.512Z</time>
      </trkpt>
      <trkpt lat="43.07559" lon="-0.55307">
        <ele>558.97</ele>
        <time>2024-05-29T23:07:34.791Z</time>
      </trkpt>
      <trkpt lat="43.07613" lon="-0.55373">
        <ele>554.72</ele>
        <time>2024-05-29T23:07:45.083Z</time>
      </trkpt>
      <trkpt lat="43.0763" lon="-0.55422">
        <ele>550.46</ele>
        <time>2024-05-29T23:07:55.383Z</time>
      </trkpt>
      <trkpt lat="43.07651" lon="-0.55504">
        <ele>546.62</ele>
        <time>2024-05-29T23:08:05.695Z</time>
      </trkpt>
      <trkpt lat="43.0768" lon="-0.55665">
        <ele>542.83</ele>
        <time>2024-05-29T23:08:16.029Z</time>
      </trkpt>
      <trkpt lat="43.0769" lon="-0.55708">
        <ele>539.24</ele>
        <time>2024-05-29T23:08:26.369Z</time>
      </trkpt>
      <trkpt lat="43.07689" lon="-0.55764">
        <ele>535.49</ele>
        <time>2024-05-29T23:08:36.717Z</time>
      </trkpt>
      <trkpt lat="43.07696" lon="-0.55809">
        <ele>532.11</ele>
        <time>2024-05-29T23:08:47.071Z</time>
      </trkpt>
      <trkpt lat="43.07724" lon="-0.55912">
        <ele>528.68</ele>
        <time>2024-05-29T23:08:57.440Z</time>
      </trkpt>
      <trkpt lat="43.07733" lon="-0.55957">
        <ele>525.54</ele>
        <time>2024-05-29T23:09:07.816Z</time>
      </trkpt>
      <trkpt lat="43.0774" lon="-0.55973">
        <ele>522.47</ele>
        <time>2024-05-29T23:09:18.194Z</time>
      </trkpt>
      <trkpt lat="43.07788" lon="-0.56032">
        <ele>519.79</ele>
        <time>2024-05-29T23:09:28.584Z</time>
      </trkpt>
      <trkpt lat="43.07797" lon="-0.5606">
        <ele>516.86</ele>
        <time>2024-05-29T23:09:38.978Z</time>
      </trkpt>
      <trkpt lat="43.07803" lon="-0.5609">
        <ele>514.11</ele>
        <time>2024-05-29T23:09:49.377Z</time>
      </trkpt>
      <trkpt lat="43.07815" lon="-0.56187">
        <ele>511.16</ele>
        <time>2024-05-29T23:09:59.789Z</time>
      </trkpt>
      <trkpt lat="43.07829" lon="-0.56266">
        <ele>508.37</ele>
        <time>2024-05-29T23:10:10.212Z</time>
      </trkpt>
      <trkpt lat="43.07839" lon="-0.56287">
        <ele>505.92</ele>
        <time>2024-05-29T23:10:20.639Z</time>
      </trkpt>
      <trkpt lat="43.07857" lon="-0.56311">
        <ele>503.55</ele>
        <time>2024-05-29T23:10:31.070Z</time>
      </trkpt>
      <trkpt lat="43.07881" lon="-0.56334">
        <ele>501.51</ele>
        <time>2024-05-29T23:10:41.507Z</time>
      </trkpt>
      <trkpt lat="43.07894" lon="-0.56338">
        <ele>499.09</ele>
        <time>2024-05-29T23:10:51.946Z</time>
      </trkpt>
      <trkpt lat="43.07956" lon="-0.56341">
        <ele>496.06</ele>
        <time>2024-05-29T23:11:02.397Z</time>
      </trkpt>
      <trkpt lat="43.07965" lon="-0.56345">
        <ele>493.77</ele>
        <time>2024-05-29T23:11:12.849Z</time>
      </trkpt>
      <trkpt lat="43.07991" lon="-0.56372">
        <ele>491.5</ele>
        <time>2024-05-29T23:11:23.308Z</time>
      </trkpt>
      <trkpt lat="43.07996" lon="-0.56383">
        <ele>489.52</ele>
        <time>2024-05-29T23:11:33.768Z</time>
      </trkpt>
      <trkpt lat="43.08" lon="-0.564">
        <ele>487.58</ele>
        <time>2024-05-29T23:11:44.231Z</time>
      </trkpt>
      <trkpt lat="43.08027" lon="-0.56565">
        <ele>485.45</ele>
        <time>2024-05-29T23:11:54.717Z</time>
      </trkpt>
      <trkpt lat="43.08027" lon="-0.56625">
        <ele>483.5</ele>
        <time>2024-05-29T23:12:05.211Z</time>
      </trkpt>
      <trkpt lat="43.08009" lon="-0.56736">
        <ele>481.65</ele>
        <time>2024-05-29T23:12:15.720Z</time>
      </trkpt>
      <trkpt lat="43.08009" lon="-0.56746">
        <ele>479.9</ele>
        <time>2024-05-29T23:12:26.231Z</time>
      </trkpt>
      <trkpt lat="43.08013" lon="-0.56767">
        <ele>478.17</ele>
        <time>2024-05-29T23:12:36.745Z</time>
      </trkpt>
      <trkpt lat="43.08027" lon="-0.56815">
        <ele>476.49</ele>
        <time>2024-05-29T23:12:47.266Z</time>
      </trkpt>
      <trkpt lat="43.08045" lon="-0.56865">
        <ele>474.7</ele>
        <time>2024-05-29T23:12:57.794Z</time>
      </trkpt>
      <trkpt lat="43.08049" lon="-0.5688">
        <ele>473.13</ele>
        <time>2024-05-29T23:13:08.325Z</time>
      </trkpt>
      <trkpt lat="43.08055" lon="-0.56923">
        <ele>471.48</ele>
        <time>2024-05-29T23:13:18.862Z</time>
      </trkpt>
      <trkpt lat="43.08056" lon="-0.56939">
        <ele>470.04</ele>
        <time>2024-05-29T23:13:29.401Z</time>
      </trkpt>
      <trkpt lat="43.0805" lon="-0.57015">
        <ele>468.49</ele>
        <time>2024-05-29T23:13:39.950Z</time>
      </trkpt>
      <trkpt lat="43.08054" lon="-0.57048">
        <ele>467.1</ele>
        <time>2024-05-29T23:13:50.504Z</time>
      </trkpt>
      <trkpt lat="43.08063" lon="-0.57075">
        <ele>465.86</ele>
        <time>2024-05-29T23:14:01.062Z</time>
      </trkpt>
      <trkpt lat="43.0809" lon="-0.57117">
        <ele>464.6</ele>
        <time>2024-05-29T23:14:11.627Z</time>
      </trkpt>
      <trkpt lat="43.08105" lon="-0.57145">
        <ele>463.34</ele>
        <time>2024-05-29T23:14:22.197Z</time>
      </trkpt>
      <trkpt lat="43.08113" lon="-0.57172">
        <ele>462.16</ele>
        <time>2024-05-29T23:14:32.771Z</time>
      </trkpt>
      <trkpt lat="43.08121" lon="-0.57232">
        <ele>460.91</ele>
        <time>2024-05-29T23:14:43.353Z</time>
      </trkpt>
      <trkpt lat="43.08122" lon="-0.57288">
        <ele>460.01</ele>
        <time>2024-05-29T23:14:53.943Z</time>
      </trkpt>
      <trkpt lat="43.0812" lon="-0.573">
        <ele>459.07</ele>
        <time>2024-05-29T23:15:04.535Z</time>
      </trkpt>
      <trkpt lat="43.08115" lon="-0.57324">
        <ele>458.2</ele>
        <time>2024-05-29T23:15:15.130Z</time>
      </trkpt>
      <trkpt lat="43.08102" lon="-0.57355">
        <ele>457.37</ele>
        <time>2024-05-29T23:15:25.730Z</time>
      </trkpt>
      <trkpt lat="43.0808" lon="-0.57398">
        <ele>456.37</ele>
        <time>2024-05-29T23:15:36.337Z</time>
      </trkpt>
      <trkpt lat="43.08072" lon="-0.57415">
        <ele>455.37</ele>
        <time>2024-05-29T23:15:46.947Z</time>
      </trkpt>
      <trkpt lat="43.08064" lon="-0.57446">
        <ele>454.4</ele>
        <time>2024-05-29T23:15:57.561Z</time>
      </trkpt>
      <trkpt lat="43.08052" lon="-0.57511">
        <ele>453.3</ele>
        <time>2024-05-29T23:16:08.185Z</time>
      </trkpt>
      <trkpt lat="43.08051" lon="-0.57532">
        <ele>452.47</ele>
        <time>2024-05-29T23:16:18.811Z</time>
      </trkpt>
      <trkpt lat="43.08054" lon="-0.57549">
        <ele>451.7</ele>
        <time>2024-05-29T23:16:29.440Z</time>
      </trkpt>
      <trkpt lat="43.08098" lon="-0.57625">
        <ele>450.94</ele>
        <time>2024-05-29T23:16:40.082Z</time>
      </trkpt>
      <trkpt lat="43.08109" lon="-0.57661">
        <ele>449.91</ele>
        <time>2024-05-29T23:16:50.729Z</time>
      </trkpt>
      <trkpt lat="43.08113" lon="-0.57698">
        <ele>449.01</ele>
        <time>2024-05-29T23:17:01.381Z</time>
      </trkpt>
      <trkpt lat="43.08111" lon="-0.57737">
        <ele>448.45</ele>
        <time>2024-05-29T23:17:12.039Z</time>
      </trkpt>
      <trkpt lat="43.08099" lon="-0.5786">
        <ele>447.68</ele>
        <time>2024-05-29T23:17:22.714Z</time>
      </trkpt>
      <trkpt lat="43.08095" lon="-0.57874">
        <ele>447.04</ele>
        <time>2024-05-29T23:17:33.391Z</time>
      </trkpt>
      <trkpt lat="43.08089" lon="-0.57887">
        <ele>446.35</ele>
        <time>2024-05-29T23:17:44.070Z</time>
      </trkpt>
      <trkpt lat="43.08078" lon="-0.57895">
        <ele>445.52</ele>
        <time>2024-05-29T23:17:54.751Z</time>
      </trkpt>
      <trkpt lat="43.0807" lon="-0.57899">
        <ele>444.66</ele>
        <time>2024-05-29T23:18:05.434Z</time>
      </trkpt>
      <trkpt lat="43.0806" lon="-0.579">
        <ele>443.74</ele>
        <time>2024-05-29T23:18:16.119Z</time>
      </trkpt>
      <trkpt lat="43.08029" lon="-0.57894">
        <ele>442.86</ele>
        <time>2024-05-29T23:18:26.809Z</time>
      </trkpt>
      <trkpt lat="43.08024" lon="-0.5789">
        <ele>441.89</ele>
        <time>2024-05-29T23:18:37.500Z</time>
      </trkpt>
      <trkpt lat="43.08021" lon="-0.57887">
        <ele>440.88</ele>
        <time>2024-05-29T23:18:48.192Z</time>
      </trkpt>
      <trkpt lat="43.08014" lon="-0.57875">
        <ele>439.77</ele>
        <time>2024-05-29T23:18:58.886Z</time>
      </trkpt>
      <trkpt lat="43.07997" lon="-0.57819">
        <ele>438.48</ele>
        <time>2024-05-29T23:19:09.589Z</time>
      </trkpt>
      <trkpt lat="43.0799" lon="-0.57811">
        <ele>437.42</ele>
        <time>2024-05-29T23:19:20.293Z</time>
      </trkpt>
      <trkpt lat="43.07982" lon="-0.5781">
        <ele>436.11</ele>
        <time>2024-05-29T23:19:30.999Z</time>
      </trkpt>
      <trkpt lat="43.07976" lon="-0.57813">
        <ele>434.66</ele>
        <time>2024-05-29T23:19:41.706Z</time>
      </trkpt>
      <trkpt lat="43.07964" lon="-0.57826">
        <ele>432.92</ele>
        <time>2024-05-29T23:19:52.416Z</time>
      </trkpt>
      <trkpt lat="43.07925" lon="-0.57885">
        <ele>431.27</ele>
        <time>2024-05-29T23:20:03.137Z</time>
      </trkpt>
      <trkpt lat="43.07915" lon="-0.57904">
        <ele>429.58</ele>
        <time>2024-05-29T23:20:13.861Z</time>
      </trkpt>
      <trkpt lat="43.07912" lon="-0.57922">
        <ele>427.89</ele>
        <time>2024-05-29T23:20:24.587Z</time>
      </trkpt>
      <trkpt lat="43.07911" lon="-0.57976">
        <ele>426.33</ele>
        <time>2024-05-29T23:20:35.321Z</time>
      </trkpt>
      <trkpt lat="43.07909" lon="-0.58002">
        <ele>424.46</ele>
        <time>2024-05-29T23:20:46.058Z</time>
      </trkpt>
      <trkpt lat="43.07889" lon="-0.58095">
        <ele>421.83</ele>
        <time>2024-05-29T23:20:56.808Z</time>
      </trkpt>
      <trkpt lat="43.07886" lon="-0.58125">
        <ele>419.74</ele>
        <time>2024-05-29T23:21:07.563Z</time>
      </trkpt>
      <trkpt lat="43.07886" lon="-0.58158">
        <ele>417.56</ele>
        <time>2024-05-29T23:21:18.322Z</time>
      </trkpt>
      <trkpt lat="43.07881" lon="-0.58179">
        <ele>415.29</ele>
        <time>2024-05-29T23:21:29.084Z</time>
      </trkpt>
      <trkpt lat="43.0787" lon="-0.5821">
        <ele>413.04</ele>
        <time>2024-05-29T23:21:39.851Z</time>
      </trkpt>
      <trkpt lat="43.07866" lon="-0.58231">
        <ele>410.91</ele>
        <time>2024-05-29T23:21:50.621Z</time>
      </trkpt>
      <trkpt lat="43.07866" lon="-0.58305">
        <ele>408.62</ele>
        <time>2024-05-29T23:22:01.401Z</time>
      </trkpt>
      <trkpt lat="43.07869" lon="-0.58374">
        <ele>406</ele>
        <time>2024-05-29T23:22:12.190Z</time>
      </trkpt>
      <trkpt lat="43.07895" lon="-0.58472">
        <ele>403.64</ele>
        <time>2024-05-29T23:22:22.993Z</time>
      </trkpt>
      <trkpt lat="43.07899" lon="-0.58503">
        <ele>401.31</ele>
        <time>2024-05-29T23:22:33.801Z</time>
      </trkpt>
      <trkpt lat="43.07905" lon="-0.58565">
        <ele>399</ele>
        <time>2024-05-29T23:22:44.617Z</time>
      </trkpt>
      <trkpt lat="43.07905" lon="-0.58595">
        <ele>396.59</ele>
        <time>2024-05-29T23:22:55.437Z</time>
      </trkpt>
      <trkpt lat="43.07903" lon="-0.58617">
        <ele>394.14</ele>
        <time>2024-05-29T23:23:06.260Z</time>
      </trkpt>
      <trkpt lat="43.07896" lon="-0.58662">
        <ele>391.8</ele>
        <time>2024-05-29T23:23:17.090Z</time>
      </trkpt>
      <trkpt lat="43.07885" lon="-0.58705">
        <ele>389.26</ele>
        <time>2024-05-29T23:23:27.926Z</time>
      </trkpt>
      <trkpt lat="43.07864" lon="-0.58778">
        <ele>386.66</ele>
        <time>2024-05-29T23:23:38.773Z</time>
      </trkpt>
      <trkpt lat="43.0785" lon="-0.58848">
        <ele>383.86</ele>
        <time>2024-05-29T23:23:49.629Z</time>
      </trkpt>
      <trkpt lat="43.07849" lon="-0.58863">
        <ele>381.53</ele>
        <time>2024-05-29T23:24:00.488Z</time>
      </trkpt>
      <trkpt lat="43.07848" lon="-0.58952">
        <ele>379.36</ele>
        <time>2024-05-29T23:24:11.359Z</time>
      </trkpt>
      <trkpt lat="43.07845" lon="-0.59019">
        <ele>376.91</ele>
        <time>2024-05-29T23:24:22.239Z</time>
      </trkpt>
      <trkpt lat="43.07849" lon="-0.59054">
        <ele>374.76</ele>
        <time>2024-05-29T23:24:33.124Z</time>
      </trkpt>
      <trkpt lat="43.07852" lon="-0.59092">
        <ele>372.71</ele>
        <time>2024-05-29T23:24:44.014Z</time>
      </trkpt>
      <trkpt lat="43.07846" lon="-0.59208">
        <ele>370.47</ele>
        <time>2024-05-29T23:24:54.920Z</time>
      </trkpt>
      <trkpt lat="43.07837" lon="-0.59294">
        <ele>368.23</ele>
        <time>2024-05-29T23:25:05.838Z</time>
      </trkpt>
      <trkpt lat="43.07829" lon="-0.59344">
        <ele>366.37</ele>
        <time>2024-05-29T23:25:16.763Z</time>
      </trkpt>
      <trkpt lat="43.07822" lon="-0.59366">
        <ele>364.5</ele>
        <time>2024-05-29T23:25:27.691Z</time>
      </trkpt>
      <trkpt lat="43.07797" lon="-0.59429">
        <ele>362.52</ele>
        <time>2024-05-29T23:25:38.629Z</time>
      </trkpt>
      <trkpt lat="43.07791" lon="-0.59459">
        <ele>360.77</ele>
        <time>2024-05-29T23:25:49.571Z</time>
      </trkpt>
      <trkpt lat="43.07788" lon="-0.5949">
        <ele>359.12</ele>
        <time>2024-05-29T23:26:00.517Z</time>
      </trkpt>
      <trkpt lat="43.07792" lon="-0.59561">
        <ele>357.51</ele>
        <time>2024-05-29T23:26:11.473Z</time>
      </trkpt>
      <trkpt lat="43.07792" lon="-0.59579">
        <ele>355.98</ele>
        <time>2024-05-29T23:26:22.431Z</time>
      </trkpt>
      <trkpt lat="43.07788" lon="-0.59594">
        <ele>354.48</ele>
        <time>2024-05-29T23:26:33.391Z</time>
      </trkpt>
      <trkpt lat="43.07771" lon="-0.59636">
        <ele>352.93</ele>
        <time>2024-05-29T23:26:44.358Z</time>
      </trkpt>
      <trkpt lat="43.07763" lon="-0.59651">
        <ele>351.58</ele>
        <time>2024-05-29T23:26:55.327Z</time>
      </trkpt>
      <trkpt lat="43.07744" lon="-0.59677">
        <ele>350.28</ele>
        <time>2024-05-29T23:27:06.301Z</time>
      </trkpt>
      <trkpt lat="43.07734" lon="-0.59692">
        <ele>349.12</ele>
        <time>2024-05-29T23:27:17.278Z</time>
      </trkpt>
      <trkpt lat="43.07728" lon="-0.59709">
        <ele>348.11</ele>
        <time>2024-05-29T23:27:28.258Z</time>
      </trkpt>
      <trkpt lat="43.07723" lon="-0.59731">
        <ele>347.16</ele>
        <time>2024-05-29T23:27:39.241Z</time>
      </trkpt>
      <trkpt lat="43.07722" lon="-0.59853">
        <ele>346.14</ele>
        <time>2024-05-29T23:27:50.241Z</time>
      </trkpt>
      <trkpt lat="43.07712" lon="-0.59921">
        <ele>345.25</ele>
        <time>2024-05-29T23:28:01.250Z</time>
      </trkpt>
      <trkpt lat="43.07702" lon="-0.59962">
        <ele>344.41</ele>
        <time>2024-05-29T23:28:12.265Z</time>
      </trkpt>
      <trkpt lat="43.07698" lon="-0.59985">
        <ele>343.67</ele>
        <time>2024-05-29T23:28:23.283Z</time>
      </trkpt>
      <trkpt lat="43.07698" lon="-0.60003">
        <ele>343.04</ele>
        <time>2024-05-29T23:28:34.304Z</time>
      </trkpt>
      <trkpt lat="43.07705" lon="-0.60076">
        <ele>342.69</ele>
        <time>2024-05-29T23:28:45.335Z</time>
      </trkpt>
      <trkpt lat="43.07704" lon="-0.60106">
        <ele>342.3</ele>
        <time>2024-05-29T23:28:56.370Z</time>
      </trkpt>
      <trkpt lat="43.07689" lon="-0.60251">
        <ele>341.59</ele>
        <time>2024-05-29T23:29:07.425Z</time>
      </trkpt>
      <trkpt lat="43.07694" lon="-0.60309">
        <ele>341.26</ele>
        <time>2024-05-29T23:29:18.488Z</time>
      </trkpt>
      <trkpt lat="43.07692" lon="-0.60324">
        <ele>340.88</ele>
        <time>2024-05-29T23:29:29.553Z</time>
      </trkpt>
      <trkpt lat="43.07686" lon="-0.60361">
        <ele>340.58</ele>
        <time>2024-05-29T23:29:40.623Z</time>
      </trkpt>
      <trkpt lat="43.07685" lon="-0.60391">
        <ele>340.36</ele>
        <time>2024-05-29T23:29:51.697Z</time>
      </trkpt>
      <trkpt lat="43.0769" lon="-0.60508">
        <ele>340.29</ele>
        <time>2024-05-29T23:30:02.787Z</time>
      </trkpt>
      <trkpt lat="43.07688" lon="-0.60527">
        <ele>339.97</ele>
        <time>2024-05-29T23:30:13.880Z</time>
      </trkpt>
      <trkpt lat="43.07679" lon="-0.60585">
        <ele>339.33</ele>
        <time>2024-05-29T23:30:24.981Z</time>
      </trkpt>
      <trkpt lat="43.07674" lon="-0.60599">
        <ele>338.98</ele>
        <time>2024-05-29T23:30:36.084Z</time>
      </trkpt>
      <trkpt lat="43.07665" lon="-0.60611">
        <ele>338.59</ele>
        <time>2024-05-29T23:30:47.189Z</time>
      </trkpt>
      <trkpt lat="43.07668" lon="-0.60617">
        <ele>338.39</ele>
        <time>2024-05-29T23:30:58.295Z</time>
      </trkpt>
      <trkpt lat="43.07692" lon="-0.60677">
        <ele>338.35</ele>
        <time>2024-05-29T23:31:09.410Z</time>
      </trkpt>
      <trkpt lat="43.07699" lon="-0.60691">
        <ele>338.11</ele>
        <time>2024-05-29T23:31:20.528Z</time>
      </trkpt>
      <trkpt lat="43.07728" lon="-0.60723">
        <ele>337.85</ele>
        <time>2024-05-29T23:31:31.653Z</time>
      </trkpt>
      <trkpt lat="43.07753" lon="-0.6074">
        <ele>337.67</ele>
        <time>2024-05-29T23:31:42.783Z</time>
      </trkpt>
      <trkpt lat="43.07785" lon="-0.60769">
        <ele>337.31</ele>
        <time>2024-05-29T23:31:53.920Z</time>
      </trkpt>
      <trkpt lat="43.07801" lon="-0.60787">
        <ele>337.03</ele>
        <time>2024-05-29T23:32:05.061Z</time>
      </trkpt>
      <trkpt lat="43.07881" lon="-0.60845">
        <ele>336.64</ele>
        <time>2024-05-29T23:32:16.219Z</time>
      </trkpt>
      <trkpt lat="43.07921" lon="-0.60863">
        <ele>336.45</ele>
        <time>2024-05-29T23:32:27.385Z</time>
      </trkpt>
      <trkpt lat="43.07978" lon="-0.60879">
        <ele>336.27</ele>
        <time>2024-05-29T23:32:38.561Z</time>
      </trkpt>
      <trkpt lat="43.08027" lon="-0.60885">
        <ele>336.05</ele>
        <time>2024-05-29T23:32:49.747Z</time>
      </trkpt>
      <trkpt lat="43.08043" lon="-0.60885">
        <ele>335.84</ele>
        <time>2024-05-29T23:33:00.936Z</time>
      </trkpt>
      <trkpt lat="43.08105" lon="-0.60872">
        <ele>335.52</ele>
        <time>2024-05-29T23:33:12.136Z</time>
      </trkpt>
      <trkpt lat="43.08125" lon="-0.60856">
        <ele>335.35</ele>
        <time>2024-05-29T23:33:23.341Z</time>
      </trkpt>
      <trkpt lat="43.08133" lon="-0.60854">
        <ele>335.17</ele>
        <time>2024-05-29T23:33:34.547Z</time>
      </trkpt>
      <trkpt lat="43.08143" lon="-0.60855">
        <ele>334.98</ele>
        <time>2024-05-29T23:33:45.755Z</time>
      </trkpt>
      <trkpt lat="43.08181" lon="-0.60871">
        <ele>334.8</ele>
        <time>2024-05-29T23:33:56.970Z</time>
      </trkpt>
      <trkpt lat="43.0821" lon="-0.60876">
        <ele>334.81</ele>
        <time>2024-05-29T23:34:08.191Z</time>
      </trkpt>
      <trkpt lat="43.0823" lon="-0.60869">
        <ele>334.65</ele>
        <time>2024-05-29T23:34:19.416Z</time>
      </trkpt>
      <trkpt lat="43.08267" lon="-0.60845">
        <ele>334.44</ele>
        <time>2024-05-29T23:34:30.648Z</time>
      </trkpt>
      <trkpt lat="43.08274" lon="-0.60844">
        <ele>334.14</ele>
        <time>2024-05-29T23:34:41.882Z</time>
      </trkpt>
      <trkpt lat="43.08284" lon="-0.60848">
        <ele>333.81</ele>
        <time>2024-05-29T23:34:53.117Z</time>
      </trkpt>
      <trkpt lat="43.08288" lon="-0.60852">
        <ele>333.37</ele>
        <time>2024-05-29T23:35:04.353Z</time>
      </trkpt>
      <trkpt lat="43.08294" lon="-0.60858">
        <ele>332.88</ele>
        <time>2024-05-29T23:35:15.591Z</time>
      </trkpt>
      <trkpt lat="43.08301" lon="-0.60871">
        <ele>332.39</ele>
        <time>2024-05-29T23:35:26.831Z</time>
      </trkpt>
      <trkpt lat="43.08304" lon="-0.60882">
        <ele>331.79</ele>
        <time>2024-05-29T23:35:38.073Z</time>
      </trkpt>
      <trkpt lat="43.08308" lon="-0.60912">
        <ele>331.13</ele>
        <time>2024-05-29T23:35:49.319Z</time>
      </trkpt>
      <trkpt lat="43.08325" lon="-0.60969">
        <ele>330.45</ele>
        <time>2024-05-29T23:36:00.573Z</time>
      </trkpt>
      <trkpt lat="43.08346" lon="-0.61053">
        <ele>329.27</ele>
        <time>2024-05-29T23:36:11.839Z</time>
      </trkpt>
      <trkpt lat="43.08355" lon="-0.6108">
        <ele>328.38</ele>
        <time>2024-05-29T23:36:23.109Z</time>
      </trkpt>
      <trkpt lat="43.08365" lon="-0.61096">
        <ele>327.53</ele>
        <time>2024-05-29T23:36:34.382Z</time>
      </trkpt>
      <trkpt lat="43.08377" lon="-0.6111">
        <ele>326.76</ele>
        <time>2024-05-29T23:36:45.658Z</time>
      </trkpt>
      <trkpt lat="43.08413" lon="-0.61135">
        <ele>326.06</ele>
        <time>2024-05-29T23:36:56.942Z</time>
      </trkpt>
      <trkpt lat="43.08437" lon="-0.61158">
        <ele>325.23</ele>
        <time>2024-05-29T23:37:08.231Z</time>
      </trkpt>
      <trkpt lat="43.08442" lon="-0.61162">
        <ele>324.56</ele>
        <time>2024-05-29T23:37:19.521Z</time>
      </trkpt>
      <trkpt lat="43.08455" lon="-0.61166">
        <ele>323.97</ele>
        <time>2024-05-29T23:37:30.814Z</time>
      </trkpt>
      <trkpt lat="43.08474" lon="-0.61166">
        <ele>323.47</ele>
        <time>2024-05-29T23:37:42.110Z</time>
      </trkpt>
      <trkpt lat="43.08489" lon="-0.61162">
        <ele>323.05</ele>
        <time>2024-05-29T23:37:53.409Z</time>
      </trkpt>
      <trkpt lat="43.08553" lon="-0.61129">
        <ele>322.65</ele>
        <time>2024-05-29T23:38:04.721Z</time>
      </trkpt>
      <trkpt lat="43.08622" lon="-0.61118">
        <ele>322.15</ele>
        <time>2024-05-29T23:38:16.046Z</time>
      </trkpt>
      <trkpt lat="43.08663" lon="-0.61109">
        <ele>321.8</ele>
        <time>2024-05-29T23:38:27.378Z</time>
      </trkpt>
      <trkpt lat="43.08722" lon="-0.61106">
        <ele>321.52</ele>
        <time>2024-05-29T23:38:38.721Z</time>
      </trkpt>
      <trkpt lat="43.08763" lon="-0.61101">
        <ele>321.45</ele>
        <time>2024-05-29T23:38:50.072Z</time>
      </trkpt>
      <trkpt lat="43.08817" lon="-0.61087">
        <ele>321.29</ele>
        <time>2024-05-29T23:39:01.433Z</time>
      </trkpt>
      <trkpt lat="43.08847" lon="-0.61067">
        <ele>321.6</ele>
        <time>2024-05-29T23:39:12.800Z</time>
      </trkpt>
      <trkpt lat="43.08853" lon="-0.61067">
        <ele>321.93</ele>
        <time>2024-05-29T23:39:24.169Z</time>
      </trkpt>
      <trkpt lat="43.08933" lon="-0.61069">
        <ele>322.65</ele>
        <time>2024-05-29T23:39:35.552Z</time>
      </trkpt>
      <trkpt lat="43.09009" lon="-0.61082">
        <ele>323.69</ele>
        <time>2024-05-29T23:39:46.950Z</time>
      </trkpt>
      <trkpt lat="43.09053" lon="-0.61099">
        <ele>324.32</ele>
        <time>2024-05-29T23:39:58.356Z</time>
      </trkpt>
      <trkpt lat="43.09117" lon="-0.61118">
        <ele>324.79</ele>
        <time>2024-05-29T23:40:09.774Z</time>
      </trkpt>
      <trkpt lat="43.09163" lon="-0.61117">
        <ele>325.78</ele>
        <time>2024-05-29T23:40:21.201Z</time>
      </trkpt>
      <trkpt lat="43.09174" lon="-0.61121">
        <ele>326.78</ele>
        <time>2024-05-29T23:40:32.630Z</time>
      </trkpt>
      <trkpt lat="43.09277" lon="-0.6124">
        <ele>327.65</ele>
        <time>2024-05-29T23:40:44.084Z</time>
      </trkpt>
      <trkpt lat="43.093" lon="-0.61252">
        <ele>328.51</ele>
        <time>2024-05-29T23:40:55.543Z</time>
      </trkpt>
      <trkpt lat="43.09376" lon="-0.61269">
        <ele>329.86</ele>
        <time>2024-05-29T23:41:07.016Z</time>
      </trkpt>
      <trkpt lat="43.09442" lon="-0.61274">
        <ele>330.83</ele>
        <time>2024-05-29T23:41:18.501Z</time>
      </trkpt>
      <trkpt lat="43.09486" lon="-0.61272">
        <ele>332.03</ele>
        <time>2024-05-29T23:41:29.995Z</time>
      </trkpt>
      <trkpt lat="43.0959" lon="-0.61244">
        <ele>333.25</ele>
        <time>2024-05-29T23:41:41.508Z</time>
      </trkpt>
      <trkpt lat="43.09667" lon="-0.6124">
        <ele>334.4</ele>
        <time>2024-05-29T23:41:53.036Z</time>
      </trkpt>
      <trkpt lat="43.09725" lon="-0.61243">
        <ele>335.84</ele>
        <time>2024-05-29T23:42:04.574Z</time>
      </trkpt>
      <trkpt lat="43.0976" lon="-0.61255">
        <ele>337.25</ele>
        <time>2024-05-29T23:42:16.119Z</time>
      </trkpt>
      <trkpt lat="43.09828" lon="-0.61256">
        <ele>338.51</ele>
        <time>2024-05-29T23:42:27.677Z</time>
      </trkpt>
      <trkpt lat="43.0987" lon="-0.61248">
        <ele>339.91</ele>
        <time>2024-05-29T23:42:39.243Z</time>
      </trkpt>
      <trkpt lat="43.09894" lon="-0.61249">
        <ele>341.16</ele>
        <time>2024-05-29T23:42:50.813Z</time>
      </trkpt>
      <trkpt lat="43.09945" lon="-0.61257">
        <ele>342.55</ele>
        <time>2024-05-29T23:43:02.393Z</time>
      </trkpt>
      <trkpt lat="43.10015" lon="-0.61279">
        <ele>344.42</ele>
        <time>2024-05-29T23:43:13.986Z</time>
      </trkpt>
      <trkpt lat="43.10103" lon="-0.61324">
        <ele>345.04</ele>
        <time>2024-05-29T23:43:25.597Z</time>
      </trkpt>
      <trkpt lat="43.10153" lon="-0.61359">
        <ele>346.12</ele>
        <time>2024-05-29T23:43:37.218Z</time>
      </trkpt>
      <trkpt lat="43.10166" lon="-0.61363">
        <ele>346.95</ele>
        <time>2024-05-29T23:43:48.841Z</time>
      </trkpt>
      <trkpt lat="43.10216" lon="-0.61367">
        <ele>347.68</ele>
        <time>2024-05-29T23:44:00.474Z</time>
      </trkpt>
      <trkpt lat="43.10254" lon="-0.61375">
        <ele>348.25</ele>
        <time>2024-05-29T23:44:12.114Z</time>
      </trkpt>
      <trkpt lat="43.1029" lon="-0.61387">
        <ele>348.71</ele>
        <time>2024-05-29T23:44:23.761Z</time>
      </trkpt>
      <trkpt lat="43.10331" lon="-0.61413">
        <ele>348.85</ele>
        <time>2024-05-29T23:44:35.416Z</time>
      </trkpt>
      <trkpt lat="43.10387" lon="-0.61453">
        <ele>349.08</ele>
        <time>2024-05-29T23:44:47.083Z</time>
      </trkpt>
      <trkpt lat="43.10409" lon="-0.61474">
        <ele>348.85</ele>
        <time>2024-05-29T23:44:58.755Z</time>
      </trkpt>
      <trkpt lat="43.10435" lon="-0.61508">
        <ele>348.5</ele>
        <time>2024-05-29T23:45:10.434Z</time>
      </trkpt>
      <trkpt lat="43.10457" lon="-0.6153">
        <ele>347.83</ele>
        <time>2024-05-29T23:45:22.118Z</time>
      </trkpt>
      <trkpt lat="43.105" lon="-0.61546">
        <ele>347.06</ele>
        <time>2024-05-29T23:45:33.810Z</time>
      </trkpt>
      <trkpt lat="43.10505" lon="-0.61545">
        <ele>346.09</ele>
        <time>2024-05-29T23:45:45.503Z</time>
      </trkpt>
      <trkpt lat="43.1053" lon="-0.61542">
        <ele>344.9</ele>
        <time>2024-05-29T23:45:57.201Z</time>
      </trkpt>
      <trkpt lat="43.10577" lon="-0.615">
        <ele>343.44</ele>
        <time>2024-05-29T23:46:08.909Z</time>
      </trkpt>
      <trkpt lat="43.1066" lon="-0.61451">
        <ele>341.84</ele>
        <time>2024-05-29T23:46:20.634Z</time>
      </trkpt>
      <trkpt lat="43.10713" lon="-0.614">
        <ele>339.56</ele>
        <time>2024-05-29T23:46:32.371Z</time>
      </trkpt>
      <trkpt lat="43.10848" lon="-0.61304">
        <ele>337.09</ele>
        <time>2024-05-29T23:46:44.136Z</time>
      </trkpt>
      <trkpt lat="43.10864" lon="-0.61298">
        <ele>335.29</ele>
        <time>2024-05-29T23:46:55.904Z</time>
      </trkpt>
      <trkpt lat="43.10875" lon="-0.61298">
        <ele>333.41</ele>
        <time>2024-05-29T23:47:07.674Z</time>
      </trkpt>
      <trkpt lat="43.10907" lon="-0.61307">
        <ele>331.35</ele>
        <time>2024-05-29T23:47:19.451Z</time>
      </trkpt>
      <trkpt lat="43.10913" lon="-0.61306">
        <ele>329.33</ele>
        <time>2024-05-29T23:47:31.229Z</time>
      </trkpt>
      <trkpt lat="43.10919" lon="-0.61301">
        <ele>327.3</ele>
        <time>2024-05-29T23:47:43.008Z</time>
      </trkpt>
      <trkpt lat="43.10944" lon="-0.61263">
        <ele>325.24</ele>
        <time>2024-05-29T23:47:54.794Z</time>
      </trkpt>
      <trkpt lat="43.10971" lon="-0.61211">
        <ele>323.1</ele>
        <time>2024-05-29T23:48:06.589Z</time>
      </trkpt>
      <trkpt lat="43.10981" lon="-0.61197">
        <ele>321.06</ele>
        <time>2024-05-29T23:48:18.386Z</time>
      </trkpt>
      <trkpt lat="43.11039" lon="-0.61127">
        <ele>319.09</ele>
        <time>2024-05-29T23:48:30.198Z</time>
      </trkpt>
      <trkpt lat="43.11062" lon="-0.61108">
        <ele>317.15</ele>
        <time>2024-05-29T23:48:42.015Z</time>
      </trkpt>
      <trkpt lat="43.11098" lon="-0.61085">
        <ele>315.15</ele>
        <time>2024-05-29T23:48:53.839Z</time>
      </trkpt>
      <trkpt lat="43.11139" lon="-0.61063">
        <ele>313.11</ele>
        <time>2024-05-29T23:49:05.671Z</time>
      </trkpt>
      <trkpt lat="43.11155" lon="-0.61048">
        <ele>311.24</ele>
        <time>2024-05-29T23:49:17.507Z</time>
      </trkpt>
      <trkpt lat="43.11165" lon="-0.61037">
        <ele>309.43</ele>
        <time>2024-05-29T23:49:29.345Z</time>
      </trkpt>
      <trkpt lat="43.1118" lon="-0.61008">
        <ele>307.65</ele>
        <time>2024-05-29T23:49:41.188Z</time>
      </trkpt>
      <trkpt lat="43.11187" lon="-0.60966">
        <ele>305.95</ele>
        <time>2024-05-29T23:49:53.037Z</time>
      </trkpt>
      <trkpt lat="43.11188" lon="-0.60897">
        <ele>304.29</ele>
        <time>2024-05-29T23:50:04.895Z</time>
      </trkpt>
      <trkpt lat="43.11195" lon="-0.60879">
        <ele>302.7</ele>
        <time>2024-05-29T23:50:16.756Z</time>
      </trkpt>
      <trkpt lat="43.11254" lon="-0.60784">
        <ele>301.1</ele>
        <time>2024-05-29T23:50:28.634Z</time>
      </trkpt>
      <trkpt lat="43.11255" lon="-0.60755">
        <ele>299.58</ele>
        <time>2024-05-29T23:50:40.516Z</time>
      </trkpt>
      <trkpt lat="43.11264" lon="-0.60727">
        <ele>298.1</ele>
        <time>2024-05-29T23:50:52.402Z</time>
      </trkpt>
      <trkpt lat="43.11276" lon="-0.6071">
        <ele>296.71</ele>
        <time>2024-05-29T23:51:04.291Z</time>
      </trkpt>
      <trkpt lat="43.11287" lon="-0.60703">
        <ele>295.35</ele>
        <time>2024-05-29T23:51:16.183Z</time>
      </trkpt>
      <trkpt lat="43.11343" lon="-0.60711">
        <ele>293.89</ele>
        <time>2024-05-29T23:51:28.085Z</time>
      </trkpt>
      <trkpt lat="43.11385" lon="-0.60709">
        <ele>292.53</ele>
        <time>2024-05-29T23:51:39.995Z</time>
      </trkpt>
      <trkpt lat="43.11405" lon="-0.60699">
        <ele>291.25</ele>
        <time>2024-05-29T23:51:51.909Z</time>
      </trkpt>
      <trkpt lat="43.11494" lon="-0.60646">
        <ele>302.84</ele>
        <time>2024-05-29T23:52:03.841Z</time>
      </trkpt>
      <trkpt lat="43.11499" lon="-0.6065">
        <ele>288.73</ele>
        <time>2024-05-29T23:52:15.774Z</time>
      </trkpt>
      <trkpt lat="43.11542" lon="-0.60686">
        <ele>300.64</ele>
        <time>2024-05-29T23:52:27.716Z</time>
      </trkpt>
      <trkpt lat="43.11547" lon="-0.60696">
        <ele>298.42</ele>
        <time>2024-05-29T23:52:39.660Z</time>
      </trkpt>
      <trkpt lat="43.11549" lon="-0.60707">
        <ele>296.2</ele>
        <time>2024-05-29T23:52:51.606Z</time>
      </trkpt>
      <trkpt lat="43.11552" lon="-0.60748">
        <ele>293.95</ele>
        <time>2024-05-29T23:53:03.557Z</time>
      </trkpt>
      <trkpt lat="43.11558" lon="-0.60771">
        <ele>291.68</ele>
        <time>2024-05-29T23:53:15.512Z</time>
      </trkpt>
      <trkpt lat="43.11589" lon="-0.60823">
        <ele>289.2</ele>
        <time>2024-05-29T23:53:27.476Z</time>
      </trkpt>
      <trkpt lat="43.11597" lon="-0.60832">
        <ele>287.07</ele>
        <time>2024-05-29T23:53:39.442Z</time>
      </trkpt>
      <trkpt lat="43.11611" lon="-0.60838">
        <ele>284.95</ele>
        <time>2024-05-29T23:53:51.410Z</time>
      </trkpt>
      <trkpt lat="43.11621" lon="-0.60839">
        <ele>282.93</ele>
        <time>2024-05-29T23:54:03.380Z</time>
      </trkpt>
      <trkpt lat="43.11685" lon="-0.60841">
        <ele>280.75</ele>
        <time>2024-05-29T23:54:15.362Z</time>
      </trkpt>
      <trkpt lat="43.11766" lon="-0.60812">
        <ele>275.25</ele>
        <time>2024-05-29T23:54:27.360Z</time>
      </trkpt>
      <trkpt lat="43.11794" lon="-0.60804">
        <ele>278.88</ele>
        <time>2024-05-29T23:54:39.363Z</time>
      </trkpt>
      <trkpt lat="43.11807" lon="-0.60802">
        <ele>277.23</ele>
        <time>2024-05-29T23:54:51.369Z</time>
      </trkpt>
      <trkpt lat="43.1182" lon="-0.60806">
        <ele>275.68</ele>
        <time>2024-05-29T23:55:03.377Z</time>
      </trkpt>
      <trkpt lat="43.11829" lon="-0.60814">
        <ele>274.3</ele>
        <time>2024-05-29T23:55:15.387Z</time>
      </trkpt>
      <trkpt lat="43.11837" lon="-0.60826">
        <ele>273.05</ele>
        <time>2024-05-29T23:55:27.399Z</time>
      </trkpt>
      <trkpt lat="43.11915" lon="-0.60978">
        <ele>271.81</ele>
        <time>2024-05-29T23:55:39.436Z</time>
      </trkpt>
      <trkpt lat="43.11926" lon="-0.6099">
        <ele>270.86</ele>
        <time>2024-05-29T23:55:51.476Z</time>
      </trkpt>
      <trkpt lat="43.11942" lon="-0.61001">
        <ele>270.07</ele>
        <time>2024-05-29T23:56:03.519Z</time>
      </trkpt>
      <trkpt lat="43.11989" lon="-0.61024">
        <ele>269.53</ele>
        <time>2024-05-29T23:56:15.572Z</time>
      </trkpt>
      <trkpt lat="43.12029" lon="-0.61076">
        <ele>270.11</ele>
        <time>2024-05-29T23:56:27.635Z</time>
      </trkpt>
      <trkpt lat="43.1212" lon="-0.612">
        <ele>268.77</ele>
        <time>2024-05-29T23:56:39.722Z</time>
      </trkpt>
      <trkpt lat="43.12158" lon="-0.61244">
        <ele>268.55</ele>
        <time>2024-05-29T23:56:51.818Z</time>
      </trkpt>
      <trkpt lat="43.12188" lon="-0.61291">
        <ele>268.43</ele>
        <time>2024-05-29T23:57:03.923Z</time>
      </trkpt>
      <trkpt lat="43.12185" lon="-0.61294">
        <ele>268.34</ele>
        <time>2024-05-29T23:57:16.028Z</time>
      </trkpt>
      <trkpt lat="43.12208" lon="-0.61332">
        <ele>268.4</ele>
        <time>2024-05-29T23:57:28.140Z</time>
      </trkpt>
      <trkpt lat="43.12208" lon="-0.61342">
        <ele>268.48</ele>
        <time>2024-05-29T23:57:40.253Z</time>
      </trkpt>
      <trkpt lat="43.12205" lon="-0.61352">
        <ele>268.64</ele>
        <time>2024-05-29T23:57:52.368Z</time>
      </trkpt>
      <trkpt lat="43.12201" lon="-0.61356">
        <ele>268.86</ele>
        <time>2024-05-29T23:58:04.484Z</time>
      </trkpt>
      <trkpt lat="43.12191" lon="-0.61358">
        <ele>269.13</ele>
        <time>2024-05-29T23:58:16.602Z</time>
      </trkpt>
      <trkpt lat="43.12192" lon="-0.61362">
        <ele>269.49</ele>
        <time>2024-05-29T23:58:28.720Z</time>
      </trkpt>
      <trkpt lat="43.1209" lon="-0.61389">
        <ele>272.27</ele>
        <time>2024-05-29T23:58:40.858Z</time>
      </trkpt>
      <trkpt lat="43.12078" lon="-0.6139">
        <ele>272.64</ele>
        <time>2024-05-29T23:58:52.998Z</time>
      </trkpt>
      <trkpt lat="43.11891" lon="-0.61383">
        <ele>270.21</ele>
        <time>2024-05-29T23:59:05.173Z</time>
      </trkpt>
      <trkpt lat="43.11865" lon="-0.61384">
        <ele>270.69</ele>
        <time>2024-05-29T23:59:17.353Z</time>
      </trkpt>
      <trkpt lat="43.11832" lon="-0.61389">
        <ele>274.07</ele>
        <time>2024-05-29T23:59:29.539Z</time>
      </trkpt>
      <trkpt lat="43.11818" lon="-0.61394">
        <ele>271.86</ele>
        <time>2024-05-29T23:59:41.727Z</time>
      </trkpt>
      <trkpt lat="43.11803" lon="-0.61406">
        <ele>272.62</ele>
        <time>2024-05-29T23:59:53.919Z</time>
      </trkpt>
      <trkpt lat="43.11753" lon="-0.61452">
        <ele>275.96</ele>
        <time>2024-05-30T00:00:06.122Z</time>
      </trkpt>
      <trkpt lat="43.11529" lon="-0.61669">
        <ele>273.95</ele>
        <time>2024-05-30T00:00:18.376Z</time>
      </trkpt>
      <trkpt lat="43.11513" lon="-0.61688">
        <ele>277.21</ele>
        <time>2024-05-30T00:00:30.634Z</time>
      </trkpt>
      <trkpt lat="43.115" lon="-0.61712">
        <ele>275.56</ele>
        <time>2024-05-30T00:00:42.896Z</time>
      </trkpt>
      <trkpt lat="43.11244" lon="-0.62316">
        <ele>276.45</ele>
        <time>2024-05-30T00:00:55.253Z</time>
      </trkpt>
      <trkpt lat="43.1124" lon="-0.62322">
        <ele>279.44</ele>
        <time>2024-05-30T00:01:07.611Z</time>
      </trkpt>
      <trkpt lat="43.11226" lon="-0.62345">
        <ele>277.28</ele>
        <time>2024-05-30T00:01:19.973Z</time>
      </trkpt>
      <trkpt lat="43.1121" lon="-0.62359">
        <ele>278.14</ele>
        <time>2024-05-30T00:01:32.339Z</time>
      </trkpt>
      <trkpt lat="43.11067" lon="-0.62455">
        <ele>279.05</ele>
        <time>2024-05-30T00:01:44.734Z</time>
      </trkpt>
      <trkpt lat="43.11016" lon="-0.62485">
        <ele>279.87</ele>
        <time>2024-05-30T00:01:57.140Z</time>
      </trkpt>
      <trkpt lat="43.11003" lon="-0.62509">
        <ele>283.5</ele>
        <time>2024-05-30T00:02:09.550Z</time>
      </trkpt>
      <trkpt lat="43.10995" lon="-0.62528">
        <ele>283.85</ele>
        <time>2024-05-30T00:02:21.963Z</time>
      </trkpt>
      <trkpt lat="43.10989" lon="-0.62545">
        <ele>284.9</ele>
        <time>2024-05-30T00:02:34.378Z</time>
      </trkpt>
      <trkpt lat="43.10986" lon="-0.62571">
        <ele>286</ele>
        <time>2024-05-30T00:02:46.797Z</time>
      </trkpt>
      <trkpt lat="43.10983" lon="-0.62667">
        <ele>287.28</ele>
        <time>2024-05-30T00:02:59.229Z</time>
      </trkpt>
      <trkpt lat="43.10985" lon="-0.62712">
        <ele>288.4</ele>
        <time>2024-05-30T00:03:11.667Z</time>
      </trkpt>
      <trkpt lat="43.1099" lon="-0.62732">
        <ele>289.39</ele>
        <time>2024-05-30T00:03:24.108Z</time>
      </trkpt>
      <trkpt lat="43.10995" lon="-0.6275">
        <ele>290.4</ele>
        <time>2024-05-30T00:03:36.552Z</time>
      </trkpt>
      <trkpt lat="43.1103" lon="-0.62795">
        <ele>291.35</ele>
        <time>2024-05-30T00:03:49.005Z</time>
      </trkpt>
      <trkpt lat="43.11097" lon="-0.62892">
        <ele>292.81</ele>
        <time>2024-05-30T00:04:01.476Z</time>
      </trkpt>
      <trkpt lat="43.11123" lon="-0.62958">
        <ele>293.82</ele>
        <time>2024-05-30T00:04:13.957Z</time>
      </trkpt>
      <trkpt lat="43.11132" lon="-0.62988">
        <ele>294.9</ele>
        <time>2024-05-30T00:04:26.442Z</time>
      </trkpt>
      <trkpt lat="43.11138" lon="-0.63028">
        <ele>295.7</ele>
        <time>2024-05-30T00:04:38.933Z</time>
      </trkpt>
      <trkpt lat="43.11139" lon="-0.63077">
        <ele>296.55</ele>
        <time>2024-05-30T00:04:51.431Z</time>
      </trkpt>
      <trkpt lat="43.11137" lon="-0.63096">
        <ele>297.24</ele>
        <time>2024-05-30T00:05:03.931Z</time>
      </trkpt>
      <trkpt lat="43.11133" lon="-0.63117">
        <ele>297.77</ele>
        <time>2024-05-30T00:05:16.434Z</time>
      </trkpt>
      <trkpt lat="43.1112" lon="-0.63147">
        <ele>298.07</ele>
        <time>2024-05-30T00:05:28.942Z</time>
      </trkpt>
      <trkpt lat="43.11109" lon="-0.63161">
        <ele>298.54</ele>
        <time>2024-05-30T00:05:41.453Z</time>
      </trkpt>
      <trkpt lat="43.11093" lon="-0.63173">
        <ele>298.9</ele>
        <time>2024-05-30T00:05:53.967Z</time>
      </trkpt>
      <trkpt lat="43.11008" lon="-0.63218">
        <ele>298.88</ele>
        <time>2024-05-30T00:06:06.498Z</time>
      </trkpt>
      <trkpt lat="43.10983" lon="-0.63244">
        <ele>299.25</ele>
        <time>2024-05-30T00:06:19.035Z</time>
      </trkpt>
      <trkpt lat="43.10974" lon="-0.63262">
        <ele>299.61</ele>
        <time>2024-05-30T00:06:31.575Z</time>
      </trkpt>
      <trkpt lat="43.10969" lon="-0.63282">
        <ele>299.97</ele>
        <time>2024-05-30T00:06:44.118Z</time>
      </trkpt>
      <trkpt lat="43.10967" lon="-0.63307">
        <ele>300.39</ele>
        <time>2024-05-30T00:06:56.664Z</time>
      </trkpt>
      <trkpt lat="43.10975" lon="-0.63375">
        <ele>301.01</ele>
        <time>2024-05-30T00:07:09.220Z</time>
      </trkpt>
      <trkpt lat="43.10971" lon="-0.63429">
        <ele>301.41</ele>
        <time>2024-05-30T00:07:21.783Z</time>
      </trkpt>
      <trkpt lat="43.10963" lon="-0.6351">
        <ele>301.91</ele>
        <time>2024-05-30T00:07:34.357Z</time>
      </trkpt>
      <trkpt lat="43.1095" lon="-0.63564">
        <ele>302.31</ele>
        <time>2024-05-30T00:07:46.939Z</time>
      </trkpt>
      <trkpt lat="43.1093" lon="-0.63608">
        <ele>302.61</ele>
        <time>2024-05-30T00:07:59.528Z</time>
      </trkpt>
      <trkpt lat="43.10864" lon="-0.63695">
        <ele>302.56</ele>
        <time>2024-05-30T00:08:12.134Z</time>
      </trkpt>
      <trkpt lat="43.10822" lon="-0.63772">
        <ele>302.74</ele>
        <time>2024-05-30T00:08:24.753Z</time>
      </trkpt>
      <trkpt lat="43.10819" lon="-0.63779">
        <ele>302.71</ele>
        <time>2024-05-30T00:08:37.373Z</time>
      </trkpt>
      <trkpt lat="43.10805" lon="-0.63817">
        <ele>303</ele>
        <time>2024-05-30T00:08:49.999Z</time>
      </trkpt>
      <trkpt lat="43.10766" lon="-0.63936">
        <ele>303.18</ele>
        <time>2024-05-30T00:09:02.643Z</time>
      </trkpt>
      <trkpt lat="43.10761" lon="-0.63962">
        <ele>303.57</ele>
        <time>2024-05-30T00:09:15.290Z</time>
      </trkpt>
      <trkpt lat="43.10758" lon="-0.63997">
        <ele>304.08</ele>
        <time>2024-05-30T00:09:27.942Z</time>
      </trkpt>
      <trkpt lat="43.10751" lon="-0.64051">
        <ele>304.62</ele>
        <time>2024-05-30T00:09:40.602Z</time>
      </trkpt>
      <trkpt lat="43.10717" lon="-0.6417">
        <ele>305.06</ele>
        <time>2024-05-30T00:09:53.279Z</time>
      </trkpt>
      <trkpt lat="43.10682" lon="-0.64241">
        <ele>305.17</ele>
        <time>2024-05-30T00:10:05.968Z</time>
      </trkpt>
      <trkpt lat="43.10668" lon="-0.64282">
        <ele>305.52</ele>
        <time>2024-05-30T00:10:18.663Z</time>
      </trkpt>
      <trkpt lat="43.10632" lon="-0.64428">
        <ele>305.14</ele>
        <time>2024-05-30T00:10:31.379Z</time>
      </trkpt>
      <trkpt lat="43.10628" lon="-0.64457">
        <ele>305.29</ele>
        <time>2024-05-30T00:10:44.099Z</time>
      </trkpt>
      <trkpt lat="43.10637" lon="-0.64534">
        <ele>305.86</ele>
        <time>2024-05-30T00:10:56.830Z</time>
      </trkpt>
      <trkpt lat="43.10637" lon="-0.64578">
        <ele>306.31</ele>
        <time>2024-05-30T00:11:09.567Z</time>
      </trkpt>
      <trkpt lat="43.10635" lon="-0.64609">
        <ele>306.46</ele>
        <time>2024-05-30T00:11:22.308Z</time>
      </trkpt>
      <trkpt lat="43.10626" lon="-0.6465">
        <ele>306.47</ele>
        <time>2024-05-30T00:11:35.055Z</time>
      </trkpt>
      <trkpt lat="43.10601" lon="-0.64736">
        <ele>306.46</ele>
        <time>2024-05-30T00:11:47.814Z</time>
      </trkpt>
      <trkpt lat="43.10596" lon="-0.64764">
        <ele>306.61</ele>
        <time>2024-05-30T00:12:00.577Z</time>
      </trkpt>
      <trkpt lat="43.10594" lon="-0.64823">
        <ele>306.71</ele>
        <time>2024-05-30T00:12:13.348Z</time>
      </trkpt>
      <trkpt lat="43.10581" lon="-0.64913">
        <ele>306.77</ele>
        <time>2024-05-30T00:12:26.132Z</time>
      </trkpt>
      <trkpt lat="43.10579" lon="-0.64997">
        <ele>307.08</ele>
        <time>2024-05-30T00:12:38.927Z</time>
      </trkpt>
      <trkpt lat="43.10571" lon="-0.65062">
        <ele>307.59</ele>
        <time>2024-05-30T00:12:51.731Z</time>
      </trkpt>
      <trkpt lat="43.10562" lon="-0.65176">
        <ele>307.97</ele>
        <time>2024-05-30T00:13:04.551Z</time>
      </trkpt>
      <trkpt lat="43.10562" lon="-0.65198">
        <ele>308.23</ele>
        <time>2024-05-30T00:13:17.374Z</time>
      </trkpt>
      <trkpt lat="43.10567" lon="-0.65246">
        <ele>308.23</ele>
        <time>2024-05-30T00:13:30.203Z</time>
      </trkpt>
      <trkpt lat="43.10568" lon="-0.65262">
        <ele>308.44</ele>
        <time>2024-05-30T00:13:43.035Z</time>
      </trkpt>
      <trkpt lat="43.10567" lon="-0.65275">
        <ele>308.73</ele>
        <time>2024-05-30T00:13:55.868Z</time>
      </trkpt>
      <trkpt lat="43.1056" lon="-0.65295">
        <ele>309</ele>
        <time>2024-05-30T00:14:08.704Z</time>
      </trkpt>
      <trkpt lat="43.1055" lon="-0.6531">
        <ele>309.32</ele>
        <time>2024-05-30T00:14:21.543Z</time>
      </trkpt>
      <trkpt lat="43.10466" lon="-0.65403">
        <ele>309.52</ele>
        <time>2024-05-30T00:14:34.402Z</time>
      </trkpt>
      <trkpt lat="43.10442" lon="-0.65434">
        <ele>310.11</ele>
        <time>2024-05-30T00:14:47.267Z</time>
      </trkpt>
      <trkpt lat="43.10423" lon="-0.65467">
        <ele>310.78</ele>
        <time>2024-05-30T00:15:00.138Z</time>
      </trkpt>
      <trkpt lat="43.10359" lon="-0.65634">
        <ele>311.5</ele>
        <time>2024-05-30T00:15:13.035Z</time>
      </trkpt>
      <trkpt lat="43.10349" lon="-0.65668">
        <ele>312.34</ele>
        <time>2024-05-30T00:15:25.937Z</time>
      </trkpt>
      <trkpt lat="43.10334" lon="-0.65734">
        <ele>313.27</ele>
        <time>2024-05-30T00:15:38.848Z</time>
      </trkpt>
      <trkpt lat="43.10308" lon="-0.65862">
        <ele>314.25</ele>
        <time>2024-05-30T00:15:51.777Z</time>
      </trkpt>
      <trkpt lat="43.10303" lon="-0.6588">
        <ele>315.11</ele>
        <time>2024-05-30T00:16:04.709Z</time>
      </trkpt>
      <trkpt lat="43.10296" lon="-0.65895">
        <ele>316.01</ele>
        <time>2024-05-30T00:16:17.643Z</time>
      </trkpt>
      <trkpt lat="43.10291" lon="-0.65901">
        <ele>316.14</ele>
        <time>2024-05-30T00:16:30.579Z</time>
      </trkpt>
      <trkpt lat="43.10231" lon="-0.6596">
        <ele>317.25</ele>
        <time>2024-05-30T00:16:43.528Z</time>
      </trkpt>
      <trkpt lat="43.10215" lon="-0.6597">
        <ele>318.37</ele>
        <time>2024-05-30T00:16:56.481Z</time>
      </trkpt>
      <trkpt lat="43.10148" lon="-0.65979">
        <ele>319.44</ele>
        <time>2024-05-30T00:17:09.446Z</time>
      </trkpt>
      <trkpt lat="43.10122" lon="-0.65986">
        <ele>320.47</ele>
        <time>2024-05-30T00:17:22.416Z</time>
      </trkpt>
      <trkpt lat="43.10105" lon="-0.65997">
        <ele>321.56</ele>
        <time>2024-05-30T00:17:35.390Z</time>
      </trkpt>
      <trkpt lat="43.10097" lon="-0.66004">
        <ele>322.68</ele>
        <time>2024-05-30T00:17:48.365Z</time>
      </trkpt>
      <trkpt lat="43.10094" lon="-0.6601">
        <ele>323.74</ele>
        <time>2024-05-30T00:18:01.341Z</time>
      </trkpt>
      <trkpt lat="43.10088" lon="-0.66029">
        <ele>324.83</ele>
        <time>2024-05-30T00:18:14.320Z</time>
      </trkpt>
      <trkpt lat="43.10089" lon="-0.66042">
        <ele>325.9</ele>
        <time>2024-05-30T00:18:27.301Z</time>
      </trkpt>
      <trkpt lat="43.10093" lon="-0.66059">
        <ele>326.96</ele>
        <time>2024-05-30T00:18:40.284Z</time>
      </trkpt>
      <trkpt lat="43.10101" lon="-0.66084">
        <ele>328</ele>
        <time>2024-05-30T00:18:53.271Z</time>
      </trkpt>
      <trkpt lat="43.10105" lon="-0.66112">
        <ele>329.08</ele>
        <time>2024-05-30T00:19:06.262Z</time>
      </trkpt>
      <trkpt lat="43.10113" lon="-0.66147">
        <ele>330.14</ele>
        <time>2024-05-30T00:19:19.258Z</time>
      </trkpt>
      <trkpt lat="43.1011" lon="-0.66206">
        <ele>331.12</ele>
        <time>2024-05-30T00:19:32.262Z</time>
      </trkpt>
      <trkpt lat="43.10106" lon="-0.66221">
        <ele>332.02</ele>
        <time>2024-05-30T00:19:45.268Z</time>
      </trkpt>
      <trkpt lat="43.10103" lon="-0.66229">
        <ele>332.89</ele>
        <time>2024-05-30T00:19:58.276Z</time>
      </trkpt>
      <trkpt lat="43.10086" lon="-0.66248">
        <ele>333.73</ele>
        <time>2024-05-30T00:20:11.288Z</time>
      </trkpt>
      <trkpt lat="43.10071" lon="-0.66275">
        <ele>334.57</ele>
        <time>2024-05-30T00:20:24.304Z</time>
      </trkpt>
      <trkpt lat="43.10062" lon="-0.66297">
        <ele>335.35</ele>
        <time>2024-05-30T00:20:37.324Z</time>
      </trkpt>
      <trkpt lat="43.10026" lon="-0.6637">
        <ele>336.03</ele>
        <time>2024-05-30T00:20:50.356Z</time>
      </trkpt>
      <trkpt lat="43.09966" lon="-0.66492">
        <ele>336.86</ele>
        <time>2024-05-30T00:21:03.408Z</time>
      </trkpt>
      <trkpt lat="43.09952" lon="-0.66515">
        <ele>337.54</ele>
        <time>2024-05-30T00:21:16.464Z</time>
      </trkpt>
      <trkpt lat="43.09819" lon="-0.6671">
        <ele>338.2</ele>
        <time>2024-05-30T00:21:29.556Z</time>
      </trkpt>
      <trkpt lat="43.09771" lon="-0.66787">
        <ele>338.66</ele>
        <time>2024-05-30T00:21:42.662Z</time>
      </trkpt>
      <trkpt lat="43.09742" lon="-0.66839">
        <ele>339.54</ele>
        <time>2024-05-30T00:21:55.777Z</time>
      </trkpt>
      <trkpt lat="43.09724" lon="-0.66876">
        <ele>340.09</ele>
        <time>2024-05-30T00:22:08.898Z</time>
      </trkpt>
      <trkpt lat="43.09676" lon="-0.67004">
        <ele>340.92</ele>
        <time>2024-05-30T00:22:22.038Z</time>
      </trkpt>
      <trkpt lat="43.09672" lon="-0.67024">
        <ele>341.42</ele>
        <time>2024-05-30T00:22:35.181Z</time>
      </trkpt>
      <trkpt lat="43.0967" lon="-0.67037">
        <ele>341.87</ele>
        <time>2024-05-30T00:22:48.326Z</time>
      </trkpt>
      <trkpt lat="43.0967" lon="-0.6705">
        <ele>342.26</ele>
        <time>2024-05-30T00:23:01.473Z</time>
      </trkpt>
      <trkpt lat="43.09677" lon="-0.67099">
        <ele>342.5</ele>
        <time>2024-05-30T00:23:14.627Z</time>
      </trkpt>
      <trkpt lat="43.09677" lon="-0.67115">
        <ele>342.87</ele>
        <time>2024-05-30T00:23:27.783Z</time>
      </trkpt>
      <trkpt lat="43.09672" lon="-0.67144">
        <ele>343.2</ele>
        <time>2024-05-30T00:23:40.943Z</time>
      </trkpt>
      <trkpt lat="43.09669" lon="-0.67151">
        <ele>343.81</ele>
        <time>2024-05-30T00:23:54.104Z</time>
      </trkpt>
      <trkpt lat="43.09662" lon="-0.67166">
        <ele>343.54</ele>
        <time>2024-05-30T00:24:07.267Z</time>
      </trkpt>
      <trkpt lat="43.09652" lon="-0.67179">
        <ele>343.9</ele>
        <time>2024-05-30T00:24:20.433Z</time>
      </trkpt>
      <trkpt lat="43.09609" lon="-0.67212">
        <ele>344.37</ele>
        <time>2024-05-30T00:24:33.608Z</time>
      </trkpt>
      <trkpt lat="43.09594" lon="-0.67234">
        <ele>344.75</ele>
        <time>2024-05-30T00:24:46.787Z</time>
      </trkpt>
      <trkpt lat="43.09584" lon="-0.67259">
        <ele>345.45</ele>
        <time>2024-05-30T00:24:59.970Z</time>
      </trkpt>
      <trkpt lat="43.09579" lon="-0.67304">
        <ele>345.8</ele>
        <time>2024-05-30T00:25:13.159Z</time>
      </trkpt>
      <trkpt lat="43.0955" lon="-0.68085">
        <ele>346.67</ele>
        <time>2024-05-30T00:25:26.455Z</time>
      </trkpt>
      <trkpt lat="43.09539" lon="-0.68276">
        <ele>347.22</ele>
        <time>2024-05-30T00:25:39.777Z</time>
      </trkpt>
      <trkpt lat="43.09535" lon="-0.68293">
        <ele>347.4</ele>
        <time>2024-05-30T00:25:53.102Z</time>
      </trkpt>
      <trkpt lat="43.09526" lon="-0.68319">
        <ele>347.46</ele>
        <time>2024-05-30T00:26:06.430Z</time>
      </trkpt>
      <trkpt lat="43.09509" lon="-0.68363">
        <ele>347.52</ele>
        <time>2024-05-30T00:26:19.765Z</time>
      </trkpt>
      <trkpt lat="43.09495" lon="-0.6839">
        <ele>347.73</ele>
        <time>2024-05-30T00:26:33.105Z</time>
      </trkpt>
      <trkpt lat="43.09482" lon="-0.6841">
        <ele>348.16</ele>
        <time>2024-05-30T00:26:46.448Z</time>
      </trkpt>
      <trkpt lat="43.09475" lon="-0.6842">
        <ele>347.95</ele>
        <time>2024-05-30T00:26:59.793Z</time>
      </trkpt>
      <trkpt lat="43.09465" lon="-0.68429">
        <ele>348.19</ele>
        <time>2024-05-30T00:27:13.140Z</time>
      </trkpt>
      <trkpt lat="43.09453" lon="-0.68435">
        <ele>348.46</ele>
        <time>2024-05-30T00:27:26.490Z</time>
      </trkpt>
      <trkpt lat="43.09416" lon="-0.68447">
        <ele>348.71</ele>
        <time>2024-05-30T00:27:39.847Z</time>
      </trkpt>
      <trkpt lat="43.09407" lon="-0.68453">
        <ele>349.03</ele>
        <time>2024-05-30T00:27:53.206Z</time>
      </trkpt>
      <trkpt lat="43.09399" lon="-0.68461">
        <ele>349.4</ele>
        <time>2024-05-30T00:28:06.567Z</time>
      </trkpt>
      <trkpt lat="43.09393" lon="-0.68472">
        <ele>349.82</ele>
        <time>2024-05-30T00:28:19.930Z</time>
      </trkpt>
      <trkpt lat="43.09392" lon="-0.6848">
        <ele>350.27</ele>
        <time>2024-05-30T00:28:33.294Z</time>
      </trkpt>
      <trkpt lat="43.09378" lon="-0.68579">
        <ele>350.91</ele>
        <time>2024-05-30T00:28:46.671Z</time>
      </trkpt>
      <trkpt lat="43.09372" lon="-0.68595">
        <ele>351.48</ele>
        <time>2024-05-30T00:29:00.051Z</time>
      </trkpt>
      <trkpt lat="43.09316" lon="-0.68694">
        <ele>352.06</ele>
        <time>2024-05-30T00:29:13.448Z</time>
      </trkpt>
      <trkpt lat="43.09304" lon="-0.68727">
        <ele>352.68</ele>
        <time>2024-05-30T00:29:26.850Z</time>
      </trkpt>
      <trkpt lat="43.09299" lon="-0.68747">
        <ele>353.42</ele>
        <time>2024-05-30T00:29:40.255Z</time>
      </trkpt>
      <trkpt lat="43.09295" lon="-0.68776">
        <ele>354.2</ele>
        <time>2024-05-30T00:29:53.664Z</time>
      </trkpt>
      <trkpt lat="43.09294" lon="-0.68803">
        <ele>355.05</ele>
        <time>2024-05-30T00:30:07.076Z</time>
      </trkpt>
      <trkpt lat="43.09294" lon="-0.68859">
        <ele>356.11</ele>
        <time>2024-05-30T00:30:20.496Z</time>
      </trkpt>
      <trkpt lat="43.0929" lon="-0.68901">
        <ele>357.45</ele>
        <time>2024-05-30T00:30:33.922Z</time>
      </trkpt>
      <trkpt lat="43.09285" lon="-0.68927">
        <ele>358.63</ele>
        <time>2024-05-30T00:30:47.352Z</time>
      </trkpt>
      <trkpt lat="43.09279" lon="-0.68946">
        <ele>359.74</ele>
        <time>2024-05-30T00:31:00.784Z</time>
      </trkpt>
      <trkpt lat="43.0927" lon="-0.68965">
        <ele>360.81</ele>
        <time>2024-05-30T00:31:14.219Z</time>
      </trkpt>
      <trkpt lat="43.0925" lon="-0.69">
        <ele>361.89</ele>
        <time>2024-05-30T00:31:27.660Z</time>
      </trkpt>
      <trkpt lat="43.0923" lon="-0.69071">
        <ele>361.17</ele>
        <time>2024-05-30T00:31:41.112Z</time>
      </trkpt>
      <trkpt lat="43.09214" lon="-0.69126">
        <ele>362.21</ele>
        <time>2024-05-30T00:31:54.572Z</time>
      </trkpt>
      <trkpt lat="43.09202" lon="-0.69176">
        <ele>363.47</ele>
        <time>2024-05-30T00:32:08.039Z</time>
      </trkpt>
      <trkpt lat="43.09199" lon="-0.69196">
        <ele>364.35</ele>
        <time>2024-05-30T00:32:21.509Z</time>
      </trkpt>
      <trkpt lat="43.09199" lon="-0.69224">
        <ele>365.7</ele>
        <time>2024-05-30T00:32:34.983Z</time>
      </trkpt>
      <trkpt lat="43.09203" lon="-0.69271">
        <ele>367.19</ele>
        <time>2024-05-30T00:32:48.463Z</time>
      </trkpt>
      <trkpt lat="43.0921" lon="-0.69317">
        <ele>368.55</ele>
        <time>2024-05-30T00:33:01.950Z</time>
      </trkpt>
      <trkpt lat="43.09239" lon="-0.6941">
        <ele>369.8</ele>
        <time>2024-05-30T00:33:15.450Z</time>
      </trkpt>
      <trkpt lat="43.09243" lon="-0.69434">
        <ele>371.21</ele>
        <time>2024-05-30T00:33:28.954Z</time>
      </trkpt>
      <trkpt lat="43.09246" lon="-0.69478">
        <ele>372.71</ele>
        <time>2024-05-30T00:33:42.464Z</time>
      </trkpt>
      <trkpt lat="43.09247" lon="-0.69542">
        <ele>374.56</ele>
        <time>2024-05-30T00:33:55.982Z</time>
      </trkpt>
      <trkpt lat="43.09249" lon="-0.69557">
        <ele>376.06</ele>
        <time>2024-05-30T00:34:09.503Z</time>
      </trkpt>
      <trkpt lat="43.09259" lon="-0.69588">
        <ele>377.47</ele>
        <time>2024-05-30T00:34:23.028Z</time>
      </trkpt>
      <trkpt lat="43.09262" lon="-0.69607">
        <ele>378.99</ele>
        <time>2024-05-30T00:34:36.556Z</time>
      </trkpt>
      <trkpt lat="43.0926" lon="-0.69631">
        <ele>380.58</ele>
        <time>2024-05-30T00:34:50.087Z</time>
      </trkpt>
      <trkpt lat="43.09238" lon="-0.6974">
        <ele>382.4</ele>
        <time>2024-05-30T00:35:03.633Z</time>
      </trkpt>
      <trkpt lat="43.09231" lon="-0.69761">
        <ele>383.89</ele>
        <time>2024-05-30T00:35:17.183Z</time>
      </trkpt>
      <trkpt lat="43.09225" lon="-0.69774">
        <ele>385.37</ele>
        <time>2024-05-30T00:35:30.735Z</time>
      </trkpt>
      <trkpt lat="43.09204" lon="-0.69792">
        <ele>387.04</ele>
        <time>2024-05-30T00:35:44.291Z</time>
      </trkpt>
      <trkpt lat="43.09199" lon="-0.69798">
        <ele>388.4</ele>
        <time>2024-05-30T00:35:57.849Z</time>
      </trkpt>
      <trkpt lat="43.09198" lon="-0.69806">
        <ele>389.64</ele>
        <time>2024-05-30T00:36:11.408Z</time>
      </trkpt>
      <trkpt lat="43.092" lon="-0.69819">
        <ele>390.82</ele>
        <time>2024-05-30T00:36:24.969Z</time>
      </trkpt>
      <trkpt lat="43.09205" lon="-0.69825">
        <ele>391.92</ele>
        <time>2024-05-30T00:36:38.531Z</time>
      </trkpt>
      <trkpt lat="43.09219" lon="-0.69833">
        <ele>392.88</ele>
        <time>2024-05-30T00:36:52.096Z</time>
      </trkpt>
      <trkpt lat="43.09225" lon="-0.6984">
        <ele>393.88</ele>
        <time>2024-05-30T00:37:05.662Z</time>
      </trkpt>
      <trkpt lat="43.0923" lon="-0.69852">
        <ele>394.86</ele>
        <time>2024-05-30T00:37:19.230Z</time>
      </trkpt>
      <trkpt lat="43.09233" lon="-0.69882">
        <ele>395.88</ele>
        <time>2024-05-30T00:37:32.802Z</time>
      </trkpt>
      <trkpt lat="43.09233" lon="-0.69905">
        <ele>396.84</ele>
        <time>2024-05-30T00:37:46.377Z</time>
      </trkpt>
      <trkpt lat="43.0923" lon="-0.69926">
        <ele>397.8</ele>
        <time>2024-05-30T00:37:59.955Z</time>
      </trkpt>
      <trkpt lat="43.09223" lon="-0.6995">
        <ele>398.77</ele>
        <time>2024-05-30T00:38:13.537Z</time>
      </trkpt>
      <trkpt lat="43.09215" lon="-0.69966">
        <ele>399.74</ele>
        <time>2024-05-30T00:38:27.121Z</time>
      </trkpt>
      <trkpt lat="43.09199" lon="-0.69983">
        <ele>400.75</ele>
        <time>2024-05-30T00:38:40.709Z</time>
      </trkpt>
      <trkpt lat="43.09166" lon="-0.70008">
        <ele>401.87</ele>
        <time>2024-05-30T00:38:54.304Z</time>
      </trkpt>
      <trkpt lat="43.09162" lon="-0.70019">
        <ele>402.72</ele>
        <time>2024-05-30T00:39:07.901Z</time>
      </trkpt>
      <trkpt lat="43.09161" lon="-0.70028">
        <ele>403.53</ele>
        <time>2024-05-30T00:39:21.499Z</time>
      </trkpt>
      <trkpt lat="43.09162" lon="-0.70035">
        <ele>404.29</ele>
        <time>2024-05-30T00:39:35.098Z</time>
      </trkpt>
      <trkpt lat="43.09166" lon="-0.70042">
        <ele>405.03</ele>
        <time>2024-05-30T00:39:48.698Z</time>
      </trkpt>
      <trkpt lat="43.09173" lon="-0.70044">
        <ele>405.71</ele>
        <time>2024-05-30T00:40:02.299Z</time>
      </trkpt>
      <trkpt lat="43.09193" lon="-0.70041">
        <ele>406.28</ele>
        <time>2024-05-30T00:40:15.904Z</time>
      </trkpt>
      <trkpt lat="43.09219" lon="-0.7004">
        <ele>406.79</ele>
        <time>2024-05-30T00:40:29.514Z</time>
      </trkpt>
      <trkpt lat="43.09228" lon="-0.70044">
        <ele>407.42</ele>
        <time>2024-05-30T00:40:43.126Z</time>
      </trkpt>
      <trkpt lat="43.09235" lon="-0.70057">
        <ele>408.09</ele>
        <time>2024-05-30T00:40:56.740Z</time>
      </trkpt>
      <trkpt lat="43.09236" lon="-0.70068">
        <ele>409.57</ele>
        <time>2024-05-30T00:41:10.356Z</time>
      </trkpt>
      <trkpt lat="43.09233" lon="-0.70084">
        <ele>410.39</ele>
        <time>2024-05-30T00:41:23.974Z</time>
      </trkpt>
      <trkpt lat="43.09223" lon="-0.70105">
        <ele>411.26</ele>
        <time>2024-05-30T00:41:37.595Z</time>
      </trkpt>
      <trkpt lat="43.09208" lon="-0.70129">
        <ele>412.19</ele>
        <time>2024-05-30T00:41:51.220Z</time>
      </trkpt>
      <trkpt lat="43.09135" lon="-0.70201">
        <ele>413.56</ele>
        <time>2024-05-30T00:42:04.862Z</time>
      </trkpt>
      <trkpt lat="43.09128" lon="-0.70215">
        <ele>414.38</ele>
        <time>2024-05-30T00:42:18.507Z</time>
      </trkpt>
      <trkpt lat="43.09129" lon="-0.70231">
        <ele>415.11</ele>
        <time>2024-05-30T00:42:32.154Z</time>
      </trkpt>
      <trkpt lat="43.09136" lon="-0.7024">
        <ele>415.76</ele>
        <time>2024-05-30T00:42:45.803Z</time>
      </trkpt>
      <trkpt lat="43.09146" lon="-0.70244">
        <ele>416.33</ele>
        <time>2024-05-30T00:42:59.453Z</time>
      </trkpt>
      <trkpt lat="43.09233" lon="-0.70217">
        <ele>416.68</ele>
        <time>2024-05-30T00:43:13.120Z</time>
      </trkpt>
      <trkpt lat="43.09242" lon="-0.70219">
        <ele>417.22</ele>
        <time>2024-05-30T00:43:26.789Z</time>
      </trkpt>
      <trkpt lat="43.09247" lon="-0.70223">
        <ele>417.73</ele>
        <time>2024-05-30T00:43:40.459Z</time>
      </trkpt>
      <trkpt lat="43.09251" lon="-0.70232">
        <ele>418.23</ele>
        <time>2024-05-30T00:43:54.130Z</time>
      </trkpt>
      <trkpt lat="43.09255" lon="-0.70244">
        <ele>418.62</ele>
        <time>2024-05-30T00:44:07.803Z</time>
      </trkpt>
      <trkpt lat="43.09255" lon="-0.70258">
        <ele>418.88</ele>
        <time>2024-05-30T00:44:21.478Z</time>
      </trkpt>
      <trkpt lat="43.09243" lon="-0.70349">
        <ele>419.3</ele>
        <time>2024-05-30T00:44:35.166Z</time>
      </trkpt>
      <trkpt lat="43.09242" lon="-0.70404">
        <ele>419.5</ele>
        <time>2024-05-30T00:44:48.861Z</time>
      </trkpt>
      <trkpt lat="43.09236" lon="-0.70419">
        <ele>419.59</ele>
        <time>2024-05-30T00:45:02.558Z</time>
      </trkpt>
      <trkpt lat="43.09212" lon="-0.70448">
        <ele>419.56</ele>
        <time>2024-05-30T00:45:16.261Z</time>
      </trkpt>
      <trkpt lat="43.09207" lon="-0.70462">
        <ele>419.4</ele>
        <time>2024-05-30T00:45:29.967Z</time>
      </trkpt>
      <trkpt lat="43.09204" lon="-0.70478">
        <ele>419.94</ele>
        <time>2024-05-30T00:45:43.675Z</time>
      </trkpt>
      <trkpt lat="43.09201" lon="-0.70496">
        <ele>419.13</ele>
        <time>2024-05-30T00:45:57.385Z</time>
      </trkpt>
      <trkpt lat="43.09202" lon="-0.70524">
        <ele>418.81</ele>
        <time>2024-05-30T00:46:11.099Z</time>
      </trkpt>
      <trkpt lat="43.09213" lon="-0.70557">
        <ele>418.45</ele>
        <time>2024-05-30T00:46:24.818Z</time>
      </trkpt>
      <trkpt lat="43.09216" lon="-0.7057">
        <ele>417.99</ele>
        <time>2024-05-30T00:46:38.539Z</time>
      </trkpt>
      <trkpt lat="43.09214" lon="-0.70589">
        <ele>417.41</ele>
        <time>2024-05-30T00:46:52.263Z</time>
      </trkpt>
      <trkpt lat="43.09211" lon="-0.70596">
        <ele>417.09</ele>
        <time>2024-05-30T00:47:05.988Z</time>
      </trkpt>
      <trkpt lat="43.09187" lon="-0.70626">
        <ele>415.8</ele>
        <time>2024-05-30T00:47:19.719Z</time>
      </trkpt>
      <trkpt lat="43.09178" lon="-0.7064">
        <ele>414.98</ele>
        <time>2024-05-30T00:47:33.452Z</time>
      </trkpt>
      <trkpt lat="43.09161" lon="-0.70677">
        <ele>414.04</ele>
        <time>2024-05-30T00:47:47.191Z</time>
      </trkpt>
      <trkpt lat="43.09156" lon="-0.70699">
        <ele>413.1</ele>
        <time>2024-05-30T00:48:00.933Z</time>
      </trkpt>
      <trkpt lat="43.09158" lon="-0.70709">
        <ele>412.23</ele>
        <time>2024-05-30T00:48:14.677Z</time>
      </trkpt>
      <trkpt lat="43.09162" lon="-0.70716">
        <ele>411.36</ele>
        <time>2024-05-30T00:48:28.422Z</time>
      </trkpt>
      <trkpt lat="43.09169" lon="-0.70722">
        <ele>410.45</ele>
        <time>2024-05-30T00:48:42.168Z</time>
      </trkpt>
      <trkpt lat="43.09236" lon="-0.70755">
        <ele>409.67</ele>
        <time>2024-05-30T00:48:55.928Z</time>
      </trkpt>
      <trkpt lat="43.09248" lon="-0.70763">
        <ele>408.72</ele>
        <time>2024-05-30T00:49:09.690Z</time>
      </trkpt>
      <trkpt lat="43.09255" lon="-0.70772">
        <ele>407.72</ele>
        <time>2024-05-30T00:49:23.454Z</time>
      </trkpt>
      <trkpt lat="43.0926" lon="-0.70794">
        <ele>406.7</ele>
        <time>2024-05-30T00:49:37.221Z</time>
      </trkpt>
      <trkpt lat="43.09259" lon="-0.70808">
        <ele>405.67</ele>
        <time>2024-05-30T00:49:50.990Z</time>
      </trkpt>
      <trkpt lat="43.09254" lon="-0.70824">
        <ele>404.62</ele>
        <time>2024-05-30T00:50:04.761Z</time>
      </trkpt>
      <trkpt lat="43.09246" lon="-0.70837">
        <ele>403.53</ele>
        <time>2024-05-30T00:50:18.535Z</time>
      </trkpt>
      <trkpt lat="43.09237" lon="-0.70846">
        <ele>402.45</ele>
        <time>2024-05-30T00:50:32.311Z</time>
      </trkpt>
      <trkpt lat="43.09224" lon="-0.70855">
        <ele>401.34</ele>
        <time>2024-05-30T00:50:46.090Z</time>
      </trkpt>
      <trkpt lat="43.09184" lon="-0.70871">
        <ele>399.92</ele>
        <time>2024-05-30T00:50:59.876Z</time>
      </trkpt>
      <trkpt lat="43.09178" lon="-0.70877">
        <ele>398.77</ele>
        <time>2024-05-30T00:51:13.664Z</time>
      </trkpt>
      <trkpt lat="43.09174" lon="-0.70885">
        <ele>397.63</ele>
        <time>2024-05-30T00:51:27.453Z</time>
      </trkpt>
      <trkpt lat="43.09171" lon="-0.70897">
        <ele>396.51</ele>
        <time>2024-05-30T00:51:41.244Z</time>
      </trkpt>
      <trkpt lat="43.09169" lon="-0.70949">
        <ele>395.21</ele>
        <time>2024-05-30T00:51:55.042Z</time>
      </trkpt>
      <trkpt lat="43.09171" lon="-0.70961">
        <ele>394.1</ele>
        <time>2024-05-30T00:52:08.841Z</time>
      </trkpt>
      <trkpt lat="43.09175" lon="-0.70971">
        <ele>392.99</ele>
        <time>2024-05-30T00:52:22.642Z</time>
      </trkpt>
      <trkpt lat="43.09183" lon="-0.7098">
        <ele>391.9</ele>
        <time>2024-05-30T00:52:36.445Z</time>
      </trkpt>
      <trkpt lat="43.09192" lon="-0.70986">
        <ele>390.84</ele>
        <time>2024-05-30T00:52:50.250Z</time>
      </trkpt>
      <trkpt lat="43.09203" lon="-0.70991">
        <ele>389.8</ele>
        <time>2024-05-30T00:53:04.057Z</time>
      </trkpt>
      <trkpt lat="43.09235" lon="-0.70996">
        <ele>388.92</ele>
        <time>2024-05-30T00:53:17.870Z</time>
      </trkpt>
      <trkpt lat="43.09243" lon="-0.71001">
        <ele>387.85</ele>
        <time>2024-05-30T00:53:31.685Z</time>
      </trkpt>
      <trkpt lat="43.09249" lon="-0.71009">
        <ele>386.78</ele>
        <time>2024-05-30T00:53:45.501Z</time>
      </trkpt>
      <trkpt lat="43.09251" lon="-0.71015">
        <ele>385.67</ele>
        <time>2024-05-30T00:53:59.318Z</time>
      </trkpt>
      <trkpt lat="43.09252" lon="-0.71024">
        <ele>383.84</ele>
        <time>2024-05-30T00:54:13.136Z</time>
      </trkpt>
      <trkpt lat="43.09249" lon="-0.71045">
        <ele>383.29</ele>
        <time>2024-05-30T00:54:26.957Z</time>
      </trkpt>
      <trkpt lat="43.09238" lon="-0.71072">
        <ele>380.86</ele>
        <time>2024-05-30T00:54:40.782Z</time>
      </trkpt>
      <trkpt lat="43.09208" lon="-0.71114">
        <ele>379.39</ele>
        <time>2024-05-30T00:54:54.615Z</time>
      </trkpt>
      <trkpt lat="43.09203" lon="-0.71124">
        <ele>378.24</ele>
        <time>2024-05-30T00:55:08.450Z</time>
      </trkpt>
      <trkpt lat="43.09202" lon="-0.71134">
        <ele>377.13</ele>
        <time>2024-05-30T00:55:22.286Z</time>
      </trkpt>
      <trkpt lat="43.09205" lon="-0.71143">
        <ele>375.1</ele>
        <time>2024-05-30T00:55:36.124Z</time>
      </trkpt>
      <trkpt lat="43.09213" lon="-0.71149">
        <ele>374.16</ele>
        <time>2024-05-30T00:55:49.964Z</time>
      </trkpt>
      <trkpt lat="43.09244" lon="-0.71158">
        <ele>373.27</ele>
        <time>2024-05-30T00:56:03.809Z</time>
      </trkpt>
      <trkpt lat="43.09262" lon="-0.71166">
        <ele>372.2</ele>
        <time>2024-05-30T00:56:17.658Z</time>
      </trkpt>
      <trkpt lat="43.09278" lon="-0.71175">
        <ele>371.23</ele>
        <time>2024-05-30T00:56:31.510Z</time>
      </trkpt>
      <trkpt lat="43.09304" lon="-0.71197">
        <ele>370.34</ele>
        <time>2024-05-30T00:56:45.368Z</time>
      </trkpt>
      <trkpt lat="43.09328" lon="-0.71213">
        <ele>369.56</ele>
        <time>2024-05-30T00:56:59.231Z</time>
      </trkpt>
      <trkpt lat="43.09349" lon="-0.71219">
        <ele>368.87</ele>
        <time>2024-05-30T00:57:13.098Z</time>
      </trkpt>
      <trkpt lat="43.0938" lon="-0.71222">
        <ele>368.06</ele>
        <time>2024-05-30T00:57:26.971Z</time>
      </trkpt>
      <trkpt lat="43.09405" lon="-0.71217">
        <ele>367.27</ele>
        <time>2024-05-30T00:57:40.848Z</time>
      </trkpt>
      <trkpt lat="43.09448" lon="-0.71199">
        <ele>366.53</ele>
        <time>2024-05-30T00:57:54.734Z</time>
      </trkpt>
      <trkpt lat="43.09462" lon="-0.71191">
        <ele>365.79</ele>
        <time>2024-05-30T00:58:08.622Z</time>
      </trkpt>
      <trkpt lat="43.0947" lon="-0.71184">
        <ele>365.14</ele>
        <time>2024-05-30T00:58:22.512Z</time>
      </trkpt>
      <trkpt lat="43.09477" lon="-0.71174">
        <ele>364.56</ele>
        <time>2024-05-30T00:58:36.404Z</time>
      </trkpt>
      <trkpt lat="43.09499" lon="-0.71128">
        <ele>363.87</ele>
        <time>2024-05-30T00:58:50.304Z</time>
      </trkpt>
      <trkpt lat="43.09517" lon="-0.7111">
        <ele>363.06</ele>
        <time>2024-05-30T00:59:04.208Z</time>
      </trkpt>
      <trkpt lat="43.09527" lon="-0.71095">
        <ele>362.45</ele>
        <time>2024-05-30T00:59:18.115Z</time>
      </trkpt>
      <trkpt lat="43.09529" lon="-0.71089">
        <ele>361.22</ele>
        <time>2024-05-30T00:59:32.022Z</time>
      </trkpt>
      <trkpt lat="43.09534" lon="-0.71067">
        <ele>361.34</ele>
        <time>2024-05-30T00:59:45.933Z</time>
      </trkpt>
      <trkpt lat="43.09533" lon="-0.71051">
        <ele>360.84</ele>
        <time>2024-05-30T00:59:59.846Z</time>
      </trkpt>
      <trkpt lat="43.0952" lon="-0.70992">
        <ele>360.37</ele>
        <time>2024-05-30T01:00:13.767Z</time>
      </trkpt>
      <trkpt lat="43.09516" lon="-0.70966">
        <ele>359.75</ele>
        <time>2024-05-30T01:00:27.692Z</time>
      </trkpt>
      <trkpt lat="43.09517" lon="-0.70951">
        <ele>359.13</ele>
        <time>2024-05-30T01:00:41.619Z</time>
      </trkpt>
      <trkpt lat="43.09521" lon="-0.70942">
        <ele>358.54</ele>
        <time>2024-05-30T01:00:55.547Z</time>
      </trkpt>
      <trkpt lat="43.0953" lon="-0.7094">
        <ele>357.9</ele>
        <time>2024-05-30T01:01:09.477Z</time>
      </trkpt>
      <trkpt lat="43.09537" lon="-0.70944">
        <ele>356.27</ele>
        <time>2024-05-30T01:01:23.408Z</time>
      </trkpt>
      <trkpt lat="43.09552" lon="-0.70967">
        <ele>355.34</ele>
        <time>2024-05-30T01:01:37.344Z</time>
      </trkpt>
      <trkpt lat="43.09565" lon="-0.71003">
        <ele>354.21</ele>
        <time>2024-05-30T01:01:51.285Z</time>
      </trkpt>
      <trkpt lat="43.09574" lon="-0.71036">
        <ele>353.19</ele>
        <time>2024-05-30T01:02:05.231Z</time>
      </trkpt>
      <trkpt lat="43.09575" lon="-0.71053">
        <ele>352.06</ele>
        <time>2024-05-30T01:02:19.179Z</time>
      </trkpt>
      <trkpt lat="43.09572" lon="-0.71111">
        <ele>350.6</ele>
        <time>2024-05-30T01:02:33.135Z</time>
      </trkpt>
      <trkpt lat="43.09565" lon="-0.71193">
        <ele>347.93</ele>
        <time>2024-05-30T01:02:47.102Z</time>
      </trkpt>
      <trkpt lat="43.09561" lon="-0.71207">
        <ele>346.55</ele>
        <time>2024-05-30T01:03:01.071Z</time>
      </trkpt>
      <trkpt lat="43.09551" lon="-0.71233">
        <ele>345.09</ele>
        <time>2024-05-30T01:03:15.044Z</time>
      </trkpt>
      <trkpt lat="43.09509" lon="-0.71303">
        <ele>343.29</ele>
        <time>2024-05-30T01:03:29.030Z</time>
      </trkpt>
      <trkpt lat="43.09495" lon="-0.71336">
        <ele>341.77</ele>
        <time>2024-05-30T01:03:43.021Z</time>
      </trkpt>
      <trkpt lat="43.09494" lon="-0.71344">
        <ele>341.35</ele>
        <time>2024-05-30T01:03:57.013Z</time>
      </trkpt>
      <trkpt lat="43.09492" lon="-0.71356">
        <ele>340.31</ele>
        <time>2024-05-30T01:04:11.007Z</time>
      </trkpt>
      <trkpt lat="43.09496" lon="-0.71372">
        <ele>338.94</ele>
        <time>2024-05-30T01:04:25.003Z</time>
      </trkpt>
      <trkpt lat="43.09502" lon="-0.71388">
        <ele>337.56</ele>
        <time>2024-05-30T01:04:39.001Z</time>
      </trkpt>
      <trkpt lat="43.09517" lon="-0.71412">
        <ele>336.25</ele>
        <time>2024-05-30T01:04:53.004Z</time>
      </trkpt>
      <trkpt lat="43.09522" lon="-0.71431">
        <ele>334.85</ele>
        <time>2024-05-30T01:05:07.010Z</time>
      </trkpt>
      <trkpt lat="43.09523" lon="-0.71448">
        <ele>333.45</ele>
        <time>2024-05-30T01:05:21.018Z</time>
      </trkpt>
      <trkpt lat="43.0952" lon="-0.71495">
        <ele>331.91</ele>
        <time>2024-05-30T01:05:35.032Z</time>
      </trkpt>
      <trkpt lat="43.09507" lon="-0.71599">
        <ele>330.78</ele>
        <time>2024-05-30T01:05:49.061Z</time>
      </trkpt>
      <trkpt lat="43.09507" lon="-0.71632">
        <ele>329.63</ele>
        <time>2024-05-30T01:06:03.094Z</time>
      </trkpt>
      <trkpt lat="43.09511" lon="-0.71643">
        <ele>327.48</ele>
        <time>2024-05-30T01:06:17.129Z</time>
      </trkpt>
      <trkpt lat="43.09533" lon="-0.71651">
        <ele>326.47</ele>
        <time>2024-05-30T01:06:31.168Z</time>
      </trkpt>
      <trkpt lat="43.0954" lon="-0.71657">
        <ele>325.54</ele>
        <time>2024-05-30T01:06:45.209Z</time>
      </trkpt>
      <trkpt lat="43.09544" lon="-0.71664">
        <ele>324.67</ele>
        <time>2024-05-30T01:06:59.251Z</time>
      </trkpt>
      <trkpt lat="43.09557" lon="-0.71703">
        <ele>323.84</ele>
        <time>2024-05-30T01:07:13.299Z</time>
      </trkpt>
      <trkpt lat="43.09558" lon="-0.71713">
        <ele>323.84</ele>
        <time>2024-05-30T01:07:27.348Z</time>
      </trkpt>
      <trkpt lat="43.09556" lon="-0.71721">
        <ele>322.99</ele>
        <time>2024-05-30T01:07:41.398Z</time>
      </trkpt>
      <trkpt lat="43.09539" lon="-0.71773">
        <ele>322.17</ele>
        <time>2024-05-30T01:07:55.456Z</time>
      </trkpt>
      <trkpt lat="43.09538" lon="-0.7179">
        <ele>321.36</ele>
        <time>2024-05-30T01:08:09.516Z</time>
      </trkpt>
      <trkpt lat="43.09542" lon="-0.71806">
        <ele>320.6</ele>
        <time>2024-05-30T01:08:23.579Z</time>
      </trkpt>
      <trkpt lat="43.09561" lon="-0.71861">
        <ele>319.87</ele>
        <time>2024-05-30T01:08:37.650Z</time>
      </trkpt>
      <trkpt lat="43.09588" lon="-0.71912">
        <ele>319.09</ele>
        <time>2024-05-30T01:08:51.729Z</time>
      </trkpt>
      <trkpt lat="43.09596" lon="-0.71923">
        <ele>318.36</ele>
        <time>2024-05-30T01:09:05.811Z</time>
      </trkpt>
      <trkpt lat="43.09629" lon="-0.71952">
        <ele>317.62</ele>
        <time>2024-05-30T01:09:19.900Z</time>
      </trkpt>
      <trkpt lat="43.09687" lon="-0.71994">
        <ele>316.9</ele>
        <time>2024-05-30T01:09:34.001Z</time>
      </trkpt>
      <trkpt lat="43.09696" lon="-0.72006">
        <ele>316.23</ele>
        <time>2024-05-30T01:09:48.104Z</time>
      </trkpt>
      <trkpt lat="43.09721" lon="-0.72041">
        <ele>315.54</ele>
        <time>2024-05-30T01:10:02.214Z</time>
      </trkpt>
      <trkpt lat="43.09735" lon="-0.72072">
        <ele>314.89</ele>
        <time>2024-05-30T01:10:16.329Z</time>
      </trkpt>
      <trkpt lat="43.09738" lon="-0.72084">
        <ele>314.25</ele>
        <time>2024-05-30T01:10:30.446Z</time>
      </trkpt>
      <trkpt lat="43.09735" lon="-0.72141">
        <ele>313.58</ele>
        <time>2024-05-30T01:10:44.571Z</time>
      </trkpt>
      <trkpt lat="43.09736" lon="-0.72164">
        <ele>312.99</ele>
        <time>2024-05-30T01:10:58.699Z</time>
      </trkpt>
      <trkpt lat="43.09744" lon="-0.72183">
        <ele>312.41</ele>
        <time>2024-05-30T01:11:12.830Z</time>
      </trkpt>
      <trkpt lat="43.09757" lon="-0.72193">
        <ele>311.82</ele>
        <time>2024-05-30T01:11:26.963Z</time>
      </trkpt>
      <trkpt lat="43.09784" lon="-0.72201">
        <ele>311.22</ele>
        <time>2024-05-30T01:11:41.102Z</time>
      </trkpt>
      <trkpt lat="43.09834" lon="-0.72222">
        <ele>310.56</ele>
        <time>2024-05-30T01:11:55.250Z</time>
      </trkpt>
      <trkpt lat="43.09918" lon="-0.72293">
        <ele>309.76</ele>
        <time>2024-05-30T01:12:09.417Z</time>
      </trkpt>
      <trkpt lat="43.09969" lon="-0.72343">
        <ele>309.08</ele>
        <time>2024-05-30T01:12:23.595Z</time>
      </trkpt>
      <trkpt lat="43.10011" lon="-0.72411">
        <ele>308.5</ele>
        <time>2024-05-30T01:12:37.786Z</time>
      </trkpt>
      <trkpt lat="43.10038" lon="-0.7244">
        <ele>307.93</ele>
        <time>2024-05-30T01:12:51.983Z</time>
      </trkpt>
      <trkpt lat="43.1005" lon="-0.72457">
        <ele>307.45</ele>
        <time>2024-05-30T01:13:06.183Z</time>
      </trkpt>
      <trkpt lat="43.10091" lon="-0.72563">
        <ele>306.93</ele>
        <time>2024-05-30T01:13:20.399Z</time>
      </trkpt>
      <trkpt lat="43.1016" lon="-0.72723">
        <ele>306.3</ele>
        <time>2024-05-30T01:13:34.641Z</time>
      </trkpt>
      <trkpt lat="43.1021" lon="-0.72806">
        <ele>305.84</ele>
        <time>2024-05-30T01:13:48.897Z</time>
      </trkpt>
      <trkpt lat="43.10227" lon="-0.72845">
        <ele>305.45</ele>
        <time>2024-05-30T01:14:03.160Z</time>
      </trkpt>
      <trkpt lat="43.10256" lon="-0.72947">
        <ele>305.09</ele>
        <time>2024-05-30T01:14:17.438Z</time>
      </trkpt>
      <trkpt lat="43.10284" lon="-0.73002">
        <ele>304.77</ele>
        <time>2024-05-30T01:14:31.725Z</time>
      </trkpt>
      <trkpt lat="43.10341" lon="-0.73101">
        <ele>304.56</ele>
        <time>2024-05-30T01:14:46.029Z</time>
      </trkpt>
      <trkpt lat="43.10362" lon="-0.73128">
        <ele>304.37</ele>
        <time>2024-05-30T01:15:00.338Z</time>
      </trkpt>
      <trkpt lat="43.10405" lon="-0.7317">
        <ele>304.12</ele>
        <time>2024-05-30T01:15:14.657Z</time>
      </trkpt>
      <trkpt lat="43.10451" lon="-0.7323">
        <ele>304.12</ele>
        <time>2024-05-30T01:15:28.988Z</time>
      </trkpt>
      <trkpt lat="43.1049" lon="-0.73269">
        <ele>304.05</ele>
        <time>2024-05-30T01:15:43.328Z</time>
      </trkpt>
      <trkpt lat="43.10591" lon="-0.73396">
        <ele>303.97</ele>
        <time>2024-05-30T01:15:57.693Z</time>
      </trkpt>
      <trkpt lat="43.10641" lon="-0.73446">
        <ele>303.89</ele>
        <time>2024-05-30T01:16:12.070Z</time>
      </trkpt>
      <trkpt lat="43.10694" lon="-0.73482">
        <ele>303.99</ele>
        <time>2024-05-30T01:16:26.458Z</time>
      </trkpt>
      <trkpt lat="43.10759" lon="-0.73516">
        <ele>303.91</ele>
        <time>2024-05-30T01:16:40.859Z</time>
      </trkpt>
      <trkpt lat="43.10851" lon="-0.73549">
        <ele>304.12</ele>
        <time>2024-05-30T01:16:55.278Z</time>
      </trkpt>
      <trkpt lat="43.1089" lon="-0.73557">
        <ele>304.35</ele>
        <time>2024-05-30T01:17:09.704Z</time>
      </trkpt>
      <trkpt lat="43.1102" lon="-0.73564">
        <ele>305.09</ele>
        <time>2024-05-30T01:17:24.154Z</time>
      </trkpt>
      <trkpt lat="43.11163" lon="-0.73576">
        <ele>305.08</ele>
        <time>2024-05-30T01:17:38.631Z</time>
      </trkpt>
      <trkpt lat="43.11196" lon="-0.73581">
        <ele>305.33</ele>
        <time>2024-05-30T01:17:53.114Z</time>
      </trkpt>
      <trkpt lat="43.11208" lon="-0.73586">
        <ele>305.48</ele>
        <time>2024-05-30T01:18:07.599Z</time>
      </trkpt>
      <trkpt lat="43.11223" lon="-0.73594">
        <ele>305.62</ele>
        <time>2024-05-30T01:18:22.087Z</time>
      </trkpt>
      <trkpt lat="43.11246" lon="-0.73617">
        <ele>305.79</ele>
        <time>2024-05-30T01:18:36.581Z</time>
      </trkpt>
      <trkpt lat="43.11354" lon="-0.7377">
        <ele>305.68</ele>
        <time>2024-05-30T01:18:51.104Z</time>
      </trkpt>
      <trkpt lat="43.11351" lon="-0.73776">
        <ele>305.69</ele>
        <time>2024-05-30T01:19:05.628Z</time>
      </trkpt>
      <trkpt lat="43.11347" lon="-0.73783">
        <ele>305.69</ele>
        <time>2024-05-30T01:19:20.153Z</time>
      </trkpt>
      <trkpt lat="43.11339" lon="-0.73804">
        <ele>305.63</ele>
        <time>2024-05-30T01:19:34.681Z</time>
      </trkpt>
      <trkpt lat="43.11335" lon="-0.73826">
        <ele>305.56</ele>
        <time>2024-05-30T01:19:49.212Z</time>
      </trkpt>
      <trkpt lat="43.11336" lon="-0.7386">
        <ele>305.44</ele>
        <time>2024-05-30T01:20:03.748Z</time>
      </trkpt>
      <trkpt lat="43.11349" lon="-0.7403">
        <ele>305.52</ele>
        <time>2024-05-30T01:20:18.307Z</time>
      </trkpt>
      <trkpt lat="43.11355" lon="-0.74065">
        <ele>305.37</ele>
        <time>2024-05-30T01:20:32.871Z</time>
      </trkpt>
      <trkpt lat="43.11367" lon="-0.74114">
        <ele>305.24</ele>
        <time>2024-05-30T01:20:47.442Z</time>
      </trkpt>
      <trkpt lat="43.11371" lon="-0.74146">
        <ele>305.05</ele>
        <time>2024-05-30T01:21:02.017Z</time>
      </trkpt>
      <trkpt lat="43.11369" lon="-0.74179">
        <ele>304.94</ele>
        <time>2024-05-30T01:21:16.597Z</time>
      </trkpt>
      <trkpt lat="43.11348" lon="-0.74256">
        <ele>305.03</ele>
        <time>2024-05-30T01:21:31.188Z</time>
      </trkpt>
      <trkpt lat="43.11299" lon="-0.7442">
        <ele>305.11</ele>
        <time>2024-05-30T01:21:45.803Z</time>
      </trkpt>
      <trkpt lat="43.11262" lon="-0.7457">
        <ele>304.66</ele>
        <time>2024-05-30T01:22:00.440Z</time>
      </trkpt>
      <trkpt lat="43.11239" lon="-0.74645">
        <ele>305.02</ele>
        <time>2024-05-30T01:22:15.088Z</time>
      </trkpt>
      <trkpt lat="43.1123" lon="-0.74718">
        <ele>304.83</ele>
        <time>2024-05-30T01:22:29.746Z</time>
      </trkpt>
      <trkpt lat="43.11235" lon="-0.74783">
        <ele>305.08</ele>
        <time>2024-05-30T01:22:44.413Z</time>
      </trkpt>
      <trkpt lat="43.11266" lon="-0.74927">
        <ele>305.64</ele>
        <time>2024-05-30T01:22:59.100Z</time>
      </trkpt>
      <trkpt lat="43.11272" lon="-0.74965">
        <ele>306.5</ele>
        <time>2024-05-30T01:23:13.793Z</time>
      </trkpt>
      <trkpt lat="43.11275" lon="-0.75016">
        <ele>307.33</ele>
        <time>2024-05-30T01:23:28.493Z</time>
      </trkpt>
      <trkpt lat="43.11272" lon="-0.75215">
        <ele>308.38</ele>
        <time>2024-05-30T01:23:43.220Z</time>
      </trkpt>
      <trkpt lat="43.11272" lon="-0.75505">
        <ele>310.37</ele>
        <time>2024-05-30T01:23:57.986Z</time>
      </trkpt>
      <trkpt lat="43.11271" lon="-0.75568">
        <ele>311.43</ele>
        <time>2024-05-30T01:24:12.761Z</time>
      </trkpt>
      <trkpt lat="43.11268" lon="-0.75596">
        <ele>312.41</ele>
        <time>2024-05-30T01:24:27.540Z</time>
      </trkpt>
      <trkpt lat="43.11236" lon="-0.75759">
        <ele>317.44</ele>
        <time>2024-05-30T01:24:42.342Z</time>
      </trkpt>
      <trkpt lat="43.11235" lon="-0.75787">
        <ele>318.62</ele>
        <time>2024-05-30T01:24:57.147Z</time>
      </trkpt>
      <trkpt lat="43.11237" lon="-0.75805">
        <ele>319.68</ele>
        <time>2024-05-30T01:25:11.955Z</time>
      </trkpt>
      <trkpt lat="43.11245" lon="-0.75833">
        <ele>320.67</ele>
        <time>2024-05-30T01:25:26.767Z</time>
      </trkpt>
      <trkpt lat="43.11256" lon="-0.75853">
        <ele>321.55</ele>
        <time>2024-05-30T01:25:41.582Z</time>
      </trkpt>
      <trkpt lat="43.11321" lon="-0.75919">
        <ele>322.2</ele>
        <time>2024-05-30T01:25:56.413Z</time>
      </trkpt>
      <trkpt lat="43.11328" lon="-0.7593">
        <ele>322.9</ele>
        <time>2024-05-30T01:26:11.245Z</time>
      </trkpt>
      <trkpt lat="43.11334" lon="-0.75948">
        <ele>323.54</ele>
        <time>2024-05-30T01:26:26.080Z</time>
      </trkpt>
      <trkpt lat="43.11335" lon="-0.75981">
        <ele>324.09</ele>
        <time>2024-05-30T01:26:40.920Z</time>
      </trkpt>
      <trkpt lat="43.11326" lon="-0.76036">
        <ele>324.7</ele>
        <time>2024-05-30T01:26:55.767Z</time>
      </trkpt>
      <trkpt lat="43.11324" lon="-0.76082">
        <ele>325.14</ele>
        <time>2024-05-30T01:27:10.621Z</time>
      </trkpt>
      <trkpt lat="43.11325" lon="-0.76209">
        <ele>325.51</ele>
        <time>2024-05-30T01:27:25.492Z</time>
      </trkpt>
      <trkpt lat="43.11327" lon="-0.76242">
        <ele>322.6</ele>
        <time>2024-05-30T01:27:40.367Z</time>
      </trkpt>
      <trkpt lat="43.11327" lon="-0.76261">
        <ele>322.94</ele>
        <time>2024-05-30T01:27:55.245Z</time>
      </trkpt>
      <trkpt lat="43.11315" lon="-0.76354">
        <ele>325.71</ele>
        <time>2024-05-30T01:28:10.136Z</time>
      </trkpt>
      <trkpt lat="43.11304" lon="-0.76394">
        <ele>325.74</ele>
        <time>2024-05-30T01:28:25.033Z</time>
      </trkpt>
      <trkpt lat="43.113" lon="-0.76398">
        <ele>325.73</ele>
        <time>2024-05-30T01:28:39.931Z</time>
      </trkpt>
      <trkpt lat="43.11298" lon="-0.76405">
        <ele>325.64</ele>
        <time>2024-05-30T01:28:54.830Z</time>
      </trkpt>
      <trkpt lat="43.113" lon="-0.76414">
        <ele>325.47</ele>
        <time>2024-05-30T01:29:09.730Z</time>
      </trkpt>
      <trkpt lat="43.11297" lon="-0.76442">
        <ele>325.26</ele>
        <time>2024-05-30T01:29:24.634Z</time>
      </trkpt>
      <trkpt lat="43.11216" lon="-0.76731">
        <ele>324.96</ele>
        <time>2024-05-30T01:29:39.580Z</time>
      </trkpt>
      <trkpt lat="43.11181" lon="-0.76901">
        <ele>324.66</ele>
        <time>2024-05-30T01:29:54.550Z</time>
      </trkpt>
      <trkpt lat="43.11175" lon="-0.76919">
        <ele>324.28</ele>
        <time>2024-05-30T01:30:09.523Z</time>
      </trkpt>
      <trkpt lat="43.11161" lon="-0.76958">
        <ele>323.88</ele>
        <time>2024-05-30T01:30:24.502Z</time>
      </trkpt>
      <trkpt lat="43.11148" lon="-0.76984">
        <ele>323.39</ele>
        <time>2024-05-30T01:30:39.485Z</time>
      </trkpt>
      <trkpt lat="43.11132" lon="-0.77006">
        <ele>322.9</ele>
        <time>2024-05-30T01:30:54.472Z</time>
      </trkpt>
      <trkpt lat="43.11127" lon="-0.7701">
        <ele>322.16</ele>
        <time>2024-05-30T01:31:09.460Z</time>
      </trkpt>
      <trkpt lat="43.11113" lon="-0.77021">
        <ele>322.42</ele>
        <time>2024-05-30T01:31:24.451Z</time>
      </trkpt>
      <trkpt lat="43.11052" lon="-0.77047">
        <ele>322.07</ele>
        <time>2024-05-30T01:31:39.454Z</time>
      </trkpt>
      <trkpt lat="43.11042" lon="-0.77055">
        <ele>321.63</ele>
        <time>2024-05-30T01:31:54.459Z</time>
      </trkpt>
      <trkpt lat="43.11036" lon="-0.77063">
        <ele>321.19</ele>
        <time>2024-05-30T01:32:09.466Z</time>
      </trkpt>
      <trkpt lat="43.11026" lon="-0.77084">
        <ele>320.77</ele>
        <time>2024-05-30T01:32:24.476Z</time>
      </trkpt>
      <trkpt lat="43.11025" lon="-0.77095">
        <ele>320.43</ele>
        <time>2024-05-30T01:32:39.488Z</time>
      </trkpt>
      <trkpt lat="43.11028" lon="-0.7722">
        <ele>319.99</ele>
        <time>2024-05-30T01:32:54.517Z</time>
      </trkpt>
      <trkpt lat="43.10988" lon="-0.77229">
        <ele>319.94</ele>
        <time>2024-05-30T01:33:09.553Z</time>
      </trkpt>
      <trkpt lat="43.10965" lon="-0.77247">
        <ele>319.92</ele>
        <time>2024-05-30T01:33:24.594Z</time>
      </trkpt>
      <trkpt lat="43.10945" lon="-0.7726">
        <ele>319.92</ele>
        <time>2024-05-30T01:33:39.639Z</time>
      </trkpt>
      <trkpt lat="43.10927" lon="-0.77263">
        <ele>320.03</ele>
        <time>2024-05-30T01:33:54.688Z</time>
      </trkpt>
      <trkpt lat="43.10905" lon="-0.77263">
        <ele>320.22</ele>
        <time>2024-05-30T01:34:09.741Z</time>
      </trkpt>
      <trkpt lat="43.10842" lon="-0.77252">
        <ele>320.75</ele>
        <time>2024-05-30T01:34:24.806Z</time>
      </trkpt>
      <trkpt lat="43.10702" lon="-0.7727">
        <ele>321.14</ele>
        <time>2024-05-30T01:34:39.897Z</time>
      </trkpt>
      <trkpt lat="43.10682" lon="-0.77277">
        <ele>321.46</ele>
        <time>2024-05-30T01:34:54.992Z</time>
      </trkpt>
      <trkpt lat="43.10614" lon="-0.77311">
        <ele>321.9</ele>
        <time>2024-05-30T01:35:10.100Z</time>
      </trkpt>
      <trkpt lat="43.10579" lon="-0.77339">
        <ele>322.27</ele>
        <time>2024-05-30T01:35:25.216Z</time>
      </trkpt>
      <trkpt lat="43.10559" lon="-0.77352">
        <ele>322.7</ele>
        <time>2024-05-30T01:35:40.336Z</time>
      </trkpt>
      <trkpt lat="43.10545" lon="-0.77357">
        <ele>323.13</ele>
        <time>2024-05-30T01:35:55.459Z</time>
      </trkpt>
      <trkpt lat="43.10522" lon="-0.7736">
        <ele>323.59</ele>
        <time>2024-05-30T01:36:10.586Z</time>
      </trkpt>
      <trkpt lat="43.105" lon="-0.77354">
        <ele>324.01</ele>
        <time>2024-05-30T01:36:25.717Z</time>
      </trkpt>
      <trkpt lat="43.10448" lon="-0.77334">
        <ele>324.55</ele>
        <time>2024-05-30T01:36:40.858Z</time>
      </trkpt>
      <trkpt lat="43.10442" lon="-0.77334">
        <ele>325.23</ele>
        <time>2024-05-30T01:36:56.000Z</time>
      </trkpt>
      <trkpt lat="43.10436" lon="-0.77335">
        <ele>325.94</ele>
        <time>2024-05-30T01:37:11.143Z</time>
      </trkpt>
      <trkpt lat="43.10404" lon="-0.77349">
        <ele>326.8</ele>
        <time>2024-05-30T01:37:26.293Z</time>
      </trkpt>
      <trkpt lat="43.10375" lon="-0.77356">
        <ele>327.53</ele>
        <time>2024-05-30T01:37:41.448Z</time>
      </trkpt>
      <trkpt lat="43.10313" lon="-0.77378">
        <ele>327.85</ele>
        <time>2024-05-30T01:37:56.615Z</time>
      </trkpt>
      <trkpt lat="43.10196" lon="-0.77406">
        <ele>328.68</ele>
        <time>2024-05-30T01:38:11.804Z</time>
      </trkpt>
      <trkpt lat="43.10184" lon="-0.77415">
        <ele>328.87</ele>
        <time>2024-05-30T01:38:26.996Z</time>
      </trkpt>
      <trkpt lat="43.10141" lon="-0.77471">
        <ele>328.97</ele>
        <time>2024-05-30T01:38:42.199Z</time>
      </trkpt>
      <trkpt lat="43.10131" lon="-0.77493">
        <ele>329.54</ele>
        <time>2024-05-30T01:38:57.405Z</time>
      </trkpt>
      <trkpt lat="43.10103" lon="-0.77574">
        <ele>329.98</ele>
        <time>2024-05-30T01:39:12.623Z</time>
      </trkpt>
      <trkpt lat="43.10097" lon="-0.77604">
        <ele>330.44</ele>
        <time>2024-05-30T01:39:27.846Z</time>
      </trkpt>
      <trkpt lat="43.10092" lon="-0.77669">
        <ele>330.95</ele>
        <time>2024-05-30T01:39:43.078Z</time>
      </trkpt>
      <trkpt lat="43.10084" lon="-0.77691">
        <ele>331.58</ele>
        <time>2024-05-30T01:39:58.313Z</time>
      </trkpt>
      <trkpt lat="43.10072" lon="-0.7771">
        <ele>332.27</ele>
        <time>2024-05-30T01:40:13.551Z</time>
      </trkpt>
      <trkpt lat="43.10061" lon="-0.77718">
        <ele>332.89</ele>
        <time>2024-05-30T01:40:28.792Z</time>
      </trkpt>
      <trkpt lat="43.10049" lon="-0.77722">
        <ele>333.5</ele>
        <time>2024-05-30T01:40:44.035Z</time>
      </trkpt>
      <trkpt lat="43.10012" lon="-0.77728">
        <ele>334.18</ele>
        <time>2024-05-30T01:40:59.285Z</time>
      </trkpt>
      <trkpt lat="43.09979" lon="-0.77746">
        <ele>334.78</ele>
        <time>2024-05-30T01:41:14.541Z</time>
      </trkpt>
      <trkpt lat="43.09929" lon="-0.77777">
        <ele>335.29</ele>
        <time>2024-05-30T01:41:29.808Z</time>
      </trkpt>
      <trkpt lat="43.09835" lon="-0.77849">
        <ele>335.68</ele>
        <time>2024-05-30T01:41:45.095Z</time>
      </trkpt>
      <trkpt lat="43.09821" lon="-0.77857">
        <ele>336.08</ele>
        <time>2024-05-30T01:42:00.385Z</time>
      </trkpt>
      <trkpt lat="43.09807" lon="-0.7786">
        <ele>336.56</ele>
        <time>2024-05-30T01:42:15.677Z</time>
      </trkpt>
      <trkpt lat="43.09746" lon="-0.77859">
        <ele>336.86</ele>
        <time>2024-05-30T01:42:30.981Z</time>
      </trkpt>
      <trkpt lat="43.09728" lon="-0.77867">
        <ele>337.07</ele>
        <time>2024-05-30T01:42:46.288Z</time>
      </trkpt>
      <trkpt lat="43.09696" lon="-0.77893">
        <ele>337.52</ele>
        <time>2024-05-30T01:43:01.602Z</time>
      </trkpt>
    </trkseg>
  </trk>
</gpx>